Wetterdaten: Dienstag, 30.04.2019
Datum Zeit Temp. A. Pool Temp. Temp. 5cm Feuchte A. Luftdruck Regen Wind Richtung Richtung Sonnenschein ET UV Solar Taupunkt Windchill Windben Empfang
30.04.2019 00:00 6,6 C 12,8 C 6,1 C 92 % 1016,8 hPa 0,0 l/m 12,8 km/h (3 Bft) W 277 0 min 0,000 mm 0,0 UV-I 0 W/m 5,4 C 2,1 C 19,3 km/h (3 Bft) 98,21 %
30.04.2019 00:02 6,6 C 12,8 C 6,1 C 92 % 1016,8 hPa 0,0 l/m 16,3 km/h (3 Bft) W 276 0 min 0,000 mm 0,0 UV-I 0 W/m 5,4 C 0,4 C 22,5 km/h (4 Bft) 100,00 %
30.04.2019 00:04 6,6 C 12,8 C 6,1 C 91 % 1016,7 hPa 0,0 l/m 11,5 km/h (2 Bft) W-NW 287 0 min 0,000 mm 0,0 UV-I 0 W/m 5,2 C 2,9 C 16,1 km/h (3 Bft) 100,00 %
30.04.2019 00:06 6,6 C 12,8 C 6,1 C 91 % 1016,7 hPa 0,0 l/m 16,1 km/h (3 Bft) W 266 0 min 0,000 mm 0,0 UV-I 0 W/m 5,2 C 0,5 C 20,9 km/h (4 Bft) 100,00 %
30.04.2019 00:08 6,6 C 12,8 C 6,1 C 91 % 1016,7 hPa 0,0 l/m 10,6 km/h (2 Bft) W 274 0 min 0,000 mm 0,0 UV-I 0 W/m 5,2 C 3,4 C 17,7 km/h (3 Bft) 97,87 %
30.04.2019 00:10 6,6 C 12,8 C 6,1 C 91 % 1016,7 hPa 0,0 l/m 14,9 km/h (3 Bft) W 275 0 min 0,000 mm 0,0 UV-I 0 W/m 5,2 C 1,1 C 24,1 km/h (4 Bft) 100,00 %
30.04.2019 00:12 6,6 C 12,8 C 6,1 C 91 % 1016,8 hPa 0,0 l/m 11,4 km/h (2 Bft) W 270 0 min 0,000 mm 0,0 UV-I 0 W/m 5,2 C 3,0 C 14,5 km/h (3 Bft) 100,00 %
30.04.2019 00:14 6,6 C 12,8 C 6,1 C 91 % 1016,8 hPa 0,0 l/m 8,8 km/h (2 Bft) W-SW 253 0 min 0,000 mm 0,0 UV-I 0 W/m 5,2 C 4,7 C 14,5 km/h (3 Bft) 100,00 %
30.04.2019 00:16 6,6 C 12,8 C 6,1 C 91 % 1016,8 hPa 0,0 l/m 12,1 km/h (2 Bft) W 261 0 min 0,000 mm 0,0 UV-I 0 W/m 5,2 C 2,5 C 19,3 km/h (3 Bft) 100,00 %
30.04.2019 00:18 6,6 C 12,8 C 6,1 C 91 % 1016,8 hPa 0,0 l/m 13,3 km/h (3 Bft) W 261 0 min 0,000 mm 0,0 UV-I 0 W/m 5,2 C 1,9 C 19,3 km/h (3 Bft) 100,00 %
30.04.2019 00:20 6,6 C 12,8 C 6,1 C 91 % 1016,8 hPa 0,0 l/m 10,9 km/h (2 Bft) W 273 0 min 0,000 mm 0,0 UV-I 0 W/m 5,2 C 3,3 C 17,7 km/h (3 Bft) 100,00 %
30.04.2019 00:22 6,6 C 12,8 C 6,1 C 91 % 1016,8 hPa 0,0 l/m 9,7 km/h (2 Bft) W 267 0 min 0,000 mm 0,0 UV-I 0 W/m 5,2 C 4,0 C 16,1 km/h (3 Bft) 100,00 %
30.04.2019 00:24 6,6 C 12,8 C 6,1 C 91 % 1016,8 hPa 0,0 l/m 10,8 km/h (2 Bft) W 274 0 min 0,000 mm 0,0 UV-I 0 W/m 5,2 C 3,3 C 16,1 km/h (3 Bft) 100,00 %
30.04.2019 00:26 6,6 C 12,8 C 6,1 C 91 % 1016,9 hPa 0,0 l/m 8,8 km/h (2 Bft) W 260 0 min 0,000 mm 0,0 UV-I 0 W/m 5,2 C 4,7 C 14,5 km/h (3 Bft) 100,00 %
30.04.2019 00:28 6,6 C 12,8 C 6,1 C 91 % 1016,9 hPa 0,0 l/m 13,4 km/h (3 Bft) W 261 0 min 0,000 mm 0,0 UV-I 0 W/m 5,2 C 1,8 C 19,3 km/h (3 Bft) 98,11 %
30.04.2019 00:30 6,6 C 12,8 C 6,1 C 91 % 1016,9 hPa 0,0 l/m 10,2 km/h (2 Bft) W 275 0 min 0,000 mm 0,0 UV-I 0 W/m 5,2 C 3,7 C 16,1 km/h (3 Bft) 97,56 %
30.04.2019 00:32 6,6 C 12,8 C 6,1 C 91 % 1016,9 hPa 0,0 l/m 13,1 km/h (3 Bft) W-SW 254 0 min 0,000 mm 0,0 UV-I 0 W/m 5,2 C 2,0 C 19,3 km/h (3 Bft) 98,11 %
30.04.2019 00:34 6,6 C 12,8 C 6,1 C 91 % 1016,9 hPa 0,0 l/m 13,1 km/h (3 Bft) W-SW 256 0 min 0,000 mm 0,0 UV-I 0 W/m 5,2 C 2,0 C 17,7 km/h (3 Bft) 97,87 %
30.04.2019 00:36 6,7 C 12,8 C 6,1 C 91 % 1016,8 hPa 0,0 l/m 12,9 km/h (3 Bft) W 266 0 min 0,000 mm 0,0 UV-I 0 W/m 5,3 C 2,2 C 19,3 km/h (3 Bft) 96,23 %
30.04.2019 00:38 6,7 C 12,8 C 6,1 C 90 % 1016,9 hPa 0,0 l/m 12,0 km/h (2 Bft) W 263 0 min 0,000 mm 0,0 UV-I 0 W/m 5,2 C 2,7 C 19,3 km/h (3 Bft) 95,45 %
30.04.2019 00:40 6,7 C 12,8 C 6,1 C 90 % 1016,9 hPa 0,0 l/m 10,7 km/h (2 Bft) S-SW 213 0 min 0,000 mm 0,0 UV-I 0 W/m 5,2 C 3,5 C 16,1 km/h (3 Bft) 98,00 %
30.04.2019 00:42 6,7 C 12,8 C 6,1 C 91 % 1016,8 hPa 0,0 l/m 10,4 km/h (2 Bft) W-SW 237 0 min 0,000 mm 0,0 UV-I 0 W/m 5,3 C 3,7 C 16,1 km/h (3 Bft) 92,11 %
30.04.2019 00:44 6,7 C 12,8 C 6,1 C 91 % 1016,8 hPa 0,0 l/m 10,5 km/h (2 Bft) W-SW 250 0 min 0,000 mm 0,0 UV-I 0 W/m 5,3 C 3,6 C 17,7 km/h (3 Bft) 98,11 %
30.04.2019 00:46 6,6 C 12,8 C 6,1 C 91 % 1016,8 hPa 0,0 l/m 12,8 km/h (3 Bft) W-SW 250 0 min 0,000 mm 0,0 UV-I 0 W/m 5,2 C 2,1 C 17,7 km/h (3 Bft) 96,00 %
30.04.2019 00:48 6,6 C 12,8 C 6,1 C 91 % 1016,8 hPa 0,0 l/m 11,0 km/h (2 Bft) SW 234 0 min 0,000 mm 0,0 UV-I 0 W/m 5,2 C 3,2 C 17,7 km/h (3 Bft) 100,00 %
30.04.2019 00:50 6,6 C 12,8 C 6,1 C 92 % 1016,8 hPa 0,0 l/m 9,6 km/h (2 Bft) W-SW 242 0 min 0,000 mm 0,0 UV-I 0 W/m 5,4 C 4,1 C 14,5 km/h (3 Bft) 92,45 %
30.04.2019 00:52 6,5 C 12,8 C 6,1 C 92 % 1016,8 hPa 0,0 l/m 11,8 km/h (2 Bft) W-SW 243 0 min 0,000 mm 0,0 UV-I 0 W/m 5,3 C 2,6 C 16,1 km/h (3 Bft) 97,62 %
30.04.2019 00:54 6,4 C 12,8 C 6,1 C 92 % 1016,8 hPa 0,0 l/m 8,6 km/h (2 Bft) W-NW 293 0 min 0,000 mm 0,0 UV-I 0 W/m 5,2 C 4,6 C 16,1 km/h (3 Bft) 98,00 %
30.04.2019 00:56 6,4 C 12,8 C 6,1 C 92 % 1016,9 hPa 0,0 l/m 11,0 km/h (2 Bft) W 281 0 min 0,000 mm 0,0 UV-I 0 W/m 5,2 C 3,0 C 17,7 km/h (3 Bft) 97,37 %
30.04.2019 00:58 6,4 C 12,8 C 6,1 C 93 % 1016,9 hPa 0,0 l/m 10,8 km/h (2 Bft) W 263 0 min 0,000 mm 0,0 UV-I 0 W/m 5,4 C 3,1 C 14,5 km/h (3 Bft) 100,00 %
30.04.2019 01:00 6,4 C 12,8 C 6,1 C 93 % 1016,8 hPa 0,2 l/m 10,9 km/h (2 Bft) W-SW 251 0 min 0,000 mm 0,0 UV-I 0 W/m 5,4 C 3,0 C 16,1 km/h (3 Bft) 97,37 %
30.04.2019 01:02 6,3 C 12,8 C 6,1 C 92 % 1016,8 hPa 0,0 l/m 8,9 km/h (2 Bft) W 260 0 min 0,000 mm 0,0 UV-I 0 W/m 5,1 C 4,3 C 12,9 km/h (3 Bft) 98,31 %
30.04.2019 01:04 6,3 C 12,8 C 6,1 C 93 % 1016,8 hPa 0,0 l/m 11,8 km/h (2 Bft) W 279 0 min 0,000 mm 0,0 UV-I 0 W/m 5,3 C 2,4 C 19,3 km/h (3 Bft) 97,87 %
30.04.2019 01:06 6,3 C 12,8 C 6,1 C 93 % 1016,8 hPa 0,0 l/m 10,1 km/h (2 Bft) W-SW 249 0 min 0,000 mm 0,0 UV-I 0 W/m 5,3 C 3,4 C 14,5 km/h (3 Bft) 97,56 %
30.04.2019 01:08 6,3 C 12,8 C 6,1 C 93 % 1016,8 hPa 0,0 l/m 9,4 km/h (2 Bft) SW 225 0 min 0,000 mm 0,0 UV-I 0 W/m 5,3 C 3,9 C 14,5 km/h (3 Bft) 97,87 %
30.04.2019 01:10 6,3 C 12,8 C 6,1 C 93 % 1016,8 hPa 0,0 l/m 11,3 km/h (2 Bft) W 277 0 min 0,000 mm 0,0 UV-I 0 W/m 5,3 C 2,7 C 17,7 km/h (3 Bft) 97,62 %
30.04.2019 01:12 6,3 C 12,8 C 6,1 C 93 % 1016,8 hPa 0,0 l/m 8,4 km/h (2 Bft) W-SW 243 0 min 0,000 mm 0,0 UV-I 0 W/m 5,3 C 4,7 C 12,9 km/h (3 Bft) 96,23 %
30.04.2019 01:14 6,3 C 12,8 C 6,1 C 93 % 1016,8 hPa 0,2 l/m 9,1 km/h (2 Bft) W-SW 244 0 min 0,000 mm 0,0 UV-I 0 W/m 5,3 C 4,1 C 12,9 km/h (3 Bft) 100,00 %
30.04.2019 01:16 6,3 C 12,8 C 6,1 C 93 % 1016,8 hPa 0,0 l/m 10,9 km/h (2 Bft) W 278 0 min 0,000 mm 0,0 UV-I 0 W/m 5,3 C 2,9 C 16,1 km/h (3 Bft) 96,00 %
30.04.2019 01:18 6,3 C 12,8 C 6,1 C 93 % 1016,7 hPa 0,0 l/m 11,7 km/h (2 Bft) W-SW 245 0 min 0,000 mm 0,0 UV-I 0 W/m 5,3 C 2,4 C 20,9 km/h (4 Bft) 95,74 %
30.04.2019 01:20 6,3 C 12,8 C 6,1 C 93 % 1016,7 hPa 0,0 l/m 11,5 km/h (2 Bft) SW 223 0 min 0,000 mm 0,0 UV-I 0 W/m 5,3 C 2,6 C 19,3 km/h (3 Bft) 95,74 %
30.04.2019 01:22 6,3 C 12,8 C 6,1 C 93 % 1016,7 hPa 0,0 l/m 13,2 km/h (3 Bft) SW 231 0 min 0,000 mm 0,0 UV-I 0 W/m 5,3 C 1,6 C 19,3 km/h (3 Bft) 94,00 %
30.04.2019 01:24 6,2 C 12,8 C 6,1 C 94 % 1016,7 hPa 0,0 l/m 11,6 km/h (2 Bft) W-SW 240 0 min 0,000 mm 0,0 UV-I 0 W/m 5,3 C 2,4 C 16,1 km/h (3 Bft) 97,37 %
30.04.2019 01:26 6,2 C 12,8 C 6,1 C 94 % 1016,6 hPa 0,0 l/m 11,3 km/h (2 Bft) W-SW 249 0 min 0,000 mm 0,0 UV-I 0 W/m 5,3 C 2,6 C 16,1 km/h (3 Bft) 94,92 %
30.04.2019 01:28 6,2 C 12,8 C 6,1 C 93 % 1016,6 hPa 0,0 l/m 11,7 km/h (2 Bft) W-SW 243 0 min 0,000 mm 0,0 UV-I 0 W/m 5,2 C 2,3 C 17,7 km/h (3 Bft) 96,30 %
30.04.2019 01:30 6,2 C 12,8 C 6,1 C 94 % 1016,5 hPa 0,0 l/m 13,0 km/h (3 Bft) W 269 0 min 0,000 mm 0,0 UV-I 0 W/m 5,3 C 1,6 C 17,7 km/h (3 Bft) 94,03 %
30.04.2019 01:32 6,2 C 12,2 C 6,1 C 94 % 1016,6 hPa 0,2 l/m 11,9 km/h (2 Bft) W-SW 254 0 min 0,000 mm 0,0 UV-I 0 W/m 5,3 C 2,2 C 16,1 km/h (3 Bft) 95,24 %
30.04.2019 01:34 6,2 C 12,2 C 6,1 C 94 % 1016,5 hPa 0,0 l/m 12,7 km/h (3 Bft) W-SW 252 0 min 0,000 mm 0,0 UV-I 0 W/m 5,3 C 1,7 C 17,7 km/h (3 Bft) 96,00 %
30.04.2019 01:36 6,2 C 12,2 C 6,1 C 94 % 1016,6 hPa 0,0 l/m 10,0 km/h (2 Bft) SW 236 0 min 0,000 mm 0,0 UV-I 0 W/m 5,3 C 3,4 C 16,1 km/h (3 Bft) 97,87 %
30.04.2019 01:38 6,2 C 12,2 C 6,1 C 94 % 1016,5 hPa 0,0 l/m 10,5 km/h (2 Bft) W-SW 252 0 min 0,000 mm 0,0 UV-I 0 W/m 5,3 C 3,1 C 16,1 km/h (3 Bft) 96,15 %
30.04.2019 01:40 6,2 C 12,2 C 6,1 C 94 % 1016,5 hPa 0,0 l/m 12,4 km/h (3 Bft) W 259 0 min 0,000 mm 0,0 UV-I 0 W/m 5,3 C 1,9 C 17,7 km/h (3 Bft) 98,46 %
30.04.2019 01:42 6,2 C 12,2 C 6,1 C 94 % 1016,5 hPa 0,0 l/m 11,2 km/h (2 Bft) W 265 0 min 0,000 mm 0,0 UV-I 0 W/m 5,3 C 2,6 C 17,7 km/h (3 Bft) 96,00 %
30.04.2019 01:44 6,2 C 12,2 C 6,1 C 94 % 1016,5 hPa 0,2 l/m 11,2 km/h (2 Bft) W-SW 254 0 min 0,000 mm 0,0 UV-I 0 W/m 5,3 C 2,6 C 16,1 km/h (3 Bft) 95,45 %
30.04.2019 01:46 6,2 C 12,2 C 6,1 C 94 % 1016,5 hPa 0,0 l/m 9,1 km/h (2 Bft) W-SW 247 0 min 0,000 mm 0,0 UV-I 0 W/m 5,3 C 4,0 C 14,5 km/h (3 Bft) 96,00 %
30.04.2019 01:48 6,2 C 12,2 C 6,1 C 94 % 1016,5 hPa 0,0 l/m 11,2 km/h (2 Bft) SW 226 0 min 0,000 mm 0,0 UV-I 0 W/m 5,3 C 2,6 C 16,1 km/h (3 Bft) 93,62 %
30.04.2019 01:50 6,2 C 12,2 C 6,1 C 94 % 1016,5 hPa 0,0 l/m 8,9 km/h (2 Bft) W-SW 257 0 min 0,000 mm 0,0 UV-I 0 W/m 5,3 C 4,2 C 12,9 km/h (3 Bft) 97,87 %
30.04.2019 01:52 6,2 C 12,2 C 6,1 C 94 % 1016,5 hPa 0,0 l/m 8,6 km/h (2 Bft) SW 223 0 min 0,000 mm 0,0 UV-I 0 W/m 5,3 C 4,4 C 12,9 km/h (3 Bft) 95,74 %
30.04.2019 01:54 6,2 C 12,2 C 6,1 C 94 % 1016,5 hPa 0,0 l/m 9,3 km/h (2 Bft) W 265 0 min 0,000 mm 0,0 UV-I 0 W/m 5,3 C 3,9 C 14,5 km/h (3 Bft) 91,43 %
30.04.2019 01:56 6,2 C 12,8 C 6,1 C 94 % 1016,5 hPa 0,0 l/m 9,9 km/h (2 Bft) W-SW 252 0 min 0,000 mm 0,0 UV-I 0 W/m 5,3 C 3,5 C 16,1 km/h (3 Bft) 96,23 %
30.04.2019 01:58 6,2 C 12,2 C 6,1 C 94 % 1016,5 hPa 0,0 l/m 10,4 km/h (2 Bft) SW 231 0 min 0,000 mm 0,0 UV-I 0 W/m 5,3 C 3,1 C 14,5 km/h (3 Bft) 95,12 %
30.04.2019 02:00 6,2 C 12,8 C 6,1 C 94 % 1016,4 hPa 0,0 l/m 8,8 km/h (2 Bft) W-SW 255 0 min 0,000 mm 0,0 UV-I 0 W/m 5,3 C 4,2 C 14,5 km/h (3 Bft) 96,00 %
30.04.2019 02:02 6,2 C 12,2 C 6,1 C 94 % 1016,4 hPa 0,0 l/m 10,2 km/h (2 Bft) W-NW 291 0 min 0,000 mm 0,0 UV-I 0 W/m 5,3 C 3,3 C 14,5 km/h (3 Bft) 96,00 %
30.04.2019 02:04 6,2 C 12,2 C 6,1 C 94 % 1016,3 hPa 0,0 l/m 9,7 km/h (2 Bft) W 271 0 min 0,000 mm 0,0 UV-I 0 W/m 5,3 C 3,6 C 12,9 km/h (3 Bft) 95,74 %
30.04.2019 02:06 6,2 C 12,2 C 6,1 C 94 % 1016,3 hPa 0,0 l/m 10,4 km/h (2 Bft) W 259 0 min 0,000 mm 0,0 UV-I 0 W/m 5,3 C 3,1 C 14,5 km/h (3 Bft) 91,49 %
30.04.2019 02:08 6,2 C 12,2 C 6,1 C 95 % 1016,3 hPa 0,0 l/m 9,2 km/h (2 Bft) W-SW 255 0 min 0,000 mm 0,0 UV-I 0 W/m 5,5 C 4,0 C 14,5 km/h (3 Bft) 95,74 %
30.04.2019 02:10 6,2 C 12,2 C 6,1 C 95 % 1016,3 hPa 0,0 l/m 9,9 km/h (2 Bft) W 261 0 min 0,000 mm 0,0 UV-I 0 W/m 5,5 C 3,5 C 12,9 km/h (3 Bft) 94,00 %
30.04.2019 02:12 6,1 C 12,2 C 6,1 C 95 % 1016,2 hPa 0,0 l/m 9,3 km/h (2 Bft) W-SW 250 0 min 0,000 mm 0,0 UV-I 0 W/m 5,4 C 3,8 C 16,1 km/h (3 Bft) 95,74 %
30.04.2019 02:14 6,1 C 12,2 C 6,1 C 94 % 1016,2 hPa 0,0 l/m 10,4 km/h (2 Bft) W 269 0 min 0,000 mm 0,0 UV-I 0 W/m 5,2 C 3,0 C 17,7 km/h (3 Bft) 97,62 %
30.04.2019 02:16 6,1 C 12,2 C 6,1 C 94 % 1016,1 hPa 0,0 l/m 9,7 km/h (2 Bft) W 263 0 min 0,000 mm 0,0 UV-I 0 W/m 5,2 C 3,5 C 14,5 km/h (3 Bft) 97,73 %
30.04.2019 02:18 6,1 C 12,2 C 6,1 C 95 % 1016,1 hPa 0,2 l/m 12,8 km/h (3 Bft) W-SW 255 0 min 0,000 mm 0,0 UV-I 0 W/m 5,4 C 1,6 C 19,3 km/h (3 Bft) 96,00 %
30.04.2019 02:20 6,1 C 12,2 C 6,1 C 95 % 1016,1 hPa 0,0 l/m 13,3 km/h (3 Bft) W 264 0 min 0,000 mm 0,0 UV-I 0 W/m 5,4 C 1,3 C 17,7 km/h (3 Bft) 97,87 %
30.04.2019 02:22 6,1 C 12,2 C 6,1 C 95 % 1016,1 hPa 0,0 l/m 10,4 km/h (2 Bft) W 266 0 min 0,000 mm 0,0 UV-I 0 W/m 5,4 C 3,0 C 17,7 km/h (3 Bft) 96,00 %
30.04.2019 02:24 6,1 C 12,2 C 6,1 C 95 % 1016,1 hPa 0,0 l/m 11,2 km/h (2 Bft) SW 227 0 min 0,000 mm 0,0 UV-I 0 W/m 5,4 C 2,5 C 16,1 km/h (3 Bft) 97,37 %
30.04.2019 02:26 6,1 C 12,2 C 6,1 C 95 % 1016,0 hPa 0,0 l/m 12,0 km/h (2 Bft) W 261 0 min 0,000 mm 0,0 UV-I 0 W/m 5,4 C 2,0 C 17,7 km/h (3 Bft) 98,21 %
30.04.2019 02:28 6,1 C 12,2 C 6,1 C 95 % 1016,0 hPa 0,0 l/m 12,9 km/h (3 Bft) W-SW 244 0 min 0,000 mm 0,0 UV-I 0 W/m 5,4 C 1,5 C 16,1 km/h (3 Bft) 97,37 %
30.04.2019 02:30 6,1 C 12,2 C 6,1 C 95 % 1016,0 hPa 0,0 l/m 12,2 km/h (2 Bft) SW 233 0 min 0,000 mm 0,0 UV-I 0 W/m 5,4 C 1,9 C 17,7 km/h (3 Bft) 100,00 %
30.04.2019 02:32 6,1 C 12,2 C 6,1 C 95 % 1015,9 hPa 0,0 l/m 10,8 km/h (2 Bft) W-SW 242 0 min 0,000 mm 0,0 UV-I 0 W/m 5,4 C 2,8 C 17,7 km/h (3 Bft) 100,00 %
30.04.2019 02:34 6,1 C 12,2 C 6,1 C 95 % 1015,9 hPa 0,0 l/m 15,2 km/h (3 Bft) W-SW 246 0 min 0,000 mm 0,0 UV-I 0 W/m 5,4 C 0,3 C 22,5 km/h (4 Bft) 100,00 %
30.04.2019 02:36 6,1 C 12,2 C 6,1 C 95 % 1015,9 hPa 0,0 l/m 14,8 km/h (3 Bft) W-SW 251 0 min 0,000 mm 0,0 UV-I 0 W/m 5,4 C 0,5 C 19,3 km/h (3 Bft) 100,00 %
30.04.2019 02:38 6,1 C 12,2 C 6,1 C 95 % 1015,9 hPa 0,0 l/m 12,8 km/h (3 Bft) W-SW 255 0 min 0,000 mm 0,0 UV-I 0 W/m 5,4 C 1,6 C 20,9 km/h (4 Bft) 98,53 %
30.04.2019 02:40 6,1 C 12,2 C 6,1 C 95 % 1016,0 hPa 0,0 l/m 13,6 km/h (3 Bft) SW 229 0 min 0,000 mm 0,0 UV-I 0 W/m 5,4 C 1,1 C 19,3 km/h (3 Bft) 100,00 %
30.04.2019 02:42 6,1 C 12,2 C 6,1 C 95 % 1016,0 hPa 0,0 l/m 13,6 km/h (3 Bft) SW 227 0 min 0,000 mm 0,0 UV-I 0 W/m 5,4 C 1,1 C 19,3 km/h (3 Bft) 100,00 %
30.04.2019 02:44 6,1 C 12,2 C 6,1 C 95 % 1015,9 hPa 0,0 l/m 15,3 km/h (3 Bft) W 263 0 min 0,000 mm 0,0 UV-I 0 W/m 5,4 C 0,3 C 24,1 km/h (4 Bft) 100,00 %
30.04.2019 02:46 6,1 C 12,2 C 6,1 C 95 % 1015,9 hPa 0,0 l/m 14,6 km/h (3 Bft) SW 230 0 min 0,000 mm 0,0 UV-I 0 W/m 5,4 C 0,6 C 19,3 km/h (3 Bft) 100,00 %
30.04.2019 02:48 6,1 C 12,2 C 6,1 C 95 % 1015,8 hPa 0,0 l/m 17,2 km/h (3 Bft) W 260 0 min 0,000 mm 0,0 UV-I 0 W/m 5,4 C -0,6 C 24,1 km/h (4 Bft) 97,44 %
30.04.2019 02:50 6,1 C 12,2 C 6,1 C 95 % 1015,8 hPa 0,0 l/m 14,4 km/h (3 Bft) W-SW 247 0 min 0,000 mm 0,0 UV-I 0 W/m 5,4 C 0,7 C 22,5 km/h (4 Bft) 98,18 %
30.04.2019 02:52 6,1 C 12,2 C 6,1 C 95 % 1015,8 hPa 0,0 l/m 15,9 km/h (3 Bft) W-SW 243 0 min 0,000 mm 0,0 UV-I 0 W/m 5,4 C -0,0 C 22,5 km/h (4 Bft) 100,00 %
30.04.2019 02:54 6,1 C 12,2 C 6,1 C 95 % 1015,8 hPa 0,0 l/m 13,7 km/h (3 Bft) W-SW 250 0 min 0,000 mm 0,0 UV-I 0 W/m 5,4 C 1,1 C 19,3 km/h (3 Bft) 100,00 %
30.04.2019 02:56 6,1 C 12,2 C 6,1 C 95 % 1015,8 hPa 0,2 l/m 18,6 km/h (3 Bft) W-SW 238 0 min 0,000 mm 0,0 UV-I 0 W/m 5,4 C -1,2 C 27,4 km/h (4 Bft) 100,00 %
30.04.2019 02:58 6,1 C 12,2 C 6,1 C 95 % 1015,8 hPa 0,0 l/m 18,3 km/h (3 Bft) W-SW 252 0 min 0,000 mm 0,0 UV-I 0 W/m 5,4 C -1,1 C 24,1 km/h (4 Bft) 100,00 %
30.04.2019 03:00 6,1 C 12,2 C 6,1 C 95 % 1015,7 hPa 0,0 l/m 15,9 km/h (3 Bft) W-SW 238 0 min 0,000 mm 0,0 UV-I 0 W/m 5,4 C -0,0 C 22,5 km/h (4 Bft) 100,00 %
30.04.2019 03:02 6,1 C 12,2 C 6,1 C 95 % 1015,7 hPa 0,0 l/m 18,1 km/h (3 Bft) SW 233 0 min 0,000 mm 0,0 UV-I 0 W/m 5,4 C -1,0 C 27,4 km/h (4 Bft) 97,87 %
30.04.2019 03:04 6,1 C 12,2 C 6,1 C 95 % 1015,7 hPa 0,0 l/m 17,7 km/h (3 Bft) SW 232 0 min 0,000 mm 0,0 UV-I 0 W/m 5,4 C -0,8 C 24,1 km/h (4 Bft) 97,37 %
30.04.2019 03:06 6,1 C 12,2 C 6,1 C 95 % 1015,6 hPa 0,0 l/m 16,6 km/h (3 Bft) W-SW 257 0 min 0,000 mm 0,0 UV-I 0 W/m 5,4 C -0,3 C 25,7 km/h (4 Bft) 98,46 %
30.04.2019 03:08 6,1 C 12,2 C 6,1 C 94 % 1015,6 hPa 0,0 l/m 15,2 km/h (3 Bft) W-SW 248 0 min 0,000 mm 0,0 UV-I 0 W/m 5,2 C 0,3 C 25,7 km/h (4 Bft) 97,73 %
30.04.2019 03:10 6,1 C 12,2 C 6,1 C 95 % 1015,6 hPa 0,0 l/m 16,8 km/h (3 Bft) SW 236 0 min 0,000 mm 0,0 UV-I 0 W/m 5,4 C -0,4 C 30,6 km/h (5 Bft) 97,56 %
30.04.2019 03:12 6,1 C 12,2 C 6,1 C 94 % 1015,5 hPa 0,0 l/m 17,0 km/h (3 Bft) W-SW 242 0 min 0,000 mm 0,0 UV-I 0 W/m 5,2 C -0,5 C 27,4 km/h (4 Bft) 96,00 %
30.04.2019 03:14 6,1 C 12,2 C 6,1 C 94 % 1015,5 hPa 0,0 l/m 20,6 km/h (4 Bft) SW 232 0 min 0,000 mm 0,0 UV-I 0 W/m 5,2 C -2,0 C 29,0 km/h (5 Bft) 96,00 %
30.04.2019 03:16 6,1 C 12,2 C 6,1 C 94 % 1015,4 hPa 0,0 l/m 18,1 km/h (3 Bft) W 259 0 min 0,000 mm 0,0 UV-I 0 W/m 5,2 C -1,0 C 29,0 km/h (5 Bft) 95,74 %
30.04.2019 03:18 6,1 C 12,2 C 5,6 C 94 % 1015,5 hPa 0,0 l/m 11,4 km/h (2 Bft) W-SW 246 0 min 0,000 mm 0,0 UV-I 0 W/m 5,2 C 2,4 C 19,3 km/h (3 Bft) 95,45 %
30.04.2019 03:20 6,1 C 12,2 C 5,6 C 94 % 1015,5 hPa 0,0 l/m 19,2 km/h (3 Bft) W-SW 237 0 min 0,000 mm 0,0 UV-I 0 W/m 5,2 C -1,4 C 27,4 km/h (4 Bft) 96,23 %
30.04.2019 03:22 6,1 C 12,2 C 5,6 C 94 % 1015,3 hPa 0,0 l/m 19,8 km/h (3 Bft) W-SW 252 0 min 0,000 mm 0,0 UV-I 0 W/m 5,2 C -1,7 C 29,0 km/h (5 Bft) 95,12 %
30.04.2019 03:24 6,1 C 12,2 C 5,6 C 94 % 1015,3 hPa 0,0 l/m 20,2 km/h (4 Bft) W-SW 247 0 min 0,000 mm 0,0 UV-I 0 W/m 5,2 C -1,8 C 27,4 km/h (4 Bft) 94,87 %
30.04.2019 03:26 6,1 C 12,2 C 5,6 C 94 % 1015,3 hPa 0,0 l/m 19,3 km/h (3 Bft) SW 233 0 min 0,000 mm 0,0 UV-I 0 W/m 5,2 C -1,5 C 27,4 km/h (4 Bft) 96,36 %
30.04.2019 03:28 6,1 C 12,2 C 5,6 C 94 % 1015,2 hPa 0,0 l/m 19,3 km/h (3 Bft) SW 236 0 min 0,000 mm 0,0 UV-I 0 W/m 5,2 C -1,5 C 27,4 km/h (4 Bft) 95,74 %
30.04.2019 03:30 6,1 C 12,2 C 5,6 C 94 % 1015,2 hPa 0,0 l/m 19,3 km/h (3 Bft) W-SW 246 0 min 0,000 mm 0,0 UV-I 0 W/m 5,2 C -1,5 C 27,4 km/h (4 Bft) 94,00 %
30.04.2019 03:32 6,1 C 12,2 C 5,6 C 94 % 1015,1 hPa 0,0 l/m 15,9 km/h (3 Bft) W-SW 248 0 min 0,000 mm 0,0 UV-I 0 W/m 5,2 C -0,0 C 25,7 km/h (4 Bft) 95,24 %
30.04.2019 03:34 6,1 C 12,2 C 5,6 C 94 % 1015,1 hPa 0,0 l/m 20,0 km/h (4 Bft) W-SW 255 0 min 0,000 mm 0,0 UV-I 0 W/m 5,2 C -1,8 C 30,6 km/h (5 Bft) 95,12 %
30.04.2019 03:36 6,1 C 12,2 C 5,6 C 94 % 1015,1 hPa 0,0 l/m 16,5 km/h (3 Bft) W-SW 250 0 min 0,000 mm 0,0 UV-I 0 W/m 5,2 C -0,3 C 24,1 km/h (4 Bft) 98,31 %
30.04.2019 03:38 6,1 C 12,2 C 5,6 C 94 % 1015,1 hPa 0,0 l/m 13,6 km/h (3 Bft) W-SW 246 0 min 0,000 mm 0,0 UV-I 0 W/m 5,2 C 1,1 C 22,5 km/h (4 Bft) 97,87 %
30.04.2019 03:40 6,1 C 12,2 C 5,6 C 94 % 1015,2 hPa 0,2 l/m 17,1 km/h (3 Bft) W-SW 248 0 min 0,000 mm 0,0 UV-I 0 W/m 5,2 C -0,6 C 24,1 km/h (4 Bft) 97,37 %
30.04.2019 03:42 6,1 C 12,2 C 5,6 C 94 % 1015,2 hPa 0,0 l/m 20,7 km/h (4 Bft) W 260 0 min 0,000 mm 0,0 UV-I 0 W/m 5,2 C -2,0 C 30,6 km/h (5 Bft) 100,00 %
30.04.2019 03:44 6,1 C 12,2 C 5,6 C 94 % 1015,2 hPa 0,0 l/m 17,7 km/h (3 Bft) W-SW 243 0 min 0,000 mm 0,0 UV-I 0 W/m 5,2 C -0,8 C 25,7 km/h (4 Bft) 98,00 %
30.04.2019 03:46 6,1 C 12,2 C 5,6 C 94 % 1015,2 hPa 0,0 l/m 16,6 km/h (3 Bft) W-SW 247 0 min 0,000 mm 0,0 UV-I 0 W/m 5,2 C -0,3 C 25,7 km/h (4 Bft) 97,73 %
30.04.2019 03:48 6,0 C 12,2 C 5,6 C 94 % 1015,2 hPa 0,2 l/m 18,8 km/h (3 Bft) W-SW 254 0 min 0,000 mm 0,0 UV-I 0 W/m 5,1 C -1,4 C 29,0 km/h (5 Bft) 100,00 %
30.04.2019 03:50 6,0 C 12,2 C 5,6 C 94 % 1015,1 hPa 0,0 l/m 22,1 km/h (4 Bft) SW 231 0 min 0,000 mm 0,0 UV-I 0 W/m 5,1 C -2,6 C 30,6 km/h (5 Bft) 100,00 %
30.04.2019 03:52 6,1 C 12,2 C 5,6 C 94 % 1015,1 hPa 0,0 l/m 19,3 km/h (3 Bft) W-SW 247 0 min 0,000 mm 0,0 UV-I 0 W/m 5,2 C -1,5 C 27,4 km/h (4 Bft) 97,73 %
30.04.2019 03:54 6,0 C 12,2 C 5,6 C 94 % 1015,0 hPa 0,0 l/m 21,0 km/h (4 Bft) W-SW 238 0 min 0,000 mm 0,0 UV-I 0 W/m 5,1 C -2,3 C 33,8 km/h (5 Bft) 100,00 %
30.04.2019 03:56 6,0 C 12,2 C 5,6 C 94 % 1015,0 hPa 0,0 l/m 15,3 km/h (3 Bft) W-SW 246 0 min 0,000 mm 0,0 UV-I 0 W/m 5,1 C 0,1 C 24,1 km/h (4 Bft) 100,00 %
30.04.2019 03:58 6,0 C 12,2 C 5,6 C 94 % 1015,1 hPa 0,2 l/m 18,6 km/h (3 Bft) W-SW 254 0 min 0,000 mm 0,0 UV-I 0 W/m 5,1 C -1,3 C 29,0 km/h (5 Bft) 100,00 %
30.04.2019 04:00 6,0 C 12,2 C 5,6 C 94 % 1015,1 hPa 0,0 l/m 17,7 km/h (3 Bft) W 261 0 min 0,000 mm 0,0 UV-I 0 W/m 5,1 C -1,0 C 27,4 km/h (4 Bft) 100,00 %
30.04.2019 04:02 6,0 C 12,2 C 5,6 C 94 % 1014,9 hPa 0,0 l/m 17,8 km/h (3 Bft) W-NW 299 0 min 0,000 mm 0,0 UV-I 0 W/m 5,1 C -1,0 C 24,1 km/h (4 Bft) 100,00 %
30.04.2019 04:04 6,0 C 12,2 C 5,6 C 94 % 1014,9 hPa 0,0 l/m 16,9 km/h (3 Bft) SW 229 0 min 0,000 mm 0,0 UV-I 0 W/m 5,1 C -0,6 C 22,5 km/h (4 Bft) 98,28 %
30.04.2019 04:06 5,9 C 12,2 C 5,6 C 94 % 1014,9 hPa 0,2 l/m 20,6 km/h (4 Bft) SW 230 0 min 0,000 mm 0,0 UV-I 0 W/m 5,0 C -2,2 C 27,4 km/h (4 Bft) 100,00 %
30.04.2019 04:08 5,9 C 12,2 C 5,6 C 94 % 1014,9 hPa 0,0 l/m 19,3 km/h (3 Bft) SW 225 0 min 0,000 mm 0,0 UV-I 0 W/m 5,0 C -1,7 C 29,0 km/h (5 Bft) 100,00 %
30.04.2019 04:10 5,9 C 12,2 C 5,6 C 94 % 1015,0 hPa 0,0 l/m 21,8 km/h (4 Bft) SW 234 0 min 0,000 mm 0,0 UV-I 0 W/m 5,0 C -2,7 C 37,0 km/h (5 Bft) 100,00 %
30.04.2019 04:12 5,9 C 12,2 C 5,6 C 94 % 1014,9 hPa 0,0 l/m 24,2 km/h (4 Bft) SW 227 0 min 0,000 mm 0,0 UV-I 0 W/m 5,0 C -3,5 C 35,4 km/h (5 Bft) 100,00 %
30.04.2019 04:14 5,9 C 12,2 C 5,6 C 93 % 1014,9 hPa 0,0 l/m 19,5 km/h (3 Bft) W-SW 244 0 min 0,000 mm 0,0 UV-I 0 W/m 4,9 C -1,8 C 30,6 km/h (5 Bft) 100,00 %
30.04.2019 04:16 5,9 C 12,2 C 5,6 C 94 % 1014,9 hPa 0,0 l/m 19,1 km/h (3 Bft) W 263 0 min 0,000 mm 0,0 UV-I 0 W/m 5,0 C -1,7 C 29,0 km/h (5 Bft) 98,11 %
30.04.2019 04:18 5,9 C 12,2 C 5,6 C 94 % 1014,9 hPa 0,0 l/m 18,4 km/h (3 Bft) W-SW 239 0 min 0,000 mm 0,0 UV-I 0 W/m 5,0 C -1,4 C 29,0 km/h (5 Bft) 100,00 %
30.04.2019 04:20 5,9 C 12,2 C 5,6 C 93 % 1014,8 hPa 0,2 l/m 18,8 km/h (3 Bft) W 259 0 min 0,000 mm 0,0 UV-I 0 W/m 4,9 C -1,5 C 29,0 km/h (5 Bft) 97,56 %
30.04.2019 04:22 5,9 C 12,2 C 5,6 C 93 % 1014,8 hPa 0,0 l/m 20,6 km/h (4 Bft) W-SW 257 0 min 0,000 mm 0,0 UV-I 0 W/m 4,9 C -2,2 C 32,2 km/h (5 Bft) 98,11 %
30.04.2019 04:24 5,9 C 12,2 C 5,6 C 93 % 1014,7 hPa 0,0 l/m 16,5 km/h (3 Bft) W 269 0 min 0,000 mm 0,0 UV-I 0 W/m 4,9 C -0,5 C 25,7 km/h (4 Bft) 100,00 %
30.04.2019 04:26 5,9 C 12,2 C 5,6 C 93 % 1014,6 hPa 0,2 l/m 23,0 km/h (4 Bft) W-SW 257 0 min 0,000 mm 0,0 UV-I 0 W/m 4,9 C -3,1 C 38,6 km/h (5 Bft) 100,00 %
30.04.2019 04:28 5,9 C 12,2 C 5,6 C 93 % 1014,8 hPa 0,0 l/m 22,2 km/h (4 Bft) W-SW 240 0 min 0,000 mm 0,0 UV-I 0 W/m 4,9 C -2,8 C 30,6 km/h (5 Bft) 95,12 %
30.04.2019 04:30 5,8 C 12,2 C 5,6 C 93 % 1014,7 hPa 0,0 l/m 20,9 km/h (4 Bft) W-SW 244 0 min 0,000 mm 0,0 UV-I 0 W/m 4,8 C -2,5 C 38,6 km/h (5 Bft) 97,87 %
30.04.2019 04:32 5,8 C 12,2 C 5,6 C 93 % 1014,6 hPa 0,0 l/m 19,6 km/h (3 Bft) SW 234 0 min 0,000 mm 0,0 UV-I 0 W/m 4,8 C -2,0 C 27,4 km/h (4 Bft) 97,87 %
30.04.2019 04:34 5,8 C 12,2 C 5,6 C 93 % 1014,7 hPa 0,2 l/m 21,7 km/h (4 Bft) W-SW 255 0 min 0,000 mm 0,0 UV-I 0 W/m 4,8 C -2,8 C 37,0 km/h (5 Bft) 96,00 %
30.04.2019 04:36 5,8 C 12,2 C 5,6 C 93 % 1014,6 hPa 0,0 l/m 18,9 km/h (3 Bft) W-SW 248 0 min 0,000 mm 0,0 UV-I 0 W/m 4,8 C -1,7 C 29,0 km/h (5 Bft) 98,00 %
30.04.2019 04:38 5,8 C 12,2 C 5,6 C 93 % 1014,5 hPa 0,2 l/m 24,8 km/h (4 Bft) SW 223 0 min 0,000 mm 0,0 UV-I 0 W/m 4,8 C -3,8 C 35,4 km/h (5 Bft) 97,56 %
30.04.2019 04:40 5,8 C 12,2 C 5,6 C 93 % 1014,4 hPa 0,0 l/m 27,3 km/h (4 Bft) W-SW 240 0 min 0,000 mm 0,0 UV-I 0 W/m 4,8 C -4,5 C 38,6 km/h (5 Bft) 95,12 %
30.04.2019 04:42 5,8 C 12,2 C 5,6 C 93 % 1014,4 hPa 0,2 l/m 25,3 km/h (4 Bft) W-SW 252 0 min 0,000 mm 0,0 UV-I 0 W/m 4,8 C -4,0 C 38,6 km/h (5 Bft) 98,11 %
30.04.2019 04:44 5,8 C 12,2 C 5,6 C 93 % 1014,4 hPa 0,2 l/m 22,8 km/h (4 Bft) S-SW 209 0 min 0,000 mm 0,0 UV-I 0 W/m 4,8 C -3,1 C 30,6 km/h (5 Bft) 97,44 %
30.04.2019 04:46 5,8 C 12,2 C 5,6 C 93 % 1014,6 hPa 0,0 l/m 22,8 km/h (4 Bft) SW 229 0 min 0,000 mm 0,0 UV-I 0 W/m 4,8 C -3,1 C 38,6 km/h (5 Bft) 98,18 %
30.04.2019 04:48 5,8 C 12,2 C 5,6 C 93 % 1014,5 hPa 0,2 l/m 21,8 km/h (4 Bft) SW 236 0 min 0,000 mm 0,0 UV-I 0 W/m 4,8 C -2,8 C 32,2 km/h (5 Bft) 97,62 %
30.04.2019 04:50 5,8 C 12,2 C 5,6 C 93 % 1014,5 hPa 0,0 l/m 22,3 km/h (4 Bft) SW 228 0 min 0,000 mm 0,0 UV-I 0 W/m 4,8 C -3,0 C 30,6 km/h (5 Bft) 98,11 %
30.04.2019 04:52 5,8 C 12,2 C 5,6 C 94 % 1014,5 hPa 0,2 l/m 25,9 km/h (4 Bft) W 272 0 min 0,000 mm 0,0 UV-I 0 W/m 4,9 C -4,1 C 37,0 km/h (5 Bft) 98,00 %
30.04.2019 04:54 5,8 C 12,2 C 5,6 C 94 % 1014,4 hPa 0,0 l/m 21,5 km/h (4 Bft) W-SW 242 0 min 0,000 mm 0,0 UV-I 0 W/m 4,9 C -2,7 C 32,2 km/h (5 Bft) 100,00 %
30.04.2019 04:56 5,8 C 12,2 C 5,6 C 94 % 1014,4 hPa 0,0 l/m 19,5 km/h (3 Bft) SW 228 0 min 0,000 mm 0,0 UV-I 0 W/m 4,9 C -1,9 C 29,0 km/h (5 Bft) 100,00 %
30.04.2019 04:58 5,8 C 12,2 C 5,6 C 94 % 1014,4 hPa 0,0 l/m 19,8 km/h (3 Bft) W-SW 252 0 min 0,000 mm 0,0 UV-I 0 W/m 4,9 C -2,1 C 32,2 km/h (5 Bft) 100,00 %
30.04.2019 05:00 5,8 C 12,2 C 5,6 C 94 % 1014,4 hPa 0,0 l/m 20,1 km/h (4 Bft) SW 229 0 min 0,000 mm 0,0 UV-I 0 W/m 4,9 C -2,2 C 25,7 km/h (4 Bft) 100,00 %
30.04.2019 05:02 5,8 C 12,2 C 5,6 C 94 % 1014,4 hPa 0,2 l/m 21,5 km/h (4 Bft) SW 215 0 min 0,025 mm 0,0 UV-I 0 W/m 4,9 C -2,7 C 30,6 km/h (5 Bft) 100,00 %
30.04.2019 05:04 5,8 C 12,2 C 5,6 C 94 % 1014,4 hPa 0,0 l/m 22,1 km/h (4 Bft) SW 234 0 min 0,000 mm 0,0 UV-I 0 W/m 4,9 C -2,9 C 32,2 km/h (5 Bft) 98,11 %
30.04.2019 05:06 5,8 C 12,2 C 5,6 C 94 % 1014,2 hPa 0,2 l/m 17,4 km/h (3 Bft) W-SW 243 0 min 0,000 mm 0,0 UV-I 0 W/m 4,9 C -1,1 C 27,4 km/h (4 Bft) 97,73 %
30.04.2019 05:08 5,8 C 12,2 C 5,6 C 94 % 1014,3 hPa 0,0 l/m 17,7 km/h (3 Bft) W-SW 241 0 min 0,000 mm 0,0 UV-I 0 W/m 4,9 C -1,2 C 32,2 km/h (5 Bft) 98,00 %
30.04.2019 05:10 5,8 C 12,2 C 5,6 C 94 % 1014,3 hPa 0,0 l/m 24,7 km/h (4 Bft) W-SW 246 0 min 0,000 mm 0,0 UV-I 0 W/m 4,9 C -3,8 C 32,2 km/h (5 Bft) 92,11 %
30.04.2019 05:12 5,8 C 12,2 C 5,6 C 94 % 1014,2 hPa 0,0 l/m 20,7 km/h (4 Bft) W-SW 253 0 min 0,000 mm 0,0 UV-I 0 W/m 4,9 C -2,4 C 35,4 km/h (5 Bft) 96,36 %
30.04.2019 05:14 5,8 C 12,2 C 5,6 C 94 % 1014,3 hPa 0,2 l/m 22,2 km/h (4 Bft) W-SW 247 0 min 0,000 mm 0,0 UV-I 0 W/m 4,9 C -2,9 C 32,2 km/h (5 Bft) 96,23 %
30.04.2019 05:16 5,8 C 12,2 C 5,6 C 94 % 1014,2 hPa 0,0 l/m 21,0 km/h (4 Bft) SW 234 0 min 0,000 mm 0,0 UV-I 0 W/m 4,9 C -2,5 C 37,0 km/h (5 Bft) 95,12 %
30.04.2019 05:18 5,8 C 12,2 C 5,6 C 94 % 1014,2 hPa 0,0 l/m 19,4 km/h (3 Bft) SW 232 0 min 0,000 mm 0,0 UV-I 0 W/m 4,9 C -1,9 C 29,0 km/h (5 Bft) 96,00 %
30.04.2019 05:20 5,8 C 12,2 C 5,6 C 94 % 1014,2 hPa 0,2 l/m 17,5 km/h (3 Bft) W-SW 247 0 min 0,000 mm 0,0 UV-I 0 W/m 4,9 C -1,1 C 27,4 km/h (4 Bft) 94,74 %
30.04.2019 05:22 5,8 C 12,2 C 5,6 C 94 % 1014,2 hPa 0,0 l/m 19,4 km/h (3 Bft) SW 234 0 min 0,000 mm 0,0 UV-I 0 W/m 4,9 C -1,9 C 29,0 km/h (5 Bft) 94,34 %
30.04.2019 05:24 5,8 C 12,2 C 5,6 C 94 % 1014,2 hPa 0,0 l/m 20,2 km/h (4 Bft) W-SW 250 0 min 0,000 mm 0,0 UV-I 0 W/m 4,9 C -2,2 C 32,2 km/h (5 Bft) 93,62 %
30.04.2019 05:26 5,8 C 12,2 C 5,6 C 94 % 1014,2 hPa 0,0 l/m 19,8 km/h (3 Bft) W 280 0 min 0,000 mm 0,0 UV-I 0 W/m 4,9 C -2,1 C 29,0 km/h (5 Bft) 95,74 %
30.04.2019 05:28 5,8 C 12,2 C 5,6 C 94 % 1014,2 hPa 0,0 l/m 19,6 km/h (3 Bft) W-SW 237 0 min 0,000 mm 0,0 UV-I 0 W/m 4,9 C -2,0 C 32,2 km/h (5 Bft) 95,24 %
30.04.2019 05:30 5,8 C 12,2 C 5,6 C 94 % 1014,2 hPa 0,0 l/m 18,9 km/h (3 Bft) SW 234 0 min 0,000 mm 0,0 UV-I 0 W/m 4,9 C -1,7 C 29,0 km/h (5 Bft) 96,00 %
30.04.2019 05:32 5,8 C 12,2 C 5,6 C 94 % 1014,2 hPa 0,0 l/m 21,0 km/h (4 Bft) W 268 0 min 0,000 mm 0,0 UV-I 0 W/m 4,9 C -2,5 C 29,0 km/h (5 Bft) 92,68 %
30.04.2019 05:34 5,8 C 12,2 C 5,6 C 94 % 1014,3 hPa 0,2 l/m 19,7 km/h (3 Bft) SW 233 0 min 0,000 mm 0,0 UV-I 0 W/m 4,9 C -2,0 C 32,2 km/h (5 Bft) 94,34 %
30.04.2019 05:36 5,8 C 12,2 C 5,6 C 94 % 1014,3 hPa 0,0 l/m 26,7 km/h (4 Bft) SW 232 0 min 0,000 mm 0,0 UV-I 0 W/m 4,9 C -4,4 C 35,4 km/h (5 Bft) 95,74 %
30.04.2019 05:38 5,8 C 12,2 C 5,6 C 94 % 1014,4 hPa 0,0 l/m 18,9 km/h (3 Bft) W-SW 245 0 min 0,000 mm 0,0 UV-I 0 W/m 4,9 C -1,7 C 29,0 km/h (5 Bft) 95,74 %
30.04.2019 05:40 5,8 C 12,2 C 5,6 C 94 % 1014,3 hPa 0,0 l/m 16,2 km/h (3 Bft) SW 234 0 min 0,000 mm 0,0 UV-I 0 W/m 4,9 C -0,5 C 22,5 km/h (4 Bft) 94,34 %
30.04.2019 05:42 5,8 C 12,2 C 5,6 C 94 % 1014,3 hPa 0,2 l/m 18,1 km/h (3 Bft) SW 223 0 min 0,000 mm 0,0 UV-I 0 W/m 4,9 C -1,4 C 32,2 km/h (5 Bft) 93,62 %
30.04.2019 05:44 5,8 C 12,2 C 5,6 C 94 % 1014,3 hPa 0,0 l/m 18,7 km/h (3 Bft) S-SW 196 0 min 0,000 mm 0,0 UV-I 0 W/m 4,9 C -1,6 C 29,0 km/h (5 Bft) 94,29 %
30.04.2019 05:46 5,8 C 12,2 C 5,6 C 94 % 1014,2 hPa 0,0 l/m 20,0 km/h (4 Bft) W-SW 237 0 min 0,000 mm 0,0 UV-I 0 W/m 4,9 C -2,1 C 27,4 km/h (4 Bft) 97,14 %
30.04.2019 05:48 5,8 C 12,2 C 5,6 C 94 % 1014,3 hPa 0,0 l/m 24,6 km/h (4 Bft) S-SW 198 0 min 0,000 mm 0,0 UV-I 0 W/m 4,9 C -3,7 C 33,8 km/h (5 Bft) 97,06 %
30.04.2019 05:50 5,8 C 12,2 C 5,6 C 94 % 1014,3 hPa 0,0 l/m 20,9 km/h (4 Bft) SW 236 0 min 0,000 mm 0,0 UV-I 0 W/m 4,9 C -2,5 C 30,6 km/h (5 Bft) 95,45 %
30.04.2019 05:52 5,8 C 12,2 C 5,6 C 94 % 1014,3 hPa 0,0 l/m 24,1 km/h (4 Bft) W-SW 238 0 min 0,000 mm 0,0 UV-I 0 W/m 4,9 C -3,6 C 32,2 km/h (5 Bft) 97,56 %
30.04.2019 05:54 5,8 C 12,2 C 5,6 C 94 % 1014,4 hPa 0,2 l/m 18,7 km/h (3 Bft) SW 234 0 min 0,000 mm 0,0 UV-I 0 W/m 4,9 C -1,6 C 29,0 km/h (5 Bft) 94,00 %
30.04.2019 05:56 5,8 C 12,2 C 5,6 C 94 % 1014,3 hPa 0,0 l/m 19,5 km/h (3 Bft) SW 223 0 min 0,000 mm 0,0 UV-I 0 W/m 4,9 C -1,9 C 29,0 km/h (5 Bft) 95,74 %
30.04.2019 05:58 5,8 C 12,2 C 5,6 C 94 % 1014,3 hPa 0,0 l/m 19,6 km/h (3 Bft) SW 227 0 min 0,000 mm 0,0 UV-I 4 W/m 4,9 C -2,0 C 32,2 km/h (5 Bft) 96,00 %
30.04.2019 06:00 5,8 C 12,2 C 5,6 C 94 % 1014,3 hPa 0,2 l/m 20,6 km/h (4 Bft) SW 215 0 min 0,000 mm 0,0 UV-I 5 W/m 4,9 C -2,4 C 27,4 km/h (4 Bft) 90,48 %
30.04.2019 06:02 5,8 C 12,2 C 5,6 C 94 % 1014,3 hPa 0,0 l/m 22,5 km/h (4 Bft) W-SW 243 0 min 0,000 mm 0,0 UV-I 5 W/m 4,9 C -3,0 C 33,8 km/h (5 Bft) 92,31 %
30.04.2019 06:04 5,8 C 12,2 C 5,6 C 94 % 1014,3 hPa 0,0 l/m 21,8 km/h (4 Bft) W-SW 239 0 min 0,000 mm 0,0 UV-I 5 W/m 4,9 C -2,8 C 33,8 km/h (5 Bft) 97,44 %
30.04.2019 06:06 5,9 C 12,2 C 5,6 C 94 % 1014,3 hPa 0,0 l/m 24,5 km/h (4 Bft) S-SW 198 0 min 0,000 mm 0,0 UV-I 5 W/m 5,0 C -3,6 C 30,6 km/h (5 Bft) 93,18 %
30.04.2019 06:08 5,8 C 12,2 C 5,6 C 94 % 1014,3 hPa 0,0 l/m 19,1 km/h (3 Bft) W-SW 243 0 min 0,000 mm 0,0 UV-I 5 W/m 4,9 C -1,8 C 25,7 km/h (4 Bft) 94,64 %
30.04.2019 06:10 5,8 C 12,2 C 5,6 C 94 % 1014,3 hPa 0,2 l/m 19,0 km/h (3 Bft) W 260 0 min 0,000 mm 0,0 UV-I 5 W/m 4,9 C -1,7 C 29,0 km/h (5 Bft) 95,74 %
30.04.2019 06:12 5,8 C 12,2 C 5,6 C 94 % 1014,3 hPa 0,0 l/m 26,0 km/h (4 Bft) W 259 0 min 0,000 mm 0,0 UV-I 5 W/m 4,9 C -4,2 C 33,8 km/h (5 Bft) 96,00 %
30.04.2019 06:14 5,9 C 12,2 C 5,6 C 94 % 1014,3 hPa 0,0 l/m 22,8 km/h (4 Bft) W-SW 250 0 min 0,000 mm 0,0 UV-I 5 W/m 5,0 C -3,0 C 30,6 km/h (5 Bft) 97,37 %
30.04.2019 06:16 5,9 C 12,2 C 5,6 C 94 % 1014,3 hPa 0,2 l/m 20,5 km/h (4 Bft) SW 225 0 min 0,000 mm 0,0 UV-I 6 W/m 5,0 C -2,2 C 25,7 km/h (4 Bft) 97,73 %
30.04.2019 06:18 5,9 C 12,2 C 5,6 C 94 % 1014,3 hPa 0,0 l/m 18,8 km/h (3 Bft) W 273 0 min 0,000 mm 0,0 UV-I 7 W/m 5,0 C -1,5 C 30,6 km/h (5 Bft) 94,34 %
30.04.2019 06:20 5,9 C 12,2 C 5,6 C 94 % 1014,3 hPa 0,0 l/m 21,5 km/h (4 Bft) W-SW 246 0 min 0,000 mm 0,0 UV-I 7 W/m 5,0 C -2,6 C 32,2 km/h (5 Bft) 98,00 %
30.04.2019 06:22 5,8 C 12,2 C 5,6 C 94 % 1014,3 hPa 0,0 l/m 20,2 km/h (4 Bft) W-SW 247 0 min 0,000 mm 0,0 UV-I 7 W/m 4,9 C -2,2 C 29,0 km/h (5 Bft) 95,12 %
30.04.2019 06:24 5,8 C 12,2 C 5,6 C 94 % 1014,3 hPa 0,0 l/m 16,0 km/h (3 Bft) W-SW 252 0 min 0,000 mm 0,0 UV-I 7 W/m 4,9 C -0,4 C 24,1 km/h (4 Bft) 97,87 %
30.04.2019 06:26 5,8 C 12,2 C 5,6 C 94 % 1014,2 hPa 0,2 l/m 18,4 km/h (3 Bft) W-SW 257 0 min 0,000 mm 0,0 UV-I 7 W/m 4,9 C -1,5 C 27,4 km/h (4 Bft) 96,23 %
30.04.2019 06:28 5,8 C 12,2 C 5,6 C 94 % 1014,2 hPa 0,0 l/m 22,7 km/h (4 Bft) W-SW 252 0 min 0,000 mm 0,0 UV-I 7 W/m 4,9 C -3,1 C 32,2 km/h (5 Bft) 95,12 %
30.04.2019 06:30 5,8 C 12,2 C 5,6 C 94 % 1014,2 hPa 0,0 l/m 18,2 km/h (3 Bft) SW 215 0 min 0,000 mm 0,0 UV-I 7 W/m 4,9 C -1,4 C 30,6 km/h (5 Bft) 100,00 %
30.04.2019 06:32 5,8 C 12,2 C 5,6 C 94 % 1014,2 hPa 0,2 l/m 17,4 km/h (3 Bft) W-SW 245 0 min 0,000 mm 0,0 UV-I 7 W/m 4,9 C -1,1 C 24,1 km/h (4 Bft) 98,11 %
30.04.2019 06:34 5,8 C 12,2 C 5,6 C 94 % 1014,2 hPa 0,0 l/m 25,9 km/h (4 Bft) W-SW 250 0 min 0,000 mm 0,0 UV-I 7 W/m 4,9 C -4,1 C 41,8 km/h (6 Bft) 100,00 %
30.04.2019 06:36 5,8 C 12,2 C 5,6 C 94 % 1014,1 hPa 0,0 l/m 20,6 km/h (4 Bft) SW 235 0 min 0,000 mm 0,0 UV-I 7 W/m 4,9 C -2,4 C 32,2 km/h (5 Bft) 97,87 %
30.04.2019 06:38 5,8 C 12,2 C 5,6 C 94 % 1014,1 hPa 0,0 l/m 18,3 km/h (3 Bft) SW 234 0 min 0,000 mm 0,0 UV-I 8 W/m 4,9 C -1,5 C 29,0 km/h (5 Bft) 100,00 %
30.04.2019 06:40 5,8 C 12,2 C 5,6 C 94 % 1014,1 hPa 0,0 l/m 21,7 km/h (4 Bft) W 272 0 min 0,000 mm 0,0 UV-I 9 W/m 4,9 C -2,8 C 35,4 km/h (5 Bft) 97,87 %
30.04.2019 06:42 5,8 C 12,2 C 5,6 C 94 % 1014,3 hPa 0,0 l/m 21,9 km/h (4 Bft) W-SW 237 0 min 0,000 mm 0,0 UV-I 9 W/m 4,9 C -2,8 C 29,0 km/h (5 Bft) 100,00 %
30.04.2019 06:44 5,8 C 12,2 C 5,6 C 94 % 1014,2 hPa 0,0 l/m 17,9 km/h (3 Bft) SW 223 0 min 0,000 mm 0,0 UV-I 9 W/m 4,9 C -1,3 C 27,4 km/h (4 Bft) 100,00 %
30.04.2019 06:46 5,8 C 12,2 C 5,6 C 94 % 1014,2 hPa 0,0 l/m 20,7 km/h (4 Bft) W-SW 251 0 min 0,000 mm 0,0 UV-I 9 W/m 4,9 C -2,4 C 30,6 km/h (5 Bft) 100,00 %
30.04.2019 06:48 5,8 C 12,2 C 5,6 C 94 % 1014,1 hPa 0,0 l/m 22,5 km/h (4 Bft) SW 232 0 min 0,000 mm 0,0 UV-I 9 W/m 4,9 C -3,0 C 38,6 km/h (5 Bft) 100,00 %
30.04.2019 06:50 5,8 C 12,2 C 5,6 C 94 % 1014,1 hPa 0,2 l/m 23,1 km/h (4 Bft) SW 234 0 min 0,000 mm 0,0 UV-I 9 W/m 4,9 C -3,2 C 37,0 km/h (5 Bft) 100,00 %
30.04.2019 06:52 5,8 C 12,2 C 5,6 C 94 % 1014,1 hPa 0,0 l/m 21,1 km/h (4 Bft) SW 226 0 min 0,000 mm 0,0 UV-I 9 W/m 4,9 C -2,6 C 35,4 km/h (5 Bft) 100,00 %
30.04.2019 06:54 5,8 C 12,2 C 5,6 C 94 % 1014,1 hPa 0,0 l/m 20,8 km/h (4 Bft) SW 229 0 min 0,000 mm 0,0 UV-I 10 W/m 4,9 C -2,4 C 33,8 km/h (5 Bft) 100,00 %
30.04.2019 06:56 5,8 C 12,2 C 5,6 C 94 % 1014,0 hPa 0,0 l/m 16,4 km/h (3 Bft) SW 221 0 min 0,000 mm 0,0 UV-I 11 W/m 4,9 C -0,6 C 24,1 km/h (4 Bft) 97,87 %
30.04.2019 06:58 5,9 C 12,2 C 5,6 C 94 % 1014,0 hPa 0,0 l/m 19,5 km/h (3 Bft) W-SW 258 0 min 0,000 mm 0,0 UV-I 12 W/m 5,0 C -1,8 C 29,0 km/h (5 Bft) 100,00 %
30.04.2019 07:00 5,9 C 11,7 C 5,6 C 94 % 1014,0 hPa 0,0 l/m 25,1 km/h (4 Bft) W-SW 247 0 min 0,026 mm 0,0 UV-I 12 W/m 5,0 C -3,8 C 35,4 km/h (5 Bft) 100,00 %
30.04.2019 07:02 5,9 C 12,2 C 5,6 C 94 % 1014,0 hPa 0,0 l/m 20,5 km/h (4 Bft) SW 227 0 min 0,000 mm 0,0 UV-I 11 W/m 5,0 C -2,2 C 37,0 km/h (5 Bft) 100,00 %
30.04.2019 07:04 5,9 C 12,2 C 5,6 C 94 % 1014,0 hPa 0,0 l/m 21,2 km/h (4 Bft) W-SW 257 0 min 0,000 mm 0,0 UV-I 11 W/m 5,0 C -2,5 C 35,4 km/h (5 Bft) 100,00 %
30.04.2019 07:06 5,9 C 12,2 C 5,6 C 94 % 1014,1 hPa 0,0 l/m 21,9 km/h (4 Bft) SW 233 0 min 0,000 mm 0,0 UV-I 11 W/m 5,0 C -2,7 C 40,2 km/h (6 Bft) 100,00 %
30.04.2019 07:08 5,9 C 12,2 C 5,6 C 94 % 1014,1 hPa 0,0 l/m 21,7 km/h (4 Bft) W-SW 253 0 min 0,000 mm 0,0 UV-I 11 W/m 5,0 C -2,6 C 32,2 km/h (5 Bft) 100,00 %
30.04.2019 07:10 5,9 C 12,2 C 5,6 C 94 % 1014,2 hPa 0,0 l/m 17,4 km/h (3 Bft) W-SW 242 0 min 0,000 mm 0,0 UV-I 11 W/m 5,0 C -0,9 C 29,0 km/h (5 Bft) 100,00 %
30.04.2019 07:12 5,9 C 11,7 C 5,6 C 94 % 1014,2 hPa 0,0 l/m 22,1 km/h (4 Bft) W-SW 248 0 min 0,000 mm 0,0 UV-I 11 W/m 5,0 C -2,8 C 35,4 km/h (5 Bft) 98,00 %
30.04.2019 07:14 5,9 C 11,7 C 5,6 C 94 % 1014,1 hPa 0,0 l/m 23,5 km/h (4 Bft) W-SW 251 0 min 0,000 mm 0,0 UV-I 11 W/m 5,0 C -3,2 C 43,5 km/h (6 Bft) 95,74 %
30.04.2019 07:16 5,9 C 11,7 C 5,6 C 94 % 1014,2 hPa 0,0 l/m 18,4 km/h (3 Bft) W 275 0 min 0,000 mm 0,0 UV-I 12 W/m 5,0 C -1,4 C 29,0 km/h (5 Bft) 97,83 %
30.04.2019 07:18 5,8 C 11,7 C 5,6 C 94 % 1013,8 hPa 0,0 l/m 25,3 km/h (4 Bft) W-SW 257 0 min 0,000 mm 0,0 UV-I 15 W/m 4,9 C -4,0 C 38,6 km/h (5 Bft) 94,87 %
30.04.2019 07:20 5,8 C 11,7 C 5,6 C 94 % 1013,8 hPa 0,0 l/m 25,1 km/h (4 Bft) SW 232 0 min 0,000 mm 0,0 UV-I 18 W/m 4,9 C -3,9 C 37,0 km/h (5 Bft) 94,64 %
30.04.2019 07:22 5,8 C 11,7 C 5,6 C 94 % 1013,8 hPa 0,0 l/m 22,4 km/h (4 Bft) SW 233 0 min 0,000 mm 0,0 UV-I 19 W/m 4,9 C -3,0 C 35,4 km/h (5 Bft) 97,37 %
30.04.2019 07:24 5,8 C 11,7 C 5,6 C 94 % 1013,8 hPa 0,0 l/m 23,3 km/h (4 Bft) W-NW 298 0 min 0,000 mm 0,0 UV-I 17 W/m 4,9 C -3,3 C 32,2 km/h (5 Bft) 93,22 %
30.04.2019 07:26 5,8 C 11,7 C 5,6 C 94 % 1013,8 hPa 0,0 l/m 21,5 km/h (4 Bft) W-SW 248 0 min 0,000 mm 0,0 UV-I 16 W/m 4,9 C -2,7 C 40,2 km/h (6 Bft) 95,74 %
30.04.2019 07:28 5,8 C 11,7 C 5,6 C 94 % 1013,8 hPa 0,0 l/m 23,6 km/h (4 Bft) W-SW 245 0 min 0,000 mm 0,0 UV-I 16 W/m 4,9 C -3,4 C 38,6 km/h (5 Bft) 94,74 %
30.04.2019 07:30 5,8 C 11,7 C 5,6 C 94 % 1013,8 hPa 0,0 l/m 20,1 km/h (4 Bft) W-SW 237 0 min 0,000 mm 0,0 UV-I 15 W/m 4,9 C -2,2 C 27,4 km/h (4 Bft) 93,62 %
30.04.2019 07:32 5,8 C 11,7 C 5,6 C 94 % 1013,7 hPa 0,0 l/m 19,9 km/h (4 Bft) W-SW 237 0 min 0,000 mm 0,0 UV-I 18 W/m 4,9 C -2,1 C 33,8 km/h (5 Bft) 94,00 %
30.04.2019 07:34 5,8 C 11,7 C 5,6 C 94 % 1013,7 hPa 0,2 l/m 24,6 km/h (4 Bft) SW 223 0 min 0,000 mm 0,0 UV-I 19 W/m 4,9 C -3,7 C 32,2 km/h (5 Bft) 96,23 %
30.04.2019 07:36 5,8 C 11,7 C 5,6 C 94 % 1013,7 hPa 0,0 l/m 20,0 km/h (4 Bft) W-SW 243 0 min 0,000 mm 0,0 UV-I 19 W/m 4,9 C -2,1 C 29,0 km/h (5 Bft) 97,73 %
30.04.2019 07:38 5,8 C 11,7 C 5,6 C 94 % 1013,8 hPa 0,0 l/m 19,1 km/h (3 Bft) SW 233 0 min 0,000 mm 0,0 UV-I 19 W/m 4,9 C -1,8 C 29,0 km/h (5 Bft) 93,18 %
30.04.2019 07:40 5,8 C 11,7 C 5,6 C 94 % 1013,8 hPa 0,0 l/m 22,3 km/h (4 Bft) W-SW 244 0 min 0,000 mm 0,0 UV-I 19 W/m 4,9 C -3,0 C 30,6 km/h (5 Bft) 98,00 %
30.04.2019 07:42 5,8 C 11,7 C 5,6 C 94 % 1013,7 hPa 0,0 l/m 19,0 km/h (3 Bft) W 259 0 min 0,000 mm 0,0 UV-I 19 W/m 4,9 C -1,7 C 30,6 km/h (5 Bft) 97,37 %
30.04.2019 07:44 5,8 C 11,7 C 5,6 C 94 % 1013,7 hPa 0,0 l/m 23,3 km/h (4 Bft) SW 217 0 min 0,000 mm 0,0 UV-I 16 W/m 4,9 C -3,3 C 37,0 km/h (5 Bft) 97,87 %
30.04.2019 07:46 5,8 C 11,7 C 5,6 C 94 % 1013,9 hPa 0,0 l/m 23,7 km/h (4 Bft) W-SW 246 0 min 0,000 mm 0,0 UV-I 17 W/m 4,9 C -3,4 C 32,2 km/h (5 Bft) 97,73 %
30.04.2019 07:48 5,9 C 11,7 C 5,6 C 94 % 1014,0 hPa 0,0 l/m 21,1 km/h (4 Bft) SW 229 0 min 0,000 mm 0,0 UV-I 16 W/m 5,0 C -2,4 C 35,4 km/h (5 Bft) 98,00 %
30.04.2019 07:50 5,8 C 11,7 C 6,1 C 94 % 1014,2 hPa 0,0 l/m 12,0 km/h (2 Bft) SW 216 0 min 0,000 mm 0,0 UV-I 14 W/m 4,9 C 1,7 C 16,1 km/h (3 Bft) 96,43 %
30.04.2019 07:52 5,8 C 11,7 C 6,1 C 94 % 1014,2 hPa 0,0 l/m 13,4 km/h (3 Bft) W 263 0 min 0,000 mm 0,0 UV-I 13 W/m 4,9 C 0,9 C 19,3 km/h (3 Bft) 100,00 %
30.04.2019 07:54 5,8 C 11,7 C 6,1 C 94 % 1014,2 hPa 0,0 l/m 14,9 km/h (3 Bft) SW 234 0 min 0,000 mm 0,0 UV-I 14 W/m 4,9 C 0,1 C 19,3 km/h (3 Bft) 100,00 %
30.04.2019 07:56 5,9 C 11,7 C 6,1 C 94 % 1014,2 hPa 0,0 l/m 14,8 km/h (3 Bft) W-NW 289 0 min 0,000 mm 0,0 UV-I 16 W/m 5,0 C 0,3 C 20,9 km/h (4 Bft) 98,00 %
30.04.2019 07:59 5,9 C 11,7 C 6,1 C 94 % 1014,2 hPa 0,0 l/m 19,3 km/h (3 Bft) W-NW 285 0 min 0,000 mm 0,0 UV-I 18 W/m 5,0 C -1,7 C 30,6 km/h (5 Bft) 98,65 %
30.04.2019 08:00 5,9 C 11,7 C 6,1 C 94 % 1014,2 hPa 0,2 l/m 13,3 km/h (3 Bft) SW 221 0 min 0,025 mm 0,0 UV-I 16 W/m 5,0 C 1,1 C 19,3 km/h (3 Bft) 100,00 %
30.04.2019 08:02 5,8 C 11,7 C 5,6 C 94 % 1014,3 hPa 0,0 l/m 13,2 km/h (3 Bft) SW 225 0 min 0,000 mm 0,0 UV-I 16 W/m 4,9 C 1,0 C 22,5 km/h (4 Bft) 100,00 %
30.04.2019 08:04 5,8 C 11,7 C 5,6 C 94 % 1014,2 hPa 0,2 l/m 15,4 km/h (3 Bft) W-NW 282 0 min 0,000 mm 0,0 UV-I 15 W/m 4,9 C -0,2 C 24,1 km/h (4 Bft) 100,00 %
30.04.2019 08:06 5,8 C 11,7 C 6,1 C 94 % 1014,2 hPa 0,0 l/m 13,1 km/h (3 Bft) W-SW 249 0 min 0,000 mm 0,0 UV-I 16 W/m 4,9 C 1,0 C 19,3 km/h (3 Bft) 100,00 %
30.04.2019 08:08 5,8 C 11,7 C 5,6 C 94 % 1014,2 hPa 0,2 l/m 19,2 km/h (3 Bft) W-SW 252 0 min 0,000 mm 0,0 UV-I 18 W/m 4,9 C -1,8 C 30,6 km/h (5 Bft) 100,00 %
30.04.2019 08:10 5,8 C 11,7 C 5,6 C 94 % 1014,2 hPa 0,0 l/m 15,2 km/h (3 Bft) W 259 0 min 0,000 mm 0,0 UV-I 19 W/m 4,9 C -0,1 C 27,4 km/h (4 Bft) 100,00 %
30.04.2019 08:12 5,8 C 11,7 C 5,6 C 94 % 1014,2 hPa 0,2 l/m 20,4 km/h (4 Bft) W-SW 240 0 min 0,000 mm 0,0 UV-I 20 W/m 4,9 C -2,3 C 29,0 km/h (5 Bft) 100,00 %
30.04.2019 08:15 5,8 C 11,7 C 6,1 C 95 % 1014,2 hPa 0,0 l/m 15,4 km/h (3 Bft) W-SW 249 0 min 0,000 mm 0,0 UV-I 20 W/m 5,1 C -0,2 C 25,7 km/h (4 Bft) 98,73 %
30.04.2019 08:16 5,8 C 11,7 C 5,6 C 94 % 1014,2 hPa 0,0 l/m 15,2 km/h (3 Bft) W-SW 258 0 min 0,000 mm 0,0 UV-I 21 W/m 4,9 C -0,1 C 22,5 km/h (4 Bft) 100,00 %
30.04.2019 08:18 5,9 C 11,7 C 6,1 C 95 % 1014,2 hPa 0,0 l/m 17,7 km/h (3 Bft) W 266 0 min 0,000 mm 0,0 UV-I 22 W/m 5,2 C -1,1 C 27,4 km/h (4 Bft) 100,00 %
30.04.2019 08:20 5,8 C 11,7 C 6,1 C 95 % 1014,2 hPa 0,2 l/m 18,4 km/h (3 Bft) SW 231 0 min 0,000 mm 0,0 UV-I 25 W/m 5,1 C -1,5 C 30,6 km/h (5 Bft) 97,37 %
30.04.2019 08:22 5,9 C 11,7 C 6,1 C 95 % 1014,3 hPa 0,0 l/m 16,9 km/h (3 Bft) SW 227 0 min 0,000 mm 0,0 UV-I 26 W/m 5,2 C -0,7 C 35,4 km/h (5 Bft) 98,11 %
30.04.2019 08:24 5,9 C 11,7 C 6,1 C 94 % 1014,2 hPa 0,2 l/m 21,0 km/h (4 Bft) SW 221 0 min 0,000 mm 0,0 UV-I 26 W/m 5,0 C -2,4 C 35,4 km/h (5 Bft) 100,00 %
30.04.2019 08:26 5,9 C 11,7 C 6,1 C 94 % 1014,2 hPa 0,0 l/m 21,9 km/h (4 Bft) SW 234 0 min 0,000 mm 0,0 UV-I 25 W/m 5,0 C -2,7 C 29,0 km/h (5 Bft) 97,87 %
30.04.2019 08:28 5,9 C 11,7 C 6,1 C 94 % 1014,2 hPa 0,0 l/m 19,8 km/h (3 Bft) W 264 0 min 0,000 mm 0,0 UV-I 25 W/m 5,0 C -1,9 C 29,0 km/h (5 Bft) 100,00 %
30.04.2019 08:30 5,9 C 11,7 C 6,1 C 94 % 1014,3 hPa 0,2 l/m 21,0 km/h (4 Bft) SW 236 0 min 0,000 mm 0,0 UV-I 25 W/m 5,0 C -2,4 C 27,4 km/h (4 Bft) 97,56 %
30.04.2019 08:32 5,9 C 11,7 C 6,1 C 94 % 1014,3 hPa 0,0 l/m 19,6 km/h (3 Bft) SW 234 0 min 0,000 mm 0,0 UV-I 26 W/m 5,0 C -1,9 C 29,0 km/h (5 Bft) 96,23 %
30.04.2019 08:34 5,9 C 11,7 C 6,1 C 94 % 1014,3 hPa 0,2 l/m 14,9 km/h (3 Bft) W-SW 251 0 min 0,000 mm 0,0 UV-I 27 W/m 5,0 C 0,2 C 22,5 km/h (4 Bft) 100,00 %
30.04.2019 08:36 5,9 C 11,7 C 6,1 C 94 % 1014,2 hPa 0,0 l/m 15,8 km/h (3 Bft) W-SW 255 0 min 0,000 mm 0,0 UV-I 31 W/m 5,0 C -0,2 C 25,7 km/h (4 Bft) 97,62 %
30.04.2019 08:38 5,9 C 11,7 C 6,1 C 95 % 1014,3 hPa 0,2 l/m 18,7 km/h (3 Bft) SW 236 0 min 0,000 mm 0,0 UV-I 30 W/m 5,2 C -1,5 C 25,7 km/h (4 Bft) 97,87 %
30.04.2019 08:40 5,9 C 11,7 C 6,1 C 94 % 1014,3 hPa 0,0 l/m 18,0 km/h (3 Bft) W-SW 252 0 min 0,000 mm 0,0 UV-I 34 W/m 5,0 C -1,2 C 25,7 km/h (4 Bft) 96,00 %
30.04.2019 08:42 5,9 C 11,7 C 6,1 C 95 % 1014,3 hPa 0,2 l/m 16,9 km/h (3 Bft) W-SW 247 0 min 0,000 mm 0,0 UV-I 35 W/m 5,2 C -0,7 C 30,6 km/h (5 Bft) 97,87 %
30.04.2019 08:44 5,9 C 11,7 C 6,1 C 95 % 1014,3 hPa 0,0 l/m 16,5 km/h (3 Bft) SW 215 0 min 0,000 mm 0,0 UV-I 37 W/m 5,2 C -0,5 C 25,7 km/h (4 Bft) 97,87 %
30.04.2019 08:46 5,9 C 11,7 C 6,1 C 95 % 1014,3 hPa 0,0 l/m 16,6 km/h (3 Bft) W-SW 246 0 min 0,000 mm 0,0 UV-I 37 W/m 5,2 C -0,6 C 25,7 km/h (4 Bft) 97,87 %
30.04.2019 08:48 5,9 C 11,7 C 6,1 C 95 % 1014,3 hPa 0,2 l/m 14,8 km/h (3 Bft) W 263 0 min 0,000 mm 0,0 UV-I 41 W/m 5,2 C 0,3 C 20,9 km/h (4 Bft) 96,23 %
30.04.2019 08:50 5,9 C 11,7 C 6,1 C 95 % 1014,3 hPa 0,2 l/m 16,2 km/h (3 Bft) SW 235 0 min 0,000 mm 0,0 UV-I 43 W/m 5,2 C -0,4 C 25,7 km/h (4 Bft) 97,87 %
30.04.2019 08:52 5,9 C 11,7 C 6,1 C 95 % 1014,3 hPa 0,0 l/m 20,3 km/h (4 Bft) W 265 0 min 0,000 mm 0,0 UV-I 45 W/m 5,2 C -2,1 C 29,0 km/h (5 Bft) 97,87 %
30.04.2019 08:54 5,9 C 11,7 C 6,1 C 95 % 1014,3 hPa 0,2 l/m 16,5 km/h (3 Bft) W-SW 255 0 min 0,000 mm 0,0 UV-I 42 W/m 5,2 C -0,5 C 22,5 km/h (4 Bft) 100,00 %
30.04.2019 08:56 5,9 C 11,7 C 6,1 C 95 % 1014,3 hPa 0,0 l/m 18,0 km/h (3 Bft) S-SW 209 0 min 0,000 mm 0,0 UV-I 40 W/m 5,2 C -1,2 C 25,7 km/h (4 Bft) 100,00 %
30.04.2019 08:58 5,9 C 11,7 C 6,1 C 95 % 1014,3 hPa 0,2 l/m 17,5 km/h (3 Bft) SW 236 0 min 0,000 mm 0,0 UV-I 41 W/m 5,2 C -1,0 C 27,4 km/h (4 Bft) 98,00 %
30.04.2019 09:00 5,9 C 11,7 C 6,1 C 95 % 1014,3 hPa 0,0 l/m 21,6 km/h (4 Bft) SW 232 0 min 0,026 mm 0,0 UV-I 39 W/m 5,2 C -2,6 C 30,6 km/h (5 Bft) 100,00 %
30.04.2019 09:02 5,9 C 11,7 C 6,1 C 95 % 1014,2 hPa 0,0 l/m 23,6 km/h (4 Bft) W-SW 245 0 min 0,000 mm 0,0 UV-I 45 W/m 5,2 C -3,3 C 33,8 km/h (5 Bft) 100,00 %
30.04.2019 09:04 5,9 C 11,7 C 6,1 C 95 % 1014,3 hPa 0,0 l/m 19,4 km/h (3 Bft) SW 234 0 min 0,000 mm 0,0 UV-I 48 W/m 5,2 C -1,8 C 29,0 km/h (5 Bft) 98,00 %
30.04.2019 09:06 5,9 C 11,7 C 6,1 C 95 % 1014,3 hPa 0,0 l/m 19,6 km/h (3 Bft) SW 223 0 min 0,000 mm 0,0 UV-I 45 W/m 5,2 C -1,9 C 30,6 km/h (5 Bft) 97,14 %
30.04.2019 09:08 5,9 C 11,7 C 6,1 C 95 % 1014,4 hPa 0,0 l/m 15,4 km/h (3 Bft) W 267 0 min 0,000 mm 0,0 UV-I 45 W/m 5,2 C -0,0 C 22,5 km/h (4 Bft) 100,00 %
30.04.2019 09:10 6,0 C 11,7 C 6,1 C 95 % 1014,3 hPa 0,2 l/m 16,6 km/h (3 Bft) W-SW 251 0 min 0,000 mm 0,0 UV-I 44 W/m 5,3 C -0,5 C 22,5 km/h (4 Bft) 98,00 %
30.04.2019 09:12 6,0 C 11,7 C 6,1 C 95 % 1014,4 hPa 0,0 l/m 16,5 km/h (3 Bft) W-SW 244 0 min 0,000 mm 0,0 UV-I 45 W/m 5,3 C -0,4 C 22,5 km/h (4 Bft) 97,56 %
30.04.2019 09:14 6,0 C 11,7 C 6,1 C 95 % 1014,4 hPa 0,0 l/m 12,1 km/h (2 Bft) W-SW 253 0 min 0,000 mm 0,0 UV-I 45 W/m 5,3 C 1,8 C 19,3 km/h (3 Bft) 100,00 %
30.04.2019 09:16 6,0 C 11,7 C 6,1 C 95 % 1014,3 hPa 0,2 l/m 12,8 km/h (3 Bft) SW 221 0 min 0,000 mm 0,0 UV-I 42 W/m 5,3 C 1,4 C 19,3 km/h (3 Bft) 100,00 %
30.04.2019 09:18 6,0 C 11,7 C 6,1 C 95 % 1014,3 hPa 0,0 l/m 18,5 km/h (3 Bft) W 261 0 min 0,000 mm 0,0 UV-I 42 W/m 5,3 C -1,3 C 29,0 km/h (5 Bft) 100,00 %
30.04.2019 09:20 6,0 C 11,7 C 6,1 C 95 % 1014,3 hPa 0,2 l/m 14,1 km/h (3 Bft) W-SW 257 0 min 0,000 mm 0,0 UV-I 41 W/m 5,3 C 0,7 C 22,5 km/h (4 Bft) 98,11 %
30.04.2019 09:22 6,0 C 11,7 C 6,1 C 95 % 1014,3 hPa 0,0 l/m 16,4 km/h (3 Bft) W-SW 238 0 min 0,000 mm 0,0 UV-I 41 W/m 5,3 C -0,4 C 24,1 km/h (4 Bft) 98,00 %
30.04.2019 09:24 6,1 C 11,7 C 6,1 C 95 % 1014,2 hPa 0,0 l/m 18,2 km/h (3 Bft) W-SW 244 0 min 0,000 mm 0,0 UV-I 40 W/m 5,4 C -1,0 C 27,4 km/h (4 Bft) 95,12 %
30.04.2019 09:26 6,1 C 11,7 C 6,1 C 95 % 1014,2 hPa 0,2 l/m 18,0 km/h (3 Bft) SW 234 0 min 0,000 mm 0,0 UV-I 43 W/m 5,4 C -1,0 C 29,0 km/h (5 Bft) 98,11 %
30.04.2019 09:28 6,1 C 11,7 C 6,1 C 95 % 1014,2 hPa 0,0 l/m 15,4 km/h (3 Bft) SW 234 0 min 0,000 mm 0,0 UV-I 42 W/m 5,4 C 0,2 C 25,7 km/h (4 Bft) 97,37 %
30.04.2019 09:30 6,1 C 11,7 C 6,7 C 95 % 1014,2 hPa 0,0 l/m 19,7 km/h (3 Bft) SW 230 0 min 0,000 mm 0,0 UV-I 45 W/m 5,4 C -1,6 C 24,1 km/h (4 Bft) 97,73 %
30.04.2019 09:32 6,1 C 11,7 C 6,7 C 95 % 1014,2 hPa 0,0 l/m 18,2 km/h (3 Bft) SW 226 0 min 0,000 mm 0,0 UV-I 46 W/m 5,4 C -1,0 C 27,4 km/h (4 Bft) 98,31 %
30.04.2019 09:34 6,1 C 11,7 C 6,7 C 95 % 1014,2 hPa 0,0 l/m 17,1 km/h (3 Bft) W 264 0 min 0,000 mm 0,0 UV-I 47 W/m 5,4 C -0,6 C 25,7 km/h (4 Bft) 92,68 %
30.04.2019 09:36 6,2 C 11,7 C 6,7 C 95 % 1014,3 hPa 0,2 l/m 13,0 km/h (3 Bft) SW 231 0 min 0,000 mm 0,0 UV-I 48 W/m 5,5 C 1,6 C 20,9 km/h (4 Bft) 95,45 %
30.04.2019 09:38 6,2 C 11,7 C 6,7 C 95 % 1014,2 hPa 0,2 l/m 19,5 km/h (3 Bft) W-SW 253 0 min 0,000 mm 0,0 UV-I 49 W/m 5,5 C -1,4 C 27,4 km/h (4 Bft) 92,86 %
30.04.2019 09:40 6,2 C 11,7 C 6,7 C 95 % 1014,3 hPa 0,0 l/m 20,4 km/h (4 Bft) SW 236 0 min 0,000 mm 0,0 UV-I 48 W/m 5,5 C -1,8 C 27,4 km/h (4 Bft) 94,29 %
30.04.2019 09:42 6,2 C 11,7 C 6,7 C 95 % 1014,4 hPa 0,2 l/m 16,5 km/h (3 Bft) SW 229 0 min 0,000 mm 0,0 UV-I 49 W/m 5,5 C -0,2 C 27,4 km/h (4 Bft) 94,34 %
30.04.2019 09:44 6,2 C 11,7 C 6,7 C 95 % 1014,4 hPa 0,0 l/m 15,4 km/h (3 Bft) W-SW 242 0 min 0,000 mm 0,0 UV-I 47 W/m 5,5 C 0,3 C 24,1 km/h (4 Bft) 93,18 %
30.04.2019 09:46 6,2 C 11,7 C 6,7 C 95 % 1014,4 hPa 0,0 l/m 15,9 km/h (3 Bft) W-SW 254 0 min 0,000 mm 0,0 UV-I 52 W/m 5,5 C 0,1 C 20,9 km/h (4 Bft) 96,23 %
30.04.2019 09:48 6,2 C 11,7 C 6,7 C 95 % 1014,4 hPa 0,2 l/m 14,5 km/h (3 Bft) W-SW 240 0 min 0,000 mm 0,0 UV-I 53 W/m 5,5 C 0,8 C 24,1 km/h (4 Bft) 94,87 %
30.04.2019 09:50 6,2 C 11,7 C 6,7 C 95 % 1014,4 hPa 0,0 l/m 17,4 km/h (3 Bft) W 275 0 min 0,000 mm 0,0 UV-I 54 W/m 5,5 C -0,6 C 22,5 km/h (4 Bft) 90,24 %
30.04.2019 09:52 6,2 C 11,7 C 6,7 C 95 % 1014,5 hPa 0,2 l/m 14,8 km/h (3 Bft) SW 223 0 min 0,000 mm 0,0 UV-I 55 W/m 5,5 C 0,6 C 25,7 km/h (4 Bft) 94,64 %
30.04.2019 09:54 6,2 C 11,7 C 6,7 C 95 % 1014,5 hPa 0,0 l/m 15,9 km/h (3 Bft) W-SW 252 0 min 0,000 mm 0,0 UV-I 53 W/m 5,5 C 0,1 C 25,7 km/h (4 Bft) 93,62 %
30.04.2019 09:56 6,2 C 11,7 C 6,7 C 95 % 1014,4 hPa 0,2 l/m 17,8 km/h (3 Bft) W-SW 256 0 min 0,000 mm 0,0 UV-I 52 W/m 5,5 C -0,7 C 25,7 km/h (4 Bft) 93,62 %
30.04.2019 09:58 6,3 C 11,7 C 6,7 C 95 % 1014,4 hPa 0,0 l/m 21,0 km/h (4 Bft) W-SW 239 0 min 0,000 mm 0,0 UV-I 51 W/m 5,6 C -1,9 C 29,0 km/h (5 Bft) 95,12 %
30.04.2019 10:00 6,3 C 11,7 C 6,7 C 95 % 1014,5 hPa 0,2 l/m 17,1 km/h (3 Bft) W-SW 246 0 min 0,025 mm 0,0 UV-I 50 W/m 5,6 C -0,3 C 29,0 km/h (5 Bft) 92,86 %
30.04.2019 10:02 6,2 C 11,7 C 6,7 C 95 % 1014,5 hPa 0,2 l/m 20,7 km/h (4 Bft) W-SW 237 0 min 0,000 mm 0,0 UV-I 43 W/m 5,5 C -1,9 C 33,8 km/h (5 Bft) 95,45 %
30.04.2019 10:04 6,2 C 11,7 C 6,7 C 95 % 1014,4 hPa 0,0 l/m 21,9 km/h (4 Bft) SW 227 0 min 0,000 mm 0,0 UV-I 44 W/m 5,5 C -2,3 C 30,6 km/h (5 Bft) 95,74 %
30.04.2019 10:06 6,2 C 11,7 C 6,7 C 95 % 1014,4 hPa 0,2 l/m 20,2 km/h (4 Bft) SW 223 0 min 0,000 mm 0,0 UV-I 42 W/m 5,5 C -1,7 C 30,6 km/h (5 Bft) 94,34 %
30.04.2019 10:08 6,2 C 11,7 C 6,7 C 95 % 1014,4 hPa 0,0 l/m 19,0 km/h (3 Bft) W-SW 246 0 min 0,000 mm 0,0 UV-I 40 W/m 5,5 C -1,2 C 27,4 km/h (4 Bft) 93,18 %
30.04.2019 10:10 6,3 C 11,7 C 6,7 C 95 % 1014,5 hPa 0,2 l/m 17,0 km/h (3 Bft) W-SW 238 0 min 0,000 mm 0,0 UV-I 40 W/m 5,6 C -0,3 C 27,4 km/h (4 Bft) 93,62 %
30.04.2019 10:12 6,2 C 11,7 C 6,7 C 95 % 1014,5 hPa 0,0 l/m 18,5 km/h (3 Bft) S-SW 212 0 min 0,000 mm 0,0 UV-I 39 W/m 5,5 C -1,0 C 27,4 km/h (4 Bft) 95,12 %
30.04.2019 10:14 6,2 C 11,7 C 6,7 C 95 % 1014,6 hPa 0,2 l/m 20,1 km/h (4 Bft) W-SW 238 0 min 0,000 mm 0,0 UV-I 36 W/m 5,5 C -1,7 C 29,0 km/h (5 Bft) 98,11 %
30.04.2019 10:16 6,2 C 11,7 C 6,1 C 95 % 1014,5 hPa 0,0 l/m 21,7 km/h (4 Bft) W-SW 239 0 min 0,000 mm 0,0 UV-I 37 W/m 5,5 C -2,2 C 33,8 km/h (5 Bft) 97,37 %
30.04.2019 10:18 6,2 C 11,7 C 6,1 C 95 % 1014,5 hPa 0,2 l/m 19,5 km/h (3 Bft) W-SW 251 0 min 0,000 mm 0,0 UV-I 40 W/m 5,5 C -1,4 C 27,4 km/h (4 Bft) 97,87 %
30.04.2019 10:20 6,3 C 11,7 C 6,7 C 95 % 1014,4 hPa 0,0 l/m 14,9 km/h (3 Bft) W-SW 243 0 min 0,000 mm 0,0 UV-I 44 W/m 5,6 C 0,7 C 22,5 km/h (4 Bft) 93,18 %
30.04.2019 10:22 6,3 C 11,7 C 6,7 C 95 % 1014,5 hPa 0,2 l/m 17,5 km/h (3 Bft) SW 218 0 min 0,000 mm 0,0 UV-I 49 W/m 5,6 C -0,5 C 25,7 km/h (4 Bft) 97,62 %
30.04.2019 10:24 6,3 C 11,7 C 6,7 C 95 % 1014,5 hPa 0,2 l/m 24,4 km/h (4 Bft) W-SW 242 0 min 0,000 mm 0,0 UV-I 48 W/m 5,6 C -3,0 C 35,4 km/h (5 Bft) 96,88 %
30.04.2019 10:26 6,3 C 11,7 C 6,7 C 95 % 1014,5 hPa 0,0 l/m 21,5 km/h (4 Bft) W-SW 244 0 min 0,000 mm 0,0 UV-I 44 W/m 5,6 C -2,0 C 29,0 km/h (5 Bft) 97,37 %
30.04.2019 10:28 6,3 C 11,7 C 6,7 C 95 % 1014,5 hPa 0,2 l/m 20,7 km/h (4 Bft) W-SW 248 0 min 0,000 mm 0,0 UV-I 42 W/m 5,6 C -1,8 C 27,4 km/h (4 Bft) 97,92 %
30.04.2019 10:30 6,3 C 11,7 C 6,7 C 95 % 1014,5 hPa 0,0 l/m 20,5 km/h (4 Bft) SW 236 0 min 0,000 mm 0,0 UV-I 45 W/m 5,6 C -1,7 C 27,4 km/h (4 Bft) 97,87 %
30.04.2019 10:32 6,3 C 11,7 C 6,7 C 95 % 1014,4 hPa 0,0 l/m 20,6 km/h (4 Bft) SW 233 0 min 0,000 mm 0,0 UV-I 49 W/m 5,6 C -1,7 C 27,4 km/h (4 Bft) 96,23 %
30.04.2019 10:34 6,3 C 11,7 C 6,7 C 95 % 1014,4 hPa 0,2 l/m 16,3 km/h (3 Bft) W-SW 256 0 min 0,000 mm 0,0 UV-I 52 W/m 5,6 C 0,0 C 24,1 km/h (4 Bft) 97,56 %
30.04.2019 10:36 6,3 C 11,7 C 6,7 C 95 % 1014,4 hPa 0,0 l/m 22,4 km/h (4 Bft) SW 227 0 min 0,000 mm 0,0 UV-I 51 W/m 5,6 C -2,4 C 33,8 km/h (5 Bft) 98,11 %
30.04.2019 10:38 6,4 C 11,7 C 6,7 C 95 % 1014,4 hPa 0,2 l/m 19,2 km/h (3 Bft) W-SW 245 0 min 0,000 mm 0,0 UV-I 47 W/m 5,7 C -1,1 C 29,0 km/h (5 Bft) 93,18 %
30.04.2019 10:40 6,4 C 11,7 C 6,7 C 95 % 1014,4 hPa 0,0 l/m 20,7 km/h (4 Bft) W 261 0 min 0,000 mm 0,0 UV-I 51 W/m 5,7 C -1,6 C 30,6 km/h (5 Bft) 97,87 %
30.04.2019 10:42 6,4 C 11,7 C 6,7 C 95 % 1014,4 hPa 0,2 l/m 20,7 km/h (4 Bft) SW 233 0 min 0,000 mm 0,0 UV-I 60 W/m 5,7 C -1,6 C 32,2 km/h (5 Bft) 97,87 %
30.04.2019 10:44 6,4 C 11,7 C 6,7 C 95 % 1014,4 hPa 0,0 l/m 21,1 km/h (4 Bft) SW 226 0 min 0,000 mm 0,0 UV-I 55 W/m 5,7 C -1,8 C 30,6 km/h (5 Bft) 94,00 %
30.04.2019 10:46 6,4 C 11,7 C 6,7 C 95 % 1014,4 hPa 0,2 l/m 18,5 km/h (3 Bft) W-SW 243 0 min 0,000 mm 0,0 UV-I 46 W/m 5,7 C -0,8 C 27,4 km/h (4 Bft) 97,73 %
30.04.2019 10:49 6,4 C 11,7 C 6,7 C 95 % 1014,5 hPa 0,0 l/m 18,9 km/h (3 Bft) W-NW 291 0 min 0,000 mm 0,0 UV-I 43 W/m 5,7 C -0,9 C 30,6 km/h (5 Bft) 98,53 %
30.04.2019 10:50 6,5 C 11,7 C 6,7 C 95 % 1014,5 hPa 0,2 l/m 18,0 km/h (3 Bft) W-SW 242 0 min 0,000 mm 0,0 UV-I 46 W/m 5,8 C -0,4 C 24,1 km/h (4 Bft) 100,00 %
30.04.2019 10:52 6,5 C 11,7 C 6,7 C 95 % 1014,6 hPa 0,0 l/m 15,0 km/h (3 Bft) W 263 0 min 0,000 mm 0,0 UV-I 41 W/m 5,8 C 0,9 C 22,5 km/h (4 Bft) 100,00 %
30.04.2019 10:54 6,5 C 11,7 C 6,7 C 95 % 1014,8 hPa 0,0 l/m 19,7 km/h (3 Bft) W-SW 258 0 min 0,000 mm 0,0 UV-I 39 W/m 5,8 C -1,1 C 27,4 km/h (4 Bft) 100,00 %
30.04.2019 10:56 6,5 C 11,7 C 6,7 C 95 % 1014,7 hPa 0,2 l/m 13,4 km/h (3 Bft) W-SW 252 0 min 0,000 mm 0,0 UV-I 44 W/m 5,8 C 1,7 C 22,5 km/h (4 Bft) 98,11 %
30.04.2019 10:58 6,5 C 11,7 C 6,7 C 95 % 1014,7 hPa 0,2 l/m 19,4 km/h (3 Bft) W 262 0 min 0,000 mm 0,0 UV-I 47 W/m 5,8 C -1,0 C 30,6 km/h (5 Bft) 97,73 %
30.04.2019 11:00 6,5 C 11,7 C 6,7 C 95 % 1014,7 hPa 0,0 l/m 18,4 km/h (3 Bft) W-SW 252 0 min 0,025 mm 0,0 UV-I 52 W/m 5,8 C -0,6 C 25,7 km/h (4 Bft) 100,00 %
30.04.2019 11:02 6,6 C 11,7 C 6,7 C 95 % 1014,8 hPa 0,2 l/m 17,0 km/h (3 Bft) SW 236 0 min 0,000 mm 0,0 UV-I 55 W/m 5,9 C 0,1 C 30,6 km/h (5 Bft) 100,00 %
30.04.2019 11:04 6,6 C 11,7 C 6,7 C 95 % 1014,8 hPa 0,0 l/m 17,1 km/h (3 Bft) W 281 0 min 0,000 mm 0,0 UV-I 59 W/m 5,9 C 0,1 C 25,7 km/h (4 Bft) 100,00 %
30.04.2019 11:06 6,6 C 11,7 C 6,7 C 95 % 1014,8 hPa 0,2 l/m 16,5 km/h (3 Bft) W-SW 250 0 min 0,000 mm 0,0 UV-I 58 W/m 5,9 C 0,3 C 22,5 km/h (4 Bft) 97,22 %
30.04.2019 11:08 6,6 C 11,7 C 6,7 C 95 % 1014,8 hPa 0,0 l/m 18,0 km/h (3 Bft) W-NW 282 0 min 0,000 mm 0,0 UV-I 64 W/m 5,9 C -0,3 C 30,6 km/h (5 Bft) 96,43 %
30.04.2019 11:10 6,6 C 11,7 C 7,2 C 95 % 1014,8 hPa 0,2 l/m 15,3 km/h (3 Bft) W-SW 241 0 min 0,000 mm 0,0 UV-I 70 W/m 5,9 C 0,9 C 24,1 km/h (4 Bft) 100,00 %
30.04.2019 11:12 6,6 C 11,7 C 7,2 C 95 % 1014,8 hPa 0,2 l/m 20,8 km/h (4 Bft) W-SW 250 0 min 0,000 mm 0,0 UV-I 76 W/m 5,9 C -1,4 C 32,2 km/h (5 Bft) 98,00 %
30.04.2019 11:14 6,6 C 11,7 C 7,2 C 95 % 1014,8 hPa 0,0 l/m 16,3 km/h (3 Bft) SW 236 0 min 0,000 mm 0,0 UV-I 70 W/m 5,9 C 0,4 C 22,5 km/h (4 Bft) 97,87 %
30.04.2019 11:16 6,7 C 11,7 C 7,2 C 95 % 1014,9 hPa 0,2 l/m 16,5 km/h (3 Bft) W 279 0 min 0,000 mm 0,0 UV-I 71 W/m 6,0 C 0,4 C 25,7 km/h (4 Bft) 97,14 %
30.04.2019 11:18 6,7 C 11,7 C 7,2 C 95 % 1014,9 hPa 0,0 l/m 19,9 km/h (4 Bft) W-SW 239 0 min 0,000 mm 0,0 UV-I 71 W/m 6,0 C -0,9 C 25,7 km/h (4 Bft) 98,21 %
30.04.2019 11:20 6,7 C 11,7 C 7,2 C 95 % 1014,9 hPa 0,2 l/m 16,3 km/h (3 Bft) W-NW 293 0 min 0,000 mm 0,0 UV-I 69 W/m 6,0 C 0,5 C 24,1 km/h (4 Bft) 96,00 %
30.04.2019 11:22 6,7 C 11,7 C 7,2 C 95 % 1014,9 hPa 0,0 l/m 16,5 km/h (3 Bft) W 259 0 min 0,000 mm 0,0 UV-I 66 W/m 6,0 C 0,4 C 24,1 km/h (4 Bft) 97,37 %
30.04.2019 11:24 6,7 C 11,7 C 7,2 C 95 % 1015,0 hPa 0,2 l/m 16,3 km/h (3 Bft) W-SW 240 0 min 0,000 mm 0,0 UV-I 64 W/m 6,0 C 0,5 C 22,5 km/h (4 Bft) 95,12 %
30.04.2019 11:26 6,7 C 11,7 C 7,2 C 95 % 1015,0 hPa 0,2 l/m 19,3 km/h (3 Bft) W 265 0 min 0,000 mm 0,4 UV-I 87 W/m 6,0 C -0,7 C 27,4 km/h (4 Bft) 92,00 %
30.04.2019 11:28 6,7 C 11,7 C 7,2 C 95 % 1015,0 hPa 0,0 l/m 20,0 km/h (4 Bft) SW 231 0 min 0,000 mm 0,1 UV-I 61 W/m 6,0 C -1,0 C 27,4 km/h (4 Bft) 96,23 %
30.04.2019 11:30 6,7 C 11,7 C 7,2 C 95 % 1015,0 hPa 0,2 l/m 15,5 km/h (3 Bft) W-SW 245 0 min 0,000 mm 0,0 UV-I 62 W/m 6,0 C 0,9 C 24,1 km/h (4 Bft) 95,45 %
30.04.2019 11:32 6,7 C 11,7 C 7,2 C 95 % 1015,1 hPa 0,0 l/m 17,0 km/h (3 Bft) W 261 0 min 0,000 mm 0,0 UV-I 69 W/m 6,0 C 0,2 C 24,1 km/h (4 Bft) 95,74 %
30.04.2019 11:34 6,8 C 11,7 C 7,2 C 95 % 1015,1 hPa 0,2 l/m 15,8 km/h (3 Bft) W-SW 246 0 min 0,000 mm 0,0 UV-I 53 W/m 6,1 C 0,9 C 20,9 km/h (4 Bft) 92,86 %
30.04.2019 11:36 6,8 C 11,7 C 7,2 C 95 % 1015,1 hPa 0,0 l/m 11,2 km/h (2 Bft) W-SW 250 0 min 0,000 mm 0,0 UV-I 57 W/m 6,1 C 3,3 C 19,3 km/h (3 Bft) 100,00 %
30.04.2019 11:38 6,8 C 11,7 C 7,2 C 95 % 1015,0 hPa 0,2 l/m 13,8 km/h (3 Bft) W-SW 237 0 min 0,000 mm 0,0 UV-I 58 W/m 6,1 C 1,9 C 22,5 km/h (4 Bft) 95,74 %
30.04.2019 11:40 6,8 C 11,7 C 7,2 C 95 % 1015,0 hPa 0,2 l/m 20,1 km/h (4 Bft) W 261 0 min 0,000 mm 0,0 UV-I 60 W/m 6,1 C -0,9 C 32,2 km/h (5 Bft) 92,00 %
30.04.2019 11:42 6,8 C 11,7 C 7,2 C 95 % 1015,0 hPa 0,2 l/m 17,7 km/h (3 Bft) W-SW 251 0 min 0,000 mm 0,0 UV-I 60 W/m 6,1 C 0,1 C 24,1 km/h (4 Bft) 95,12 %
30.04.2019 11:44 6,8 C 11,7 C 7,2 C 95 % 1015,0 hPa 0,0 l/m 18,6 km/h (3 Bft) W-SW 250 0 min 0,000 mm 0,0 UV-I 59 W/m 6,1 C -0,3 C 24,1 km/h (4 Bft) 97,92 %
30.04.2019 11:46 6,8 C 11,7 C 7,2 C 95 % 1015,0 hPa 0,2 l/m 15,9 km/h (3 Bft) W-SW 242 0 min 0,000 mm 0,2 UV-I 83 W/m 6,1 C 0,8 C 22,5 km/h (4 Bft) 97,87 %
30.04.2019 11:48 6,9 C 11,7 C 7,8 C 95 % 1015,0 hPa 0,2 l/m 18,2 km/h (3 Bft) W-SW 251 0 min 0,000 mm 0,5 UV-I 95 W/m 6,2 C -0,0 C 30,6 km/h (5 Bft) 96,00 %
30.04.2019 11:50 6,9 C 11,7 C 7,2 C 95 % 1014,9 hPa 0,0 l/m 22,7 km/h (4 Bft) W-SW 251 0 min 0,000 mm 0,5 UV-I 99 W/m 6,2 C -1,7 C 33,8 km/h (5 Bft) 98,08 %
30.04.2019 11:52 6,9 C 11,7 C 7,2 C 95 % 1014,9 hPa 0,2 l/m 20,9 km/h (4 Bft) SW 227 0 min 0,000 mm 0,5 UV-I 104 W/m 6,2 C -1,0 C 30,6 km/h (5 Bft) 97,62 %
30.04.2019 11:54 6,9 C 11,7 C 7,2 C 95 % 1014,9 hPa 0,0 l/m 24,7 km/h (4 Bft) SW 233 0 min 0,000 mm 0,5 UV-I 100 W/m 6,2 C -2,3 C 35,4 km/h (5 Bft) 97,56 %
30.04.2019 11:56 6,9 C 11,7 C 7,2 C 95 % 1014,9 hPa 0,2 l/m 27,6 km/h (4 Bft) SW 236 0 min 0,000 mm 0,5 UV-I 94 W/m 6,2 C -3,1 C 33,8 km/h (5 Bft) 96,23 %
30.04.2019 11:58 7,0 C 11,7 C 7,2 C 95 % 1014,9 hPa 0,0 l/m 24,0 km/h (4 Bft) W-SW 240 0 min 0,000 mm 0,2 UV-I 87 W/m 6,3 C -1,9 C 32,2 km/h (5 Bft) 96,23 %
30.04.2019 12:00 7,0 C 11,7 C 7,2 C 95 % 1015,0 hPa 0,2 l/m 19,8 km/h (3 Bft) W-SW 257 0 min 0,051 mm 0,0 UV-I 80 W/m 6,3 C -0,5 C 25,7 km/h (4 Bft) 100,00 %
30.04.2019 12:02 6,9 C 11,7 C 7,2 C 95 % 1015,0 hPa 0,2 l/m 15,2 km/h (3 Bft) W-SW 248 0 min 0,000 mm 0,0 UV-I 83 W/m 6,2 C 1,3 C 24,1 km/h (4 Bft) 100,00 %
30.04.2019 12:04 7,0 C 11,7 C 7,2 C 95 % 1015,0 hPa 0,0 l/m 16,7 km/h (3 Bft) W-SW 257 0 min 0,000 mm 0,2 UV-I 84 W/m 6,3 C 0,7 C 24,1 km/h (4 Bft) 100,00 %
30.04.2019 12:06 7,0 C 11,7 C 7,2 C 95 % 1015,0 hPa 0,2 l/m 17,3 km/h (3 Bft) SW 220 0 min 0,000 mm 0,0 UV-I 82 W/m 6,3 C 0,5 C 27,4 km/h (4 Bft) 96,00 %
30.04.2019 12:08 7,0 C 11,7 C 7,8 C 95 % 1015,0 hPa 0,2 l/m 19,3 km/h (3 Bft) W-SW 250 0 min 0,000 mm 0,0 UV-I 82 W/m 6,3 C -0,3 C 25,7 km/h (4 Bft) 98,00 %
30.04.2019 12:10 7,1 C 11,7 C 7,8 C 95 % 1015,0 hPa 0,0 l/m 21,0 km/h (4 Bft) W-SW 242 0 min 0,000 mm 0,2 UV-I 85 W/m 6,4 C -0,8 C 29,0 km/h (5 Bft) 100,00 %
30.04.2019 12:12 7,1 C 11,7 C 7,8 C 95 % 1015,0 hPa 0,2 l/m 15,7 km/h (3 Bft) W-SW 254 0 min 0,000 mm 0,3 UV-I 85 W/m 6,4 C 1,3 C 24,1 km/h (4 Bft) 98,21 %
30.04.2019 12:14 7,1 C 11,7 C 7,8 C 96 % 1015,0 hPa 0,0 l/m 21,0 km/h (4 Bft) SW 220 0 min 0,000 mm 0,5 UV-I 85 W/m 6,5 C -0,8 C 30,6 km/h (5 Bft) 95,45 %
30.04.2019 12:16 7,1 C 11,7 C 7,8 C 96 % 1015,1 hPa 0,2 l/m 18,0 km/h (3 Bft) SW 232 0 min 0,000 mm 0,0 UV-I 83 W/m 6,5 C 0,3 C 27,4 km/h (4 Bft) 100,00 %
30.04.2019 12:18 7,1 C 11,7 C 7,8 C 96 % 1015,1 hPa 0,0 l/m 18,4 km/h (3 Bft) SW 235 0 min 0,000 mm 0,2 UV-I 86 W/m 6,5 C 0,1 C 27,4 km/h (4 Bft) 97,87 %
30.04.2019 12:20 7,2 C 11,7 C 7,8 C 96 % 1015,1 hPa 0,0 l/m 16,6 km/h (3 Bft) SW 229 0 min 0,000 mm 0,0 UV-I 78 W/m 6,6 C 1,0 C 27,4 km/h (4 Bft) 100,00 %
30.04.2019 12:22 7,2 C 11,7 C 7,8 C 96 % 1015,1 hPa 0,2 l/m 17,6 km/h (3 Bft) SW 222 0 min 0,000 mm 0,0 UV-I 74 W/m 6,6 C 0,6 C 27,4 km/h (4 Bft) 98,08 %
30.04.2019 12:24 7,2 C 11,7 C 7,8 C 96 % 1015,1 hPa 0,0 l/m 18,3 km/h (3 Bft) SW 236 0 min 0,000 mm 0,0 UV-I 66 W/m 6,6 C 0,3 C 27,4 km/h (4 Bft) 100,00 %
30.04.2019 12:26 7,2 C 11,7 C 7,8 C 96 % 1015,1 hPa 0,2 l/m 14,9 km/h (3 Bft) SW 236 0 min 0,000 mm 0,0 UV-I 70 W/m 6,6 C 1,8 C 25,7 km/h (4 Bft) 97,87 %
30.04.2019 12:28 7,2 C 11,7 C 7,8 C 96 % 1015,2 hPa 0,2 l/m 17,2 km/h (3 Bft) W-SW 242 0 min 0,000 mm 0,0 UV-I 65 W/m 6,6 C 0,8 C 25,7 km/h (4 Bft) 100,00 %
30.04.2019 12:30 7,2 C 11,7 C 7,8 C 96 % 1015,2 hPa 0,0 l/m 15,2 km/h (3 Bft) W-SW 251 0 min 0,000 mm 0,0 UV-I 57 W/m 6,6 C 1,6 C 27,4 km/h (4 Bft) 100,00 %
30.04.2019 12:32 7,2 C 11,7 C 7,8 C 96 % 1015,1 hPa 0,2 l/m 18,7 km/h (3 Bft) W-SW 257 0 min 0,000 mm 0,0 UV-I 64 W/m 6,6 C 0,2 C 29,0 km/h (5 Bft) 97,87 %
30.04.2019 12:34 7,2 C 11,7 C 7,8 C 96 % 1015,1 hPa 0,2 l/m 19,4 km/h (3 Bft) W-SW 242 0 min 0,000 mm 0,1 UV-I 78 W/m 6,6 C -0,1 C 25,7 km/h (4 Bft) 95,45 %
30.04.2019 12:36 7,2 C 11,7 C 7,8 C 96 % 1015,1 hPa 0,0 l/m 16,8 km/h (3 Bft) W-SW 258 0 min 0,000 mm 0,5 UV-I 99 W/m 6,6 C 0,9 C 27,4 km/h (4 Bft) 97,87 %
30.04.2019 12:38 7,2 C 11,7 C 7,8 C 96 % 1015,1 hPa 0,2 l/m 20,7 km/h (4 Bft) W-SW 251 0 min 0,000 mm 0,3 UV-I 80 W/m 6,6 C -0,6 C 32,2 km/h (5 Bft) 94,74 %
30.04.2019 12:40 7,2 C 11,7 C 7,8 C 96 % 1015,1 hPa 0,2 l/m 17,7 km/h (3 Bft) W-SW 243 0 min 0,000 mm 0,1 UV-I 76 W/m 6,6 C 0,6 C 30,6 km/h (5 Bft) 98,11 %
30.04.2019 12:42 7,3 C 11,7 C 7,8 C 95 % 1015,1 hPa 0,0 l/m 12,3 km/h (3 Bft) SW 230 0 min 0,000 mm 0,1 UV-I 78 W/m 6,6 C 3,2 C 19,3 km/h (3 Bft) 97,73 %
30.04.2019 12:44 7,2 C 11,7 C 7,8 C 96 % 1015,1 hPa 0,0 l/m 15,3 km/h (3 Bft) W-SW 240 0 min 0,000 mm 0,2 UV-I 79 W/m 6,6 C 1,6 C 25,7 km/h (4 Bft) 97,87 %
30.04.2019 12:46 7,3 C 11,7 C 7,8 C 95 % 1015,0 hPa 0,2 l/m 19,2 km/h (3 Bft) W-SW 248 0 min 0,000 mm 0,6 UV-I 112 W/m 6,6 C 0,1 C 29,0 km/h (5 Bft) 96,00 %
30.04.2019 12:48 7,4 C 11,7 C 8,3 C 96 % 1015,1 hPa 0,0 l/m 16,5 km/h (3 Bft) W-SW 243 0 min 0,000 mm 0,5 UV-I 95 W/m 6,8 C 1,3 C 22,5 km/h (4 Bft) 98,11 %
30.04.2019 12:50 7,4 C 11,7 C 7,8 C 96 % 1015,1 hPa 0,2 l/m 17,5 km/h (3 Bft) SW 235 0 min 0,000 mm 0,3 UV-I 85 W/m 6,8 C 0,9 C 24,1 km/h (4 Bft) 97,87 %
30.04.2019 12:52 7,4 C 11,7 C 7,8 C 96 % 1015,2 hPa 0,0 l/m 16,5 km/h (3 Bft) W-SW 240 0 min 0,000 mm 0,4 UV-I 84 W/m 6,8 C 1,3 C 25,7 km/h (4 Bft) 94,74 %
30.04.2019 12:54 7,4 C 11,7 C 8,3 C 96 % 1015,2 hPa 0,2 l/m 14,3 km/h (3 Bft) W-SW 248 0 min 0,000 mm 0,0 UV-I 68 W/m 6,8 C 2,3 C 20,9 km/h (4 Bft) 97,56 %
30.04.2019 12:56 7,4 C 11,7 C 7,8 C 96 % 1015,1 hPa 0,0 l/m 17,1 km/h (3 Bft) W-SW 246 0 min 0,000 mm 0,0 UV-I 64 W/m 6,8 C 1,1 C 25,7 km/h (4 Bft) 100,00 %
30.04.2019 12:58 7,4 C 11,7 C 7,8 C 96 % 1015,2 hPa 0,0 l/m 13,0 km/h (3 Bft) SW 233 0 min 0,000 mm 0,0 UV-I 52 W/m 6,8 C 3,0 C 19,3 km/h (3 Bft) 96,00 %
30.04.2019 13:00 7,4 C 11,7 C 7,8 C 96 % 1015,2 hPa 0,2 l/m 12,4 km/h (3 Bft) W 259 0 min 0,051 mm 0,0 UV-I 56 W/m 6,8 C 3,3 C 20,9 km/h (4 Bft) 100,00 %
30.04.2019 13:02 7,4 C 11,7 C 7,8 C 96 % 1015,2 hPa 0,0 l/m 14,6 km/h (3 Bft) W-SW 246 0 min 0,000 mm 0,0 UV-I 68 W/m 6,8 C 2,2 C 22,5 km/h (4 Bft) 100,00 %
30.04.2019 13:04 7,5 C 11,7 C 7,8 C 96 % 1015,2 hPa 0,0 l/m 16,8 km/h (3 Bft) SW 235 0 min 0,000 mm 0,0 UV-I 72 W/m 6,9 C 1,3 C 22,5 km/h (4 Bft) 100,00 %
30.04.2019 13:06 7,6 C 11,7 C 7,8 C 96 % 1015,1 hPa 0,2 l/m 13,8 km/h (3 Bft) W-SW 242 0 min 0,000 mm 0,0 UV-I 68 W/m 7,0 C 2,8 C 19,3 km/h (3 Bft) 100,00 %
30.04.2019 13:08 7,6 C 11,7 C 7,8 C 96 % 1015,1 hPa 0,2 l/m 13,5 km/h (3 Bft) SW 223 0 min 0,000 mm 0,0 UV-I 70 W/m 7,0 C 3,0 C 20,9 km/h (4 Bft) 100,00 %
30.04.2019 13:10 7,6 C 11,7 C 7,8 C 96 % 1015,1 hPa 0,0 l/m 14,1 km/h (3 Bft) S-SW 209 0 min 0,000 mm 0,0 UV-I 73 W/m 7,0 C 2,7 C 22,5 km/h (4 Bft) 95,74 %
30.04.2019 13:12 7,6 C 11,7 C 8,3 C 96 % 1015,1 hPa 0,2 l/m 13,7 km/h (3 Bft) W-SW 252 0 min 0,000 mm 0,0 UV-I 71 W/m 7,0 C 2,9 C 22,5 km/h (4 Bft) 100,00 %
30.04.2019 13:14 7,6 C 11,7 C 8,3 C 96 % 1015,2 hPa 0,0 l/m 13,9 km/h (3 Bft) SW 217 0 min 0,000 mm 0,0 UV-I 68 W/m 7,0 C 2,8 C 22,5 km/h (4 Bft) 100,00 %
30.04.2019 13:16 7,6 C 11,7 C 8,3 C 96 % 1015,1 hPa 0,2 l/m 11,9 km/h (2 Bft) W-SW 241 0 min 0,000 mm 0,0 UV-I 63 W/m 7,0 C 3,8 C 20,9 km/h (4 Bft) 100,00 %
30.04.2019 13:18 7,6 C 11,7 C 7,8 C 96 % 1015,1 hPa 0,0 l/m 18,2 km/h (3 Bft) W-SW 246 0 min 0,000 mm 0,0 UV-I 66 W/m 7,0 C 0,9 C 27,4 km/h (4 Bft) 100,00 %
30.04.2019 13:20 7,6 C 11,7 C 8,3 C 96 % 1015,0 hPa 0,2 l/m 19,2 km/h (3 Bft) W-SW 239 0 min 0,000 mm 0,2 UV-I 87 W/m 7,0 C 0,5 C 27,4 km/h (4 Bft) 98,00 %
30.04.2019 13:22 7,6 C 11,7 C 8,3 C 96 % 1015,0 hPa 0,0 l/m 18,9 km/h (3 Bft) W-SW 244 0 min 0,000 mm 0,6 UV-I 107 W/m 7,0 C 0,6 C 27,4 km/h (4 Bft) 100,00 %
30.04.2019 13:24 7,7 C 11,7 C 8,3 C 96 % 1015,0 hPa 0,0 l/m 17,7 km/h (3 Bft) W-SW 245 0 min 0,000 mm 0,6 UV-I 119 W/m 7,1 C 1,2 C 25,7 km/h (4 Bft) 98,11 %
30.04.2019 13:26 7,7 C 11,7 C 8,3 C 96 % 1015,0 hPa 0,2 l/m 18,5 km/h (3 Bft) SW 231 0 min 0,000 mm 0,7 UV-I 126 W/m 7,1 C 0,9 C 27,4 km/h (4 Bft) 97,37 %
30.04.2019 13:28 7,7 C 11,7 C 8,9 C 96 % 1014,9 hPa 0,0 l/m 22,4 km/h (4 Bft) W-SW 251 0 min 0,000 mm 0,7 UV-I 137 W/m 7,1 C -0,5 C 29,0 km/h (5 Bft) 98,11 %
30.04.2019 13:30 7,7 C 11,7 C 8,9 C 96 % 1014,9 hPa 0,0 l/m 17,1 km/h (3 Bft) SW 235 0 min 0,000 mm 0,7 UV-I 133 W/m 7,1 C 1,4 C 30,6 km/h (5 Bft) 97,56 %
30.04.2019 13:32 7,8 C 11,7 C 8,9 C 96 % 1014,9 hPa 0,0 l/m 23,2 km/h (4 Bft) SW 219 0 min 0,000 mm 0,7 UV-I 133 W/m 7,2 C -0,6 C 30,6 km/h (5 Bft) 94,34 %
30.04.2019 13:34 7,8 C 11,7 C 8,9 C 96 % 1014,9 hPa 0,2 l/m 20,5 km/h (4 Bft) W-SW 242 0 min 0,000 mm 0,8 UV-I 138 W/m 7,2 C 0,3 C 30,6 km/h (5 Bft) 92,59 %
30.04.2019 13:36 7,8 C 11,7 C 8,9 C 96 % 1015,1 hPa 0,0 l/m 15,2 km/h (3 Bft) W 263 0 min 0,000 mm 0,6 UV-I 117 W/m 7,2 C 2,4 C 22,5 km/h (4 Bft) 98,31 %
30.04.2019 13:38 7,8 C 11,7 C 8,3 C 96 % 1015,1 hPa 0,0 l/m 15,6 km/h (3 Bft) W-SW 246 0 min 0,000 mm 0,2 UV-I 88 W/m 7,2 C 2,2 C 22,5 km/h (4 Bft) 96,15 %
30.04.2019 13:40 7,8 C 11,7 C 8,3 C 96 % 1015,0 hPa 0,0 l/m 16,5 km/h (3 Bft) SW 235 0 min 0,000 mm 0,3 UV-I 86 W/m 7,2 C 1,8 C 29,0 km/h (5 Bft) 95,83 %
30.04.2019 13:42 7,8 C 11,7 C 8,3 C 96 % 1014,9 hPa 0,2 l/m 20,9 km/h (4 Bft) SW 227 0 min 0,000 mm 0,6 UV-I 105 W/m 7,2 C 0,1 C 27,4 km/h (4 Bft) 97,73 %
30.04.2019 13:44 7,8 C 11,7 C 8,3 C 96 % 1014,8 hPa 0,2 l/m 22,7 km/h (4 Bft) SW 229 0 min 0,000 mm 0,8 UV-I 133 W/m 7,2 C -0,5 C 38,6 km/h (5 Bft) 98,11 %
30.04.2019 13:46 7,7 C 11,7 C 8,3 C 96 % 1014,8 hPa 0,0 l/m 24,3 km/h (4 Bft) W-SW 249 0 min 0,000 mm 0,8 UV-I 131 W/m 7,1 C -1,1 C 40,2 km/h (6 Bft) 97,87 %
30.04.2019 13:48 7,7 C 11,7 C 8,3 C 96 % 1014,9 hPa 0,0 l/m 20,6 km/h (4 Bft) W-SW 240 0 min 0,000 mm 0,7 UV-I 121 W/m 7,1 C 0,1 C 29,0 km/h (5 Bft) 95,12 %
30.04.2019 13:50 7,7 C 11,7 C 8,3 C 96 % 1014,9 hPa 0,2 l/m 18,4 km/h (3 Bft) SW 224 0 min 0,000 mm 0,6 UV-I 114 W/m 7,1 C 0,9 C 27,4 km/h (4 Bft) 96,23 %
30.04.2019 13:52 7,7 C 11,7 C 8,3 C 96 % 1015,0 hPa 0,0 l/m 21,5 km/h (4 Bft) W-NW 287 0 min 0,000 mm 0,7 UV-I 121 W/m 7,1 C -0,2 C 30,6 km/h (5 Bft) 97,87 %
30.04.2019 13:54 7,8 C 11,7 C 8,3 C 96 % 1015,0 hPa 0,0 l/m 17,5 km/h (3 Bft) W-SW 252 0 min 0,000 mm 0,6 UV-I 108 W/m 7,2 C 1,4 C 25,7 km/h (4 Bft) 97,37 %
30.04.2019 13:56 7,8 C 11,7 C 8,3 C 96 % 1014,9 hPa 0,0 l/m 17,9 km/h (3 Bft) W-SW 242 0 min 0,000 mm 0,6 UV-I 110 W/m 7,2 C 1,2 C 27,4 km/h (4 Bft) 94,00 %
30.04.2019 13:59 7,8 C 11,7 C 8,3 C 96 % 1014,9 hPa 0,0 l/m 17,4 km/h (3 Bft) W-SW 247 0 min 0,000 mm 0,6 UV-I 105 W/m 7,2 C 1,4 C 25,7 km/h (4 Bft) 94,37 %
30.04.2019 14:00 7,8 C 11,7 C 8,3 C 96 % 1014,9 hPa 0,0 l/m 23,7 km/h (4 Bft) SW 226 0 min 0,000 mm 0,5 UV-I 97 W/m 7,2 C -0,8 C 32,2 km/h (5 Bft) 92,31 %
30.04.2019 14:02 7,8 C 11,7 C 8,3 C 96 % 1015,0 hPa 0,0 l/m 20,6 km/h (4 Bft) W-SW 245 0 min 0,051 mm 0,5 UV-I 89 W/m 7,2 C 0,2 C 27,4 km/h (4 Bft) 96,00 %
30.04.2019 14:04 7,8 C 11,7 C 8,3 C 96 % 1014,9 hPa 0,2 l/m 17,0 km/h (3 Bft) W 281 0 min 0,000 mm 0,5 UV-I 93 W/m 7,2 C 1,6 C 27,4 km/h (4 Bft) 95,12 %
30.04.2019 14:06 7,8 C 11,7 C 8,3 C 96 % 1014,9 hPa 0,0 l/m 22,9 km/h (4 Bft) W-SW 254 0 min 0,000 mm 0,6 UV-I 113 W/m 7,2 C -0,5 C 30,6 km/h (5 Bft) 94,34 %
30.04.2019 14:08 7,8 C 11,7 C 8,3 C 96 % 1014,9 hPa 0,0 l/m 20,3 km/h (4 Bft) W 261 0 min 0,000 mm 0,6 UV-I 104 W/m 7,2 C 0,3 C 30,6 km/h (5 Bft) 94,29 %
30.04.2019 14:10 7,8 C 11,7 C 8,3 C 96 % 1014,9 hPa 0,0 l/m 19,8 km/h (3 Bft) W-SW 250 0 min 0,000 mm 0,2 UV-I 81 W/m 7,2 C 0,5 C 30,6 km/h (5 Bft) 94,92 %
30.04.2019 14:12 7,8 C 11,7 C 8,3 C 96 % 1014,9 hPa 0,0 l/m 19,3 km/h (3 Bft) W 262 0 min 0,000 mm 0,0 UV-I 71 W/m 7,2 C 0,7 C 32,2 km/h (5 Bft) 94,29 %
30.04.2019 14:14 7,8 C 11,7 C 8,3 C 96 % 1014,9 hPa 0,0 l/m 19,9 km/h (4 Bft) W-SW 258 0 min 0,000 mm 0,0 UV-I 64 W/m 7,2 C 0,5 C 27,4 km/h (4 Bft) 90,00 %
30.04.2019 14:16 7,8 C 11,7 C 8,3 C 96 % 1014,9 hPa 0,0 l/m 19,8 km/h (3 Bft) W 278 0 min 0,000 mm 0,0 UV-I 54 W/m 7,2 C 0,5 C 30,6 km/h (5 Bft) 95,74 %
30.04.2019 14:18 7,8 C 11,7 C 8,3 C 96 % 1014,9 hPa 0,2 l/m 18,7 km/h (3 Bft) W 265 0 min 0,000 mm 0,0 UV-I 61 W/m 7,2 C 0,9 C 25,7 km/h (4 Bft) 96,23 %
30.04.2019 14:20 7,7 C 11,7 C 8,3 C 96 % 1014,8 hPa 0,0 l/m 20,6 km/h (4 Bft) W-SW 242 0 min 0,000 mm 0,0 UV-I 55 W/m 7,1 C 0,1 C 37,0 km/h (5 Bft) 97,44 %
30.04.2019 14:22 7,7 C 11,7 C 7,8 C 96 % 1014,9 hPa 0,0 l/m 26,8 km/h (4 Bft) SW 220 0 min 0,000 mm 0,0 UV-I 53 W/m 7,1 C -1,8 C 38,6 km/h (5 Bft) 95,74 %
30.04.2019 14:24 7,7 C 11,7 C 7,8 C 95 % 1014,9 hPa 0,0 l/m 21,5 km/h (4 Bft) W-NW 294 0 min 0,000 mm 0,0 UV-I 59 W/m 7,0 C -0,2 C 35,4 km/h (5 Bft) 98,21 %
30.04.2019 14:26 7,7 C 11,7 C 7,8 C 95 % 1015,0 hPa 0,0 l/m 19,2 km/h (3 Bft) W-SW 255 0 min 0,000 mm 0,0 UV-I 51 W/m 7,0 C 0,6 C 25,7 km/h (4 Bft) 97,87 %
30.04.2019 14:28 7,7 C 11,7 C 7,8 C 95 % 1014,9 hPa 0,0 l/m 23,8 km/h (4 Bft) SW 231 0 min 0,000 mm 0,0 UV-I 49 W/m 7,0 C -0,9 C 35,4 km/h (5 Bft) 97,37 %
30.04.2019 14:30 7,7 C 11,7 C 7,8 C 95 % 1014,9 hPa 0,0 l/m 22,5 km/h (4 Bft) W-SW 239 0 min 0,000 mm 0,0 UV-I 48 W/m 7,0 C -0,5 C 29,0 km/h (5 Bft) 96,23 %
30.04.2019 14:32 7,7 C 11,7 C 7,8 C 95 % 1014,9 hPa 0,0 l/m 18,9 km/h (3 Bft) W 265 0 min 0,000 mm 0,0 UV-I 46 W/m 7,0 C 0,7 C 24,1 km/h (4 Bft) 92,68 %
30.04.2019 14:34 7,7 C 11,7 C 7,8 C 95 % 1014,8 hPa 0,0 l/m 23,3 km/h (4 Bft) SW 231 0 min 0,000 mm 0,0 UV-I 43 W/m 7,0 C -0,8 C 37,0 km/h (5 Bft) 97,73 %
30.04.2019 14:36 7,7 C 11,7 C 7,8 C 95 % 1014,8 hPa 0,0 l/m 22,0 km/h (4 Bft) SW 236 0 min 0,000 mm 0,0 UV-I 46 W/m 7,0 C -0,4 C 38,6 km/h (5 Bft) 97,73 %
30.04.2019 14:38 7,7 C 11,7 C 7,8 C 95 % 1014,8 hPa 0,0 l/m 22,9 km/h (4 Bft) W-NW 286 0 min 0,000 mm 0,0 UV-I 40 W/m 7,0 C -0,7 C 33,8 km/h (5 Bft) 95,16 %
30.04.2019 14:40 7,7 C 11,7 C 7,8 C 95 % 1014,8 hPa 0,0 l/m 21,2 km/h (4 Bft) SW 226 0 min 0,000 mm 0,0 UV-I 32 W/m 7,0 C -0,1 C 37,0 km/h (5 Bft) 100,00 %
30.04.2019 14:42 7,7 C 11,7 C 7,8 C 95 % 1014,8 hPa 0,2 l/m 23,1 km/h (4 Bft) S-SW 211 0 min 0,000 mm 0,0 UV-I 28 W/m 7,0 C -0,7 C 29,0 km/h (5 Bft) 96,00 %
30.04.2019 14:44 7,7 C 11,7 C 7,8 C 95 % 1014,8 hPa 0,0 l/m 20,4 km/h (4 Bft) SW 225 0 min 0,000 mm 0,0 UV-I 33 W/m 7,0 C 0,2 C 35,4 km/h (5 Bft) 98,11 %
30.04.2019 14:46 7,7 C 11,7 C 7,8 C 95 % 1014,8 hPa 0,0 l/m 21,0 km/h (4 Bft) SW 226 0 min 0,000 mm 0,0 UV-I 35 W/m 7,0 C -0,0 C 32,2 km/h (5 Bft) 97,14 %
30.04.2019 14:48 7,7 C 11,7 C 7,8 C 95 % 1014,9 hPa 0,0 l/m 23,7 km/h (4 Bft) SW 223 0 min 0,000 mm 0,0 UV-I 35 W/m 7,0 C -0,9 C 33,8 km/h (5 Bft) 98,31 %
30.04.2019 14:50 7,7 C 11,7 C 7,8 C 95 % 1014,9 hPa 0,0 l/m 19,4 km/h (3 Bft) W 269 0 min 0,000 mm 0,0 UV-I 39 W/m 7,0 C 0,5 C 29,0 km/h (5 Bft) 97,56 %
30.04.2019 14:52 7,7 C 11,7 C 7,8 C 95 % 1014,8 hPa 0,0 l/m 16,2 km/h (3 Bft) W 259 0 min 0,000 mm 0,0 UV-I 42 W/m 7,0 C 1,8 C 22,5 km/h (4 Bft) 96,00 %
30.04.2019 14:54 7,7 C 11,7 C 7,8 C 95 % 1014,8 hPa 0,0 l/m 18,0 km/h (3 Bft) SW 214 0 min 0,000 mm 0,0 UV-I 42 W/m 7,0 C 1,1 C 22,5 km/h (4 Bft) 98,00 %
30.04.2019 14:56 7,7 C 11,7 C 7,8 C 95 % 1014,8 hPa 0,0 l/m 19,5 km/h (3 Bft) W-SW 239 0 min 0,000 mm 0,0 UV-I 45 W/m 7,0 C 0,5 C 33,8 km/h (5 Bft) 97,44 %
30.04.2019 14:58 7,7 C 11,7 C 7,8 C 95 % 1014,8 hPa 0,0 l/m 19,3 km/h (3 Bft) W-SW 237 0 min 0,000 mm 0,0 UV-I 41 W/m 7,0 C 0,6 C 29,0 km/h (5 Bft) 98,18 %
30.04.2019 15:00 7,7 C 11,7 C 7,8 C 95 % 1014,9 hPa 0,0 l/m 21,0 km/h (4 Bft) W-SW 240 0 min 0,000 mm 0,0 UV-I 36 W/m 7,0 C -0,0 C 32,2 km/h (5 Bft) 97,62 %
30.04.2019 15:02 7,8 C 11,7 C 7,8 C 95 % 1014,8 hPa 0,0 l/m 15,8 km/h (3 Bft) W-SW 243 0 min 0,025 mm 0,0 UV-I 34 W/m 7,0 C 2,1 C 29,0 km/h (5 Bft) 96,23 %
30.04.2019 15:04 7,8 C 11,7 C 7,8 C 95 % 1014,8 hPa 0,0 l/m 17,2 km/h (3 Bft) W-SW 257 0 min 0,000 mm 0,0 UV-I 38 W/m 7,0 C 1,5 C 27,4 km/h (4 Bft) 100,00 %
30.04.2019 15:06 7,8 C 11,7 C 7,8 C 95 % 1014,8 hPa 0,0 l/m 16,6 km/h (3 Bft) W 267 0 min 0,000 mm 0,0 UV-I 39 W/m 7,0 C 1,8 C 30,6 km/h (5 Bft) 96,00 %
30.04.2019 15:08 7,8 C 11,7 C 7,8 C 95 % 1014,9 hPa 0,0 l/m 19,0 km/h (3 Bft) W-SW 254 0 min 0,000 mm 0,0 UV-I 40 W/m 7,0 C 0,8 C 30,6 km/h (5 Bft) 94,00 %
30.04.2019 15:10 7,8 C 11,7 C 7,8 C 95 % 1014,9 hPa 0,0 l/m 19,8 km/h (3 Bft) W-SW 249 0 min 0,000 mm 0,0 UV-I 47 W/m 7,0 C 0,5 C 32,2 km/h (5 Bft) 98,11 %
30.04.2019 15:12 7,8 C 11,7 C 7,8 C 95 % 1014,8 hPa 0,0 l/m 21,3 km/h (4 Bft) W 263 0 min 0,000 mm 0,0 UV-I 58 W/m 7,0 C -0,0 C 30,6 km/h (5 Bft) 100,00 %
30.04.2019 15:14 7,8 C 11,7 C 8,3 C 95 % 1014,8 hPa 0,0 l/m 23,2 km/h (4 Bft) W 266 0 min 0,000 mm 0,0 UV-I 64 W/m 7,0 C -0,6 C 32,2 km/h (5 Bft) 97,14 %
30.04.2019 15:16 7,8 C 11,7 C 8,3 C 95 % 1014,9 hPa 0,0 l/m 21,4 km/h (4 Bft) W-SW 245 0 min 0,000 mm 0,0 UV-I 61 W/m 7,0 C -0,0 C 32,2 km/h (5 Bft) 98,21 %
30.04.2019 15:18 7,9 C 11,7 C 8,3 C 95 % 1014,8 hPa 0,2 l/m 18,0 km/h (3 Bft) W-SW 240 0 min 0,000 mm 0,0 UV-I 61 W/m 7,1 C 1,3 C 27,4 km/h (4 Bft) 94,00 %
30.04.2019 15:20 7,9 C 11,7 C 8,3 C 95 % 1014,8 hPa 0,0 l/m 20,5 km/h (4 Bft) W-SW 245 0 min 0,000 mm 0,0 UV-I 56 W/m 7,1 C 0,4 C 33,8 km/h (5 Bft) 97,56 %
30.04.2019 15:22 7,9 C 11,7 C 8,3 C 95 % 1014,8 hPa 0,0 l/m 16,5 km/h (3 Bft) SW 236 0 min 0,000 mm 0,0 UV-I 52 W/m 7,1 C 1,9 C 25,7 km/h (4 Bft) 96,00 %
30.04.2019 15:24 7,9 C 11,7 C 8,3 C 95 % 1014,8 hPa 0,0 l/m 18,6 km/h (3 Bft) S-SW 209 0 min 0,000 mm 0,0 UV-I 47 W/m 7,1 C 1,1 C 25,7 km/h (4 Bft) 98,00 %
30.04.2019 15:26 7,9 C 11,7 C 8,3 C 95 % 1014,9 hPa 0,0 l/m 21,8 km/h (4 Bft) SW 232 0 min 0,000 mm 0,0 UV-I 42 W/m 7,1 C -0,0 C 30,6 km/h (5 Bft) 91,49 %
30.04.2019 15:28 8,0 C 11,7 C 8,3 C 95 % 1014,8 hPa 0,0 l/m 19,0 km/h (3 Bft) W-SW 240 0 min 0,000 mm 0,0 UV-I 39 W/m 7,2 C 1,1 C 30,6 km/h (5 Bft) 91,49 %
30.04.2019 15:30 8,0 C 11,7 C 8,3 C 95 % 1014,8 hPa 0,0 l/m 18,5 km/h (3 Bft) W-SW 240 0 min 0,000 mm 0,0 UV-I 40 W/m 7,2 C 1,3 C 27,4 km/h (4 Bft) 97,37 %
30.04.2019 15:32 8,0 C 11,7 C 7,8 C 95 % 1014,9 hPa 0,0 l/m 20,0 km/h (4 Bft) SW 231 0 min 0,000 mm 0,0 UV-I 43 W/m 7,2 C 0,7 C 27,4 km/h (4 Bft) 93,62 %
30.04.2019 15:34 8,0 C 11,7 C 8,3 C 95 % 1014,9 hPa 0,2 l/m 20,8 km/h (4 Bft) SW 228 0 min 0,000 mm 0,0 UV-I 51 W/m 7,2 C 0,4 C 29,0 km/h (5 Bft) 95,83 %
30.04.2019 15:36 8,0 C 11,7 C 8,3 C 95 % 1014,8 hPa 0,0 l/m 21,3 km/h (4 Bft) SW 231 0 min 0,000 mm 0,0 UV-I 51 W/m 7,2 C 0,3 C 29,0 km/h (5 Bft) 93,62 %
30.04.2019 15:38 8,1 C 11,7 C 8,3 C 95 % 1014,8 hPa 0,0 l/m 14,5 km/h (3 Bft) SW 225 0 min 0,000 mm 0,0 UV-I 42 W/m 7,3 C 3,1 C 25,7 km/h (4 Bft) 94,34 %
30.04.2019 15:40 8,1 C 11,7 C 8,3 C 95 % 1014,9 hPa 0,0 l/m 12,2 km/h (2 Bft) SW 229 0 min 0,000 mm 0,0 UV-I 39 W/m 7,3 C 4,2 C 19,3 km/h (3 Bft) 97,87 %
30.04.2019 15:42 8,1 C 11,7 C 8,3 C 95 % 1014,8 hPa 0,0 l/m 14,8 km/h (3 Bft) S-SW 202 0 min 0,000 mm 0,0 UV-I 41 W/m 7,3 C 2,9 C 20,9 km/h (4 Bft) 97,37 %
30.04.2019 15:44 8,1 C 11,7 C 8,3 C 95 % 1014,8 hPa 0,0 l/m 20,0 km/h (4 Bft) W-SW 237 0 min 0,000 mm 0,0 UV-I 45 W/m 7,3 C 0,8 C 25,7 km/h (4 Bft) 98,00 %
30.04.2019 15:46 8,1 C 11,7 C 8,3 C 95 % 1014,8 hPa 0,0 l/m 18,4 km/h (3 Bft) W-SW 240 0 min 0,000 mm 0,0 UV-I 51 W/m 7,3 C 1,4 C 25,7 km/h (4 Bft) 94,29 %
30.04.2019 15:48 8,1 C 11,7 C 8,3 C 95 % 1014,8 hPa 0,0 l/m 14,6 km/h (3 Bft) W-SW 238 0 min 0,000 mm 0,0 UV-I 64 W/m 7,3 C 3,0 C 25,7 km/h (4 Bft) 98,46 %
30.04.2019 15:50 8,2 C 11,7 C 8,3 C 95 % 1014,7 hPa 0,2 l/m 16,1 km/h (3 Bft) SW 215 0 min 0,000 mm 0,0 UV-I 74 W/m 7,4 C 2,5 C 29,0 km/h (5 Bft) 97,14 %
30.04.2019 15:52 8,2 C 11,7 C 8,3 C 95 % 1014,8 hPa 0,0 l/m 18,1 km/h (3 Bft) W 270 0 min 0,000 mm 0,0 UV-I 83 W/m 7,4 C 1,7 C 29,0 km/h (5 Bft) 98,11 %
30.04.2019 15:54 8,2 C 11,7 C 8,3 C 95 % 1014,8 hPa 0,0 l/m 16,4 km/h (3 Bft) W-SW 239 0 min 0,000 mm 0,0 UV-I 86 W/m 7,4 C 2,3 C 25,7 km/h (4 Bft) 98,00 %
30.04.2019 15:56 8,2 C 11,7 C 8,3 C 95 % 1014,7 hPa 0,0 l/m 16,3 km/h (3 Bft) W-SW 251 0 min 0,000 mm 0,0 UV-I 85 W/m 7,4 C 2,4 C 24,1 km/h (4 Bft) 96,00 %
30.04.2019 15:58 8,2 C 11,7 C 8,3 C 95 % 1014,7 hPa 0,0 l/m 16,8 km/h (3 Bft) W-SW 241 0 min 0,000 mm 0,0 UV-I 78 W/m 7,4 C 2,2 C 25,7 km/h (4 Bft) 97,87 %
30.04.2019 16:00 8,2 C 11,7 C 8,3 C 95 % 1014,7 hPa 0,0 l/m 21,3 km/h (4 Bft) W-SW 238 0 min 0,026 mm 0,0 UV-I 68 W/m 7,4 C 0,5 C 32,2 km/h (5 Bft) 95,12 %
30.04.2019 16:02 8,3 C 11,7 C 8,3 C 95 % 1014,6 hPa 0,0 l/m 20,6 km/h (4 Bft) SW 226 0 min 0,000 mm 0,0 UV-I 76 W/m 7,5 C 0,9 C 32,2 km/h (5 Bft) 100,00 %
30.04.2019 16:04 8,3 C 11,7 C 8,9 C 95 % 1014,6 hPa 0,0 l/m 19,3 km/h (3 Bft) W-SW 257 0 min 0,000 mm 0,2 UV-I 102 W/m 7,5 C 1,3 C 30,6 km/h (5 Bft) 97,87 %
30.04.2019 16:06 8,3 C 11,7 C 8,9 C 95 % 1014,6 hPa 0,0 l/m 17,8 km/h (3 Bft) SW 232 0 min 0,000 mm 0,5 UV-I 115 W/m 7,5 C 1,9 C 29,0 km/h (5 Bft) 100,00 %
30.04.2019 16:08 8,3 C 11,7 C 9,4 C 94 % 1014,6 hPa 0,0 l/m 21,3 km/h (4 Bft) SW 231 0 min 0,000 mm 0,6 UV-I 126 W/m 7,4 C 0,7 C 32,2 km/h (5 Bft) 100,00 %
30.04.2019 16:10 8,3 C 11,7 C 9,4 C 94 % 1014,6 hPa 0,0 l/m 19,9 km/h (4 Bft) W-SW 247 0 min 0,000 mm 0,7 UV-I 146 W/m 7,4 C 1,1 C 32,2 km/h (5 Bft) 100,00 %
30.04.2019 16:12 8,4 C 11,7 C 10,0 C 94 % 1014,5 hPa 0,0 l/m 16,5 km/h (3 Bft) SW 228 0 min 0,000 mm 0,9 UV-I 201 W/m 7,5 C 2,5 C 27,4 km/h (4 Bft) 97,44 %
30.04.2019 16:14 8,5 C 11,7 C 10,6 C 94 % 1014,5 hPa 0,0 l/m 19,3 km/h (3 Bft) SW 217 0 min 0,000 mm 1,1 UV-I 258 W/m 7,6 C 1,6 C 25,7 km/h (4 Bft) 100,00 %
30.04.2019 16:16 8,6 C 11,7 C 11,1 C 95 % 1014,5 hPa 0,0 l/m 18,5 km/h (3 Bft) W-SW 239 0 min 0,000 mm 1,2 UV-I 291 W/m 7,8 C 2,0 C 33,8 km/h (5 Bft) 100,00 %
30.04.2019 16:18 8,7 C 11,7 C 12,8 C 95 % 1014,5 hPa 0,0 l/m 18,0 km/h (3 Bft) W-SW 242 2 min 0,000 mm 1,3 UV-I 366 W/m 7,9 C 2,3 C 27,4 km/h (4 Bft) 100,00 %
30.04.2019 16:20 8,9 C 11,7 C 13,3 C 95 % 1014,5 hPa 0,0 l/m 23,2 km/h (4 Bft) SW 219 2 min 0,000 mm 1,3 UV-I 439 W/m 8,1 C 0,9 C 38,6 km/h (5 Bft) 100,00 %
30.04.2019 16:22 9,0 C 11,7 C 13,9 C 95 % 1014,5 hPa 0,0 l/m 16,5 km/h (3 Bft) S-SW 197 2 min 0,000 mm 1,2 UV-I 382 W/m 8,2 C 3,3 C 24,1 km/h (4 Bft) 100,00 %
30.04.2019 16:24 9,1 C 11,7 C 13,9 C 94 % 1014,4 hPa 0,0 l/m 19,6 km/h (3 Bft) SW 224 2 min 0,000 mm 1,2 UV-I 346 W/m 8,2 C 2,3 C 33,8 km/h (5 Bft) 96,00 %
30.04.2019 16:26 9,2 C 11,7 C 13,3 C 94 % 1014,4 hPa 0,0 l/m 19,2 km/h (3 Bft) W-SW 244 2 min 0,000 mm 1,2 UV-I 349 W/m 8,3 C 2,5 C 33,8 km/h (5 Bft) 100,00 %
30.04.2019 16:28 9,3 C 11,7 C 14,4 C 94 % 1014,5 hPa 0,0 l/m 17,1 km/h (3 Bft) W-SW 243 2 min 0,000 mm 1,3 UV-I 438 W/m 8,4 C 3,4 C 24,1 km/h (4 Bft) 98,11 %
30.04.2019 16:30 9,4 C 11,7 C 15,6 C 94 % 1014,4 hPa 0,0 l/m 16,9 km/h (3 Bft) SW 230 2 min 0,000 mm 1,3 UV-I 481 W/m 8,5 C 3,6 C 24,1 km/h (4 Bft) 100,00 %
30.04.2019 16:32 9,6 C 11,7 C 15,6 C 94 % 1014,4 hPa 0,0 l/m 18,7 km/h (3 Bft) SW 225 2 min 0,000 mm 1,2 UV-I 442 W/m 8,7 C 3,2 C 29,0 km/h (5 Bft) 100,00 %
30.04.2019 16:34 9,7 C 11,7 C 14,4 C 93 % 1014,4 hPa 0,0 l/m 19,6 km/h (3 Bft) S-SW 192 0 min 0,000 mm 1,1 UV-I 307 W/m 8,6 C 3,0 C 32,2 km/h (5 Bft) 100,00 %
30.04.2019 16:36 9,6 C 11,7 C 12,8 C 93 % 1014,4 hPa 0,0 l/m 23,9 km/h (4 Bft) W-SW 238 0 min 0,000 mm 0,9 UV-I 266 W/m 8,5 C 1,6 C 33,8 km/h (5 Bft) 100,00 %
30.04.2019 16:38 9,4 C 11,7 C 12,2 C 92 % 1014,4 hPa 0,0 l/m 23,9 km/h (4 Bft) W-SW 246 0 min 0,000 mm 0,9 UV-I 240 W/m 8,2 C 1,3 C 33,8 km/h (5 Bft) 97,37 %
30.04.2019 16:40 9,4 C 11,7 C 12,2 C 92 % 1014,4 hPa 0,0 l/m 18,5 km/h (3 Bft) SW 229 0 min 0,000 mm 0,8 UV-I 223 W/m 8,2 C 3,0 C 29,0 km/h (5 Bft) 98,21 %
30.04.2019 16:42 9,4 C 11,7 C 12,2 C 92 % 1014,4 hPa 0,0 l/m 22,3 km/h (4 Bft) S-SW 198 0 min 0,000 mm 0,8 UV-I 220 W/m 8,2 C 1,8 C 33,8 km/h (5 Bft) 97,73 %
30.04.2019 16:44 9,4 C 11,7 C 11,7 C 92 % 1014,4 hPa 0,0 l/m 21,9 km/h (4 Bft) S-SW 213 0 min 0,000 mm 0,8 UV-I 219 W/m 8,2 C 1,9 C 32,2 km/h (5 Bft) 97,56 %
30.04.2019 16:46 9,3 C 11,7 C 11,7 C 92 % 1014,4 hPa 0,0 l/m 23,6 km/h (4 Bft) W-SW 238 0 min 0,000 mm 0,8 UV-I 219 W/m 8,1 C 1,3 C 33,8 km/h (5 Bft) 98,31 %
30.04.2019 16:48 9,3 C 11,7 C 11,7 C 92 % 1014,3 hPa 0,0 l/m 19,2 km/h (3 Bft) SW 230 0 min 0,000 mm 0,9 UV-I 225 W/m 8,1 C 2,7 C 29,0 km/h (5 Bft) 97,44 %
30.04.2019 16:50 9,4 C 11,7 C 11,7 C 92 % 1014,4 hPa 0,0 l/m 18,6 km/h (3 Bft) SW 219 0 min 0,000 mm 0,9 UV-I 243 W/m 8,2 C 3,0 C 25,7 km/h (4 Bft) 97,96 %
30.04.2019 16:52 9,4 C 11,7 C 12,2 C 92 % 1014,4 hPa 0,0 l/m 16,6 km/h (3 Bft) W-SW 244 0 min 0,000 mm 0,9 UV-I 282 W/m 8,2 C 3,7 C 29,0 km/h (5 Bft) 96,00 %
30.04.2019 16:54 9,4 C 11,7 C 12,2 C 92 % 1014,4 hPa 0,0 l/m 19,5 km/h (3 Bft) SW 235 0 min 0,000 mm 0,9 UV-I 277 W/m 8,2 C 2,7 C 32,2 km/h (5 Bft) 97,44 %
30.04.2019 16:56 9,5 C 11,7 C 12,2 C 92 % 1014,4 hPa 0,0 l/m 20,1 km/h (4 Bft) SW 228 0 min 0,000 mm 0,9 UV-I 286 W/m 8,3 C 2,6 C 35,4 km/h (5 Bft) 95,74 %
30.04.2019 16:58 9,6 C 11,7 C 12,2 C 92 % 1014,4 hPa 0,0 l/m 19,8 km/h (3 Bft) W-SW 248 0 min 0,000 mm 0,9 UV-I 278 W/m 8,4 C 2,8 C 32,2 km/h (5 Bft) 97,14 %
30.04.2019 17:00 9,7 C 11,7 C 12,2 C 93 % 1014,4 hPa 0,0 l/m 16,9 km/h (3 Bft) S-SW 212 0 min 0,127 mm 0,9 UV-I 275 W/m 8,6 C 4,0 C 25,7 km/h (4 Bft) 98,53 %
30.04.2019 17:02 9,7 C 11,7 C 12,8 C 93 % 1014,4 hPa 0,0 l/m 17,5 km/h (3 Bft) W 260 2 min 0,000 mm 0,9 UV-I 283 W/m 8,6 C 3,8 C 30,6 km/h (5 Bft) 97,37 %
30.04.2019 17:04 9,8 C 11,7 C 13,3 C 93 % 1014,4 hPa 0,0 l/m 20,0 km/h (4 Bft) S-SW 198 2 min 0,000 mm 1,0 UV-I 354 W/m 8,7 C 3,0 C 24,1 km/h (4 Bft) 100,00 %
30.04.2019 17:06 10,0 C 11,7 C 14,4 C 93 % 1014,5 hPa 0,0 l/m 19,9 km/h (4 Bft) SW 229 2 min 0,000 mm 1,0 UV-I 520 W/m 8,9 C 3,3 C 32,2 km/h (5 Bft) 100,00 %
30.04.2019 17:09 10,2 C 11,7 C 15,6 C 92 % 1014,5 hPa 0,0 l/m 23,8 km/h (4 Bft) S 190 3 min 0,000 mm 1,0 UV-I 534 W/m 9,0 C 2,4 C 35,4 km/h (5 Bft) 98,59 %
30.04.2019 17:10 10,3 C 11,7 C 16,1 C 92 % 1014,5 hPa 0,0 l/m 18,4 km/h (3 Bft) W-SW 237 1 min 0,000 mm 0,9 UV-I 508 W/m 9,1 C 4,2 C 22,5 km/h (4 Bft) 100,00 %
30.04.2019 17:12 10,5 C 11,7 C 15,6 C 92 % 1014,4 hPa 0,0 l/m 17,8 km/h (3 Bft) W 260 2 min 0,000 mm 0,8 UV-I 433 W/m 9,3 C 4,7 C 29,0 km/h (5 Bft) 100,00 %
30.04.2019 17:14 10,5 C 11,7 C 14,4 C 92 % 1014,4 hPa 0,0 l/m 19,0 km/h (3 Bft) SW 227 2 min 0,000 mm 0,7 UV-I 292 W/m 9,3 C 4,3 C 30,6 km/h (5 Bft) 98,00 %
30.04.2019 17:16 10,4 C 11,7 C 13,9 C 91 % 1014,3 hPa 0,0 l/m 21,5 km/h (4 Bft) W-SW 245 2 min 0,000 mm 0,7 UV-I 339 W/m 9,0 C 3,3 C 35,4 km/h (5 Bft) 100,00 %
30.04.2019 17:18 10,4 C 11,7 C 13,9 C 91 % 1014,3 hPa 0,0 l/m 21,1 km/h (4 Bft) SW 234 2 min 0,000 mm 0,7 UV-I 296 W/m 9,0 C 3,5 C 37,0 km/h (5 Bft) 100,00 %
30.04.2019 17:20 10,5 C 11,7 C 13,9 C 91 % 1014,3 hPa 0,0 l/m 23,6 km/h (4 Bft) W-SW 237 2 min 0,000 mm 0,7 UV-I 346 W/m 9,1 C 2,9 C 35,4 km/h (5 Bft) 93,62 %
30.04.2019 17:22 10,5 C 11,7 C 13,9 C 91 % 1014,3 hPa 0,0 l/m 23,6 km/h (4 Bft) SW 234 2 min 0,000 mm 0,7 UV-I 310 W/m 9,1 C 2,9 C 33,8 km/h (5 Bft) 100,00 %
30.04.2019 17:24 10,5 C 11,7 C 13,9 C 90 % 1014,3 hPa 0,0 l/m 19,7 km/h (3 Bft) W-SW 244 2 min 0,000 mm 0,7 UV-I 313 W/m 8,9 C 4,0 C 27,4 km/h (4 Bft) 100,00 %
30.04.2019 17:26 10,6 C 11,7 C 13,9 C 90 % 1014,3 hPa 0,0 l/m 18,7 km/h (3 Bft) W-SW 242 2 min 0,000 mm 0,7 UV-I 305 W/m 9,0 C 4,5 C 38,6 km/h (5 Bft) 98,00 %
30.04.2019 17:28 10,6 C 11,7 C 13,9 C 91 % 1014,2 hPa 0,0 l/m 23,3 km/h (4 Bft) W-SW 245 2 min 0,000 mm 0,7 UV-I 323 W/m 9,2 C 3,1 C 33,8 km/h (5 Bft) 98,04 %
30.04.2019 17:30 10,6 C 11,7 C 14,4 C 90 % 1014,1 hPa 0,0 l/m 21,6 km/h (4 Bft) SW 236 2 min 0,000 mm 0,6 UV-I 291 W/m 9,0 C 3,6 C 35,4 km/h (5 Bft) 97,56 %
30.04.2019 17:32 10,7 C 11,7 C 13,9 C 90 % 1014,1 hPa 0,0 l/m 23,3 km/h (4 Bft) W-SW 241 2 min 0,000 mm 0,5 UV-I 287 W/m 9,1 C 3,2 C 37,0 km/h (5 Bft) 98,00 %
30.04.2019 17:34 10,6 C 11,7 C 13,3 C 90 % 1014,1 hPa 0,0 l/m 19,8 km/h (3 Bft) SW 227 0 min 0,000 mm 0,5 UV-I 201 W/m 9,0 C 4,1 C 35,4 km/h (5 Bft) 97,87 %
30.04.2019 17:36 10,6 C 11,7 C 12,8 C 90 % 1014,0 hPa 0,0 l/m 18,7 km/h (3 Bft) W 259 0 min 0,000 mm 0,5 UV-I 188 W/m 9,0 C 4,5 C 30,6 km/h (5 Bft) 98,00 %
30.04.2019 17:38 10,6 C 11,7 C 12,2 C 90 % 1014,0 hPa 0,0 l/m 21,2 km/h (4 Bft) SW 236 0 min 0,000 mm 0,5 UV-I 196 W/m 9,0 C 3,7 C 33,8 km/h (5 Bft) 97,14 %
30.04.2019 17:40 10,5 C 11,7 C 12,2 C 90 % 1014,0 hPa 0,0 l/m 22,0 km/h (4 Bft) W-SW 250 0 min 0,000 mm 0,5 UV-I 199 W/m 8,9 C 3,3 C 32,2 km/h (5 Bft) 98,11 %
30.04.2019 17:42 10,5 C 11,7 C 12,2 C 90 % 1014,1 hPa 0,0 l/m 19,3 km/h (3 Bft) SW 233 0 min 0,000 mm 0,5 UV-I 215 W/m 8,9 C 4,2 C 30,6 km/h (5 Bft) 96,23 %
30.04.2019 17:44 10,5 C 11,7 C 12,8 C 90 % 1014,0 hPa 0,0 l/m 20,4 km/h (4 Bft) SW 223 2 min 0,000 mm 0,5 UV-I 237 W/m 8,9 C 3,8 C 29,0 km/h (5 Bft) 97,37 %
30.04.2019 17:46 10,5 C 11,7 C 12,8 C 90 % 1014,0 hPa 0,0 l/m 17,4 km/h (3 Bft) W-SW 240 2 min 0,000 mm 0,5 UV-I 260 W/m 8,9 C 4,8 C 27,4 km/h (4 Bft) 98,11 %
30.04.2019 17:48 10,5 C 11,7 C 13,3 C 90 % 1013,9 hPa 0,0 l/m 20,6 km/h (4 Bft) SW 229 2 min 0,000 mm 0,5 UV-I 291 W/m 8,9 C 3,7 C 33,8 km/h (5 Bft) 97,37 %
30.04.2019 17:50 10,5 C 11,7 C 13,3 C 90 % 1013,9 hPa 0,0 l/m 22,5 km/h (4 Bft) SW 214 2 min 0,000 mm 0,5 UV-I 308 W/m 8,9 C 3,2 C 37,0 km/h (5 Bft) 96,00 %
30.04.2019 17:52 10,6 C 11,7 C 13,9 C 90 % 1013,9 hPa 0,0 l/m 20,3 km/h (4 Bft) SW 235 2 min 0,000 mm 0,0 UV-I 341 W/m 9,0 C 4,0 C 29,0 km/h (5 Bft) 95,45 %
30.04.2019 17:54 10,6 C 11,7 C 14,4 C 90 % 1013,9 hPa 0,0 l/m 27,6 km/h (4 Bft) SW 222 2 min 0,000 mm 0,0 UV-I 329 W/m 9,0 C 2,0 C 37,0 km/h (5 Bft) 98,11 %
30.04.2019 17:56 10,6 C 11,7 C 14,4 C 89 % 1013,8 hPa 0,0 l/m 20,8 km/h (4 Bft) SW 216 2 min 0,000 mm 0,0 UV-I 310 W/m 8,9 C 3,8 C 30,6 km/h (5 Bft) 98,00 %
30.04.2019 17:58 10,7 C 11,7 C 15,6 C 90 % 1013,9 hPa 0,0 l/m 20,3 km/h (4 Bft) W 279 2 min 0,000 mm 0,0 UV-I 311 W/m 9,1 C 4,1 C 33,8 km/h (5 Bft) 97,37 %
30.04.2019 18:00 10,7 C 11,7 C 15,6 C 89 % 1013,8 hPa 0,0 l/m 23,5 km/h (4 Bft) S-SW 204 2 min 0,000 mm 0,0 UV-I 338 W/m 9,0 C 3,2 C 43,5 km/h (6 Bft) 96,00 %
30.04.2019 18:02 10,7 C 11,7 C 14,4 C 89 % 1013,9 hPa 0,0 l/m 25,2 km/h (4 Bft) SW 215 2 min 0,152 mm 0,0 UV-I 276 W/m 9,0 C 2,7 C 43,5 km/h (6 Bft) 98,00 %
30.04.2019 18:04 10,7 C 11,7 C 14,4 C 89 % 1013,8 hPa 0,0 l/m 20,7 km/h (4 Bft) W-SW 238 2 min 0,000 mm 0,0 UV-I 245 W/m 9,0 C 4,0 C 35,4 km/h (5 Bft) 97,73 %
30.04.2019 18:06 10,7 C 11,7 C 15,0 C 88 % 1013,9 hPa 0,0 l/m 24,5 km/h (4 Bft) S-SW 211 2 min 0,000 mm 0,0 UV-I 323 W/m 8,8 C 2,9 C 37,0 km/h (5 Bft) 98,00 %
30.04.2019 18:08 10,7 C 11,7 C 13,9 C 88 % 1013,9 hPa 0,0 l/m 22,2 km/h (4 Bft) W-SW 250 2 min 0,000 mm 0,0 UV-I 237 W/m 8,8 C 3,5 C 32,2 km/h (5 Bft) 97,62 %
30.04.2019 18:10 10,7 C 11,7 C 13,3 C 88 % 1013,9 hPa 0,0 l/m 21,2 km/h (4 Bft) W-SW 241 2 min 0,000 mm 0,0 UV-I 193 W/m 8,8 C 3,8 C 33,8 km/h (5 Bft) 95,45 %
30.04.2019 18:12 10,7 C 11,7 C 12,8 C 88 % 1013,8 hPa 0,0 l/m 24,5 km/h (4 Bft) S-SW 198 0 min 0,000 mm 0,0 UV-I 150 W/m 8,8 C 2,9 C 37,0 km/h (5 Bft) 98,00 %
30.04.2019 18:14 10,6 C 11,7 C 12,2 C 88 % 1013,8 hPa 0,0 l/m 24,0 km/h (4 Bft) S-SW 203 0 min 0,000 mm 0,0 UV-I 120 W/m 8,7 C 2,9 C 33,8 km/h (5 Bft) 94,00 %
30.04.2019 18:16 10,6 C 11,7 C 11,7 C 88 % 1013,8 hPa 0,0 l/m 25,4 km/h (4 Bft) W-SW 246 0 min 0,000 mm 0,0 UV-I 100 W/m 8,7 C 2,5 C 33,8 km/h (5 Bft) 100,00 %
30.04.2019 18:18 10,5 C 11,7 C 11,1 C 88 % 1013,9 hPa 0,0 l/m 25,5 km/h (4 Bft) W-SW 237 0 min 0,000 mm 0,0 UV-I 89 W/m 8,6 C 2,4 C 41,8 km/h (6 Bft) 96,23 %
30.04.2019 18:20 10,4 C 11,7 C 11,1 C 88 % 1013,7 hPa 0,0 l/m 22,3 km/h (4 Bft) SW 226 0 min 0,000 mm 0,0 UV-I 80 W/m 8,5 C 3,1 C 33,8 km/h (5 Bft) 96,00 %
30.04.2019 18:22 10,4 C 11,7 C 10,6 C 88 % 1013,6 hPa 0,0 l/m 23,3 km/h (4 Bft) S-SW 192 0 min 0,000 mm 0,0 UV-I 68 W/m 8,5 C 2,8 C 37,0 km/h (5 Bft) 97,56 %
30.04.2019 18:24 10,4 C 11,7 C 10,6 C 88 % 1013,5 hPa 0,0 l/m 27,0 km/h (4 Bft) S-SW 207 0 min 0,000 mm 0,0 UV-I 61 W/m 8,5 C 1,9 C 43,5 km/h (6 Bft) 98,00 %
30.04.2019 18:26 10,3 C 11,7 C 10,6 C 88 % 1013,6 hPa 0,0 l/m 20,7 km/h (4 Bft) W-SW 242 0 min 0,000 mm 0,0 UV-I 60 W/m 8,4 C 3,5 C 32,2 km/h (5 Bft) 97,87 %
30.04.2019 18:28 10,3 C 11,7 C 10,0 C 88 % 1013,5 hPa 0,0 l/m 21,1 km/h (4 Bft) S-SW 213 0 min 0,000 mm 0,0 UV-I 64 W/m 8,4 C 3,3 C 38,6 km/h (5 Bft) 100,00 %
30.04.2019 18:30 10,2 C 11,7 C 10,0 C 89 % 1013,5 hPa 0,0 l/m 21,7 km/h (4 Bft) W-SW 253 0 min 0,000 mm 0,0 UV-I 71 W/m 8,5 C 3,0 C 30,6 km/h (5 Bft) 98,11 %
30.04.2019 18:32 10,2 C 11,7 C 10,6 C 89 % 1013,6 hPa 0,0 l/m 20,9 km/h (4 Bft) SW 223 0 min 0,000 mm 0,0 UV-I 104 W/m 8,5 C 3,3 C 32,2 km/h (5 Bft) 98,00 %
30.04.2019 18:34 10,2 C 11,7 C 10,6 C 89 % 1013,7 hPa 0,0 l/m 20,0 km/h (4 Bft) SW 221 0 min 0,000 mm 0,0 UV-I 128 W/m 8,5 C 3,5 C 37,0 km/h (5 Bft) 100,00 %
30.04.2019 18:36 10,2 C 11,7 C 10,6 C 89 % 1013,8 hPa 0,0 l/m 11,0 km/h (2 Bft) W 274 0 min 0,000 mm 0,0 UV-I 91 W/m 8,5 C 7,3 C 30,6 km/h (5 Bft) 97,37 %
30.04.2019 18:38 10,3 C 11,7 C 10,6 C 89 % 1014,1 hPa 0,0 l/m 5,5 km/h (1 Bft) N-NW 329 0 min 0,000 mm 0,0 UV-I 76 W/m 8,6 C 10,3 C 14,5 km/h (3 Bft) 97,87 %
30.04.2019 18:40 10,3 C 11,7 C 10,6 C 89 % 1014,2 hPa 0,0 l/m 8,3 km/h (2 Bft) S-SO 168 0 min 0,000 mm 0,0 UV-I 43 W/m 8,6 C 9,0 C 16,1 km/h (3 Bft) 98,00 %
30.04.2019 18:42 10,3 C 11,7 C 10,0 C 89 % 1014,3 hPa 0,0 l/m 8,9 km/h (2 Bft) O 91 0 min 0,000 mm 0,0 UV-I 29 W/m 8,6 C 8,6 C 17,7 km/h (3 Bft) 96,23 %
30.04.2019 18:44 10,2 C 11,7 C 10,0 C 88 % 1014,5 hPa 0,0 l/m 24,0 km/h (4 Bft) NO 51 0 min 0,000 mm 0,0 UV-I 20 W/m 8,3 C 2,4 C 32,2 km/h (5 Bft) 97,56 %
30.04.2019 18:46 10,1 C 11,7 C 9,4 C 89 % 1014,7 hPa 0,0 l/m 29,9 km/h (5 Bft) O-NO 71 0 min 0,000 mm 0,0 UV-I 13 W/m 8,4 C 0,8 C 40,2 km/h (6 Bft) 97,62 %
30.04.2019 18:48 9,8 C 11,7 C 9,4 C 89 % 1014,7 hPa 0,0 l/m 26,6 km/h (4 Bft) O-NO 66 0 min 0,000 mm 0,0 UV-I 10 W/m 8,1 C 1,2 C 33,8 km/h (5 Bft) 98,11 %
30.04.2019 18:50 9,7 C 11,7 C 8,9 C 89 % 1015,0 hPa 0,2 l/m 26,9 km/h (4 Bft) O-NO 60 0 min 0,000 mm 0,0 UV-I 8 W/m 8,0 C 0,9 C 33,8 km/h (5 Bft) 95,74 %
30.04.2019 18:52 9,6 C 11,7 C 8,9 C 90 % 1015,2 hPa 1,0 l/m 28,6 km/h (4 Bft) O-NO 64 0 min 0,000 mm 0,0 UV-I 9 W/m 8,0 C 0,4 C 33,8 km/h (5 Bft) 98,00 %
30.04.2019 18:54 9,4 C 11,7 C 8,3 C 90 % 1015,2 hPa 1,2 l/m 19,8 km/h (3 Bft) SO 130 0 min 0,000 mm 0,0 UV-I 9 W/m 7,8 C 2,6 C 29,0 km/h (5 Bft) 97,56 %
30.04.2019 18:56 9,3 C 11,7 C 8,3 C 90 % 1015,2 hPa 0,8 l/m 21,6 km/h (4 Bft) S-SO 149 0 min 0,000 mm 0,0 UV-I 9 W/m 7,7 C 1,9 C 30,6 km/h (5 Bft) 92,68 %
30.04.2019 18:58 9,3 C 11,7 C 7,8 C 90 % 1014,9 hPa 1,0 l/m 19,8 km/h (3 Bft) SW 226 0 min 0,000 mm 0,0 UV-I 11 W/m 7,7 C 2,5 C 27,4 km/h (4 Bft) 96,43 %
30.04.2019 19:00 9,4 C 11,7 C 7,2 C 90 % 1014,9 hPa 1,4 l/m 11,4 km/h (2 Bft) S 175 0 min 0,076 mm 0,0 UV-I 14 W/m 7,8 C 6,1 C 16,1 km/h (3 Bft) 98,00 %
30.04.2019 19:02 9,2 C 11,7 C 7,2 C 89 % 1014,9 hPa 0,6 l/m 9,1 km/h (2 Bft) S-SO 166 0 min 0,000 mm 0,0 UV-I 20 W/m 7,5 C 7,3 C 14,5 km/h (3 Bft) 97,37 %
30.04.2019 19:04 9,0 C 11,7 C 7,8 C 90 % 1014,7 hPa 0,4 l/m 12,2 km/h (2 Bft) S-SW 200 0 min 0,000 mm 0,0 UV-I 29 W/m 7,4 C 5,3 C 19,3 km/h (3 Bft) 98,00 %
30.04.2019 19:06 8,9 C 11,7 C 7,8 C 91 % 1014,5 hPa 0,0 l/m 13,1 km/h (3 Bft) S-SO 165 0 min 0,000 mm 0,0 UV-I 35 W/m 7,5 C 4,7 C 30,6 km/h (5 Bft) 98,00 %
30.04.2019 19:08 8,8 C 11,7 C 7,8 C 91 % 1014,3 hPa 0,2 l/m 20,0 km/h (4 Bft) S-SO 154 0 min 0,000 mm 0,0 UV-I 40 W/m 7,4 C 1,7 C 29,0 km/h (5 Bft) 95,45 %
30.04.2019 19:10 8,8 C 11,7 C 7,8 C 92 % 1014,5 hPa 0,0 l/m 19,4 km/h (3 Bft) S-SW 204 0 min 0,000 mm 0,0 UV-I 41 W/m 7,6 C 1,9 C 27,4 km/h (4 Bft) 98,11 %
30.04.2019 19:12 8,8 C 11,7 C 7,8 C 92 % 1014,6 hPa 0,0 l/m 10,8 km/h (2 Bft) S-SW 213 0 min 0,000 mm 0,0 UV-I 37 W/m 7,6 C 5,8 C 16,1 km/h (3 Bft) 97,56 %
30.04.2019 19:14 8,8 C 11,7 C 7,8 C 92 % 1014,7 hPa 0,0 l/m 9,4 km/h (2 Bft) S 173 0 min 0,000 mm 0,0 UV-I 29 W/m 7,6 C 6,6 C 14,5 km/h (3 Bft) 97,37 %
30.04.2019 19:16 8,8 C 11,7 C 8,3 C 92 % 1014,7 hPa 0,2 l/m 6,8 km/h (2 Bft) S-SW 192 0 min 0,000 mm 0,0 UV-I 24 W/m 7,6 C 8,5 C 11,3 km/h (2 Bft) 98,21 %
30.04.2019 19:18 8,8 C 11,7 C 7,8 C 92 % 1014,8 hPa 0,0 l/m 4,5 km/h (1 Bft) S-SW 202 0 min 0,000 mm 0,0 UV-I 25 W/m 7,6 C 8,8 C 11,3 km/h (2 Bft) 97,87 %
30.04.2019 19:20 8,8 C 11,7 C 7,8 C 92 % 1014,9 hPa 0,0 l/m 2,6 km/h (1 Bft) SW 216 0 min 0,000 mm 0,0 UV-I 19 W/m 7,6 C 8,8 C 4,8 km/h (1 Bft) 93,62 %
30.04.2019 19:22 8,8 C 11,7 C 7,8 C 92 % 1015,0 hPa 0,0 l/m 1,4 km/h (1 Bft) SW 222 0 min 0,000 mm 0,0 UV-I 14 W/m 7,6 C 8,8 C 4,8 km/h (1 Bft) 98,00 %
30.04.2019 19:24 8,8 C 11,7 C 7,8 C 92 % 1014,9 hPa 0,0 l/m 5,1 km/h (1 Bft) SW 222 0 min 0,000 mm 0,0 UV-I 11 W/m 7,6 C 8,8 C 8,0 km/h (2 Bft) 97,44 %
30.04.2019 19:26 8,8 C 11,7 C 8,3 C 93 % 1014,8 hPa 0,0 l/m 4,1 km/h (1 Bft) SW 218 0 min 0,000 mm 0,0 UV-I 9 W/m 7,7 C 8,8 C 6,4 km/h (2 Bft) 93,62 %
30.04.2019 19:28 8,9 C 11,7 C 8,3 C 93 % 1014,9 hPa 0,0 l/m 3,7 km/h (1 Bft) SW 227 0 min 0,000 mm 0,0 UV-I 9 W/m 7,8 C 8,9 C 6,4 km/h (2 Bft) 92,45 %
30.04.2019 19:30 8,9 C 11,7 C 8,3 C 93 % 1015,0 hPa 0,0 l/m 2,9 km/h (1 Bft) SW 227 0 min 0,000 mm 0,0 UV-I 8 W/m 7,8 C 8,9 C 6,4 km/h (2 Bft) 96,00 %
30.04.2019 19:32 8,9 C 11,7 C 8,3 C 92 % 1015,0 hPa 0,0 l/m 6,6 km/h (2 Bft) SW 223 0 min 0,000 mm 0,0 UV-I 8 W/m 7,7 C 8,8 C 9,7 km/h (2 Bft) 93,62 %
30.04.2019 19:34 8,9 C 11,7 C 8,3 C 92 % 1015,0 hPa 0,0 l/m 7,3 km/h (2 Bft) W-SW 242 0 min 0,000 mm 0,0 UV-I 9 W/m 7,7 C 8,2 C 9,7 km/h (2 Bft) 89,47 %
30.04.2019 19:36 9,0 C 11,7 C 8,3 C 92 % 1014,9 hPa 0,0 l/m 14,0 km/h (3 Bft) SW 227 0 min 0,000 mm 0,0 UV-I 11 W/m 7,8 C 4,4 C 22,5 km/h (4 Bft) 92,00 %
30.04.2019 19:38 9,1 C 11,7 C 8,3 C 92 % 1015,0 hPa 0,2 l/m 20,4 km/h (4 Bft) W-SW 250 0 min 0,000 mm 0,0 UV-I 11 W/m 7,9 C 2,0 C 30,6 km/h (5 Bft) 90,00 %
30.04.2019 19:40 9,2 C 11,7 C 8,3 C 92 % 1014,9 hPa 0,0 l/m 21,5 km/h (4 Bft) W-SW 239 0 min 0,000 mm 0,0 UV-I 11 W/m 8,0 C 1,8 C 30,6 km/h (5 Bft) 96,15 %
30.04.2019 19:42 9,2 C 11,7 C 8,3 C 92 % 1015,0 hPa 0,0 l/m 21,8 km/h (4 Bft) W-SW 252 0 min 0,000 mm 0,0 UV-I 11 W/m 8,0 C 1,7 C 27,4 km/h (4 Bft) 91,18 %
30.04.2019 19:44 9,3 C 11,7 C 8,3 C 92 % 1015,0 hPa 0,0 l/m 17,1 km/h (3 Bft) S-SW 207 0 min 0,000 mm 0,0 UV-I 11 W/m 8,1 C 3,4 C 25,7 km/h (4 Bft) 92,11 %
30.04.2019 19:46 9,2 C 11,7 C 8,3 C 91 % 1015,0 hPa 0,0 l/m 17,0 km/h (3 Bft) SW 229 0 min 0,000 mm 0,0 UV-I 11 W/m 7,8 C 3,3 C 27,4 km/h (4 Bft) 92,00 %
30.04.2019 19:48 9,2 C 11,7 C 8,3 C 91 % 1014,9 hPa 0,0 l/m 17,1 km/h (3 Bft) SW 232 0 min 0,000 mm 0,0 UV-I 11 W/m 7,8 C 3,3 C 27,4 km/h (4 Bft) 92,00 %
30.04.2019 19:50 9,1 C 11,7 C 7,8 C 91 % 1015,0 hPa 0,2 l/m 16,2 km/h (3 Bft) SW 227 0 min 0,000 mm 0,0 UV-I 11 W/m 7,7 C 3,5 C 22,5 km/h (4 Bft) 93,62 %
30.04.2019 19:52 9,1 C 11,7 C 7,8 C 92 % 1014,9 hPa 0,0 l/m 16,5 km/h (3 Bft) SW 232 0 min 0,000 mm 0,0 UV-I 11 W/m 7,9 C 3,4 C 25,7 km/h (4 Bft) 93,62 %
30.04.2019 19:54 8,9 C 11,7 C 7,8 C 92 % 1014,9 hPa 0,0 l/m 14,9 km/h (3 Bft) S-SW 212 0 min 0,000 mm 0,0 UV-I 11 W/m 7,7 C 3,8 C 22,5 km/h (4 Bft) 95,74 %
30.04.2019 19:56 8,9 C 11,7 C 7,8 C 92 % 1014,8 hPa 0,0 l/m 16,8 km/h (3 Bft) W-SW 254 0 min 0,000 mm 0,0 UV-I 11 W/m 7,7 C 3,0 C 24,1 km/h (4 Bft) 96,00 %
30.04.2019 19:58 8,9 C 11,7 C 7,8 C 92 % 1014,9 hPa 0,0 l/m 17,5 km/h (3 Bft) SW 231 0 min 0,000 mm 0,0 UV-I 11 W/m 7,7 C 2,8 C 24,1 km/h (4 Bft) 97,37 %
30.04.2019 20:00 8,8 C 11,7 C 7,8 C 92 % 1015,0 hPa 0,0 l/m 16,6 km/h (3 Bft) SW 217 0 min 0,026 mm 0,0 UV-I 10 W/m 7,6 C 3,0 C 25,7 km/h (4 Bft) 96,00 %
30.04.2019 20:02 8,9 C 11,7 C 7,8 C 92 % 1015,0 hPa 0,0 l/m 16,9 km/h (3 Bft) S-SW 205 0 min 0,000 mm 0,0 UV-I 9 W/m 7,7 C 3,0 C 27,4 km/h (4 Bft) 100,00 %
30.04.2019 20:04 8,8 C 11,7 C 7,8 C 92 % 1015,0 hPa 0,0 l/m 19,1 km/h (3 Bft) SW 229 2 min 0,000 mm 0,0 UV-I 9 W/m 7,6 C 2,1 C 27,4 km/h (4 Bft) 96,43 %
30.04.2019 20:06 8,8 C 11,7 C 7,8 C 92 % 1015,0 hPa 0,0 l/m 17,4 km/h (3 Bft) S-SW 213 0 min 0,000 mm 0,0 UV-I 8 W/m 7,6 C 2,7 C 22,5 km/h (4 Bft) 100,00 %
30.04.2019 20:08 8,8 C 11,7 C 7,8 C 92 % 1015,0 hPa 0,0 l/m 12,2 km/h (2 Bft) S-SW 201 0 min 0,000 mm 0,0 UV-I 7 W/m 7,6 C 5,0 C 20,9 km/h (4 Bft) 100,00 %
30.04.2019 20:10 8,8 C 11,7 C 7,8 C 92 % 1014,9 hPa 0,0 l/m 14,3 km/h (3 Bft) SW 235 0 min 0,000 mm 0,0 UV-I 7 W/m 7,6 C 4,0 C 22,5 km/h (4 Bft) 100,00 %
30.04.2019 20:12 8,8 C 11,7 C 7,8 C 92 % 1014,9 hPa 0,0 l/m 16,1 km/h (3 Bft) S-SW 211 0 min 0,000 mm 0,0 UV-I 7 W/m 7,6 C 3,2 C 25,7 km/h (4 Bft) 100,00 %
30.04.2019 20:14 8,7 C 11,7 C 7,8 C 92 % 1014,9 hPa 0,0 l/m 16,9 km/h (3 Bft) SW 224 0 min 0,000 mm 0,0 UV-I 7 W/m 7,5 C 2,8 C 24,1 km/h (4 Bft) 100,00 %
30.04.2019 20:16 8,7 C 11,7 C 7,2 C 92 % 1014,9 hPa 0,0 l/m 15,0 km/h (3 Bft) SW 219 0 min 0,000 mm 0,0 UV-I 5 W/m 7,5 C 3,6 C 22,5 km/h (4 Bft) 100,00 %
30.04.2019 20:18 8,7 C 11,7 C 7,2 C 92 % 1015,0 hPa 0,0 l/m 11,5 km/h (2 Bft) W-SW 244 0 min 0,000 mm 0,0 UV-I 5 W/m 7,5 C 5,3 C 17,7 km/h (3 Bft) 100,00 %
30.04.2019 20:20 8,7 C 11,7 C 7,8 C 92 % 1015,1 hPa 0,0 l/m 13,1 km/h (3 Bft) W-SW 250 0 min 0,000 mm 0,0 UV-I 5 W/m 7,5 C 4,5 C 20,9 km/h (4 Bft) 97,87 %
30.04.2019 20:22 8,7 C 11,7 C 7,8 C 92 % 1015,1 hPa 0,0 l/m 14,3 km/h (3 Bft) W-SW 246 0 min 0,000 mm 0,0 UV-I 5 W/m 7,5 C 3,9 C 22,5 km/h (4 Bft) 100,00 %
30.04.2019 20:24 8,7 C 11,7 C 7,8 C 92 % 1015,1 hPa 0,0 l/m 15,7 km/h (3 Bft) SW 233 0 min 0,000 mm 0,0 UV-I 1 W/m 7,5 C 3,3 C 24,1 km/h (4 Bft) 100,00 %
30.04.2019 20:26 8,7 C 11,7 C 7,8 C 93 % 1015,1 hPa 0,0 l/m 15,9 km/h (3 Bft) SW 221 0 min 0,000 mm 0,0 UV-I 0 W/m 7,6 C 3,2 C 22,5 km/h (4 Bft) 98,11 %
30.04.2019 20:29 8,7 C 11,7 C 7,8 C 92 % 1015,1 hPa 0,0 l/m 15,3 km/h (3 Bft) SW 226 0 min 0,000 mm 0,0 UV-I 0 W/m 7,5 C 3,4 C 22,5 km/h (4 Bft) 100,00 %
30.04.2019 20:30 8,7 C 11,7 C 7,8 C 92 % 1015,1 hPa 0,0 l/m 13,7 km/h (3 Bft) W-SW 247 0 min 0,000 mm 0,0 UV-I 0 W/m 7,5 C 4,2 C 19,3 km/h (3 Bft) 100,00 %
30.04.2019 20:32 8,7 C 11,7 C 7,8 C 92 % 1015,1 hPa 0,0 l/m 17,2 km/h (3 Bft) SW 234 0 min 0,000 mm 0,0 UV-I 0 W/m 7,5 C 2,6 C 24,1 km/h (4 Bft) 100,00 %
30.04.2019 20:34 8,7 C 11,7 C 7,8 C 92 % 1015,1 hPa 0,0 l/m 18,0 km/h (3 Bft) SW 227 0 min 0,000 mm 0,0 UV-I 0 W/m 7,5 C 2,3 C 27,4 km/h (4 Bft) 100,00 %
30.04.2019 20:36 8,7 C 11,7 C 7,8 C 93 % 1015,1 hPa 0,0 l/m 18,8 km/h (3 Bft) W-SW 252 0 min 0,000 mm 0,0 UV-I 0 W/m 7,6 C 2,0 C 27,4 km/h (4 Bft) 97,87 %
30.04.2019 20:38 8,7 C 11,7 C 7,8 C 93 % 1015,2 hPa 0,0 l/m 16,6 km/h (3 Bft) S-SW 213 0 min 0,000 mm 0,0 UV-I 0 W/m 7,6 C 2,9 C 25,7 km/h (4 Bft) 100,00 %
30.04.2019 20:40 8,6 C 11,7 C 7,8 C 93 % 1015,2 hPa 0,0 l/m 17,2 km/h (3 Bft) W-SW 246 0 min 0,000 mm 0,0 UV-I 0 W/m 7,5 C 2,5 C 24,1 km/h (4 Bft) 97,62 %
30.04.2019 20:42 8,6 C 11,7 C 7,8 C 93 % 1015,2 hPa 0,0 l/m 13,5 km/h (3 Bft) W-SW 249 0 min 0,000 mm 0,0 UV-I 0 W/m 7,5 C 4,1 C 19,3 km/h (3 Bft) 100,00 %
30.04.2019 20:44 8,6 C 11,7 C 7,8 C 93 % 1015,2 hPa 0,0 l/m 17,6 km/h (3 Bft) W 265 0 min 0,000 mm 0,0 UV-I 0 W/m 7,5 C 2,4 C 25,7 km/h (4 Bft) 100,00 %
30.04.2019 20:46 8,6 C 11,7 C 7,8 C 93 % 1015,2 hPa 0,0 l/m 15,1 km/h (3 Bft) W-SW 237 0 min 0,000 mm 0,0 UV-I 0 W/m 7,5 C 3,4 C 22,5 km/h (4 Bft) 100,00 %
30.04.2019 20:48 8,6 C 11,7 C 7,8 C 93 % 1015,2 hPa 0,0 l/m 14,8 km/h (3 Bft) SW 236 0 min 0,000 mm 0,0 UV-I 0 W/m 7,5 C 3,5 C 22,5 km/h (4 Bft) 97,73 %
30.04.2019 20:50 8,6 C 11,7 C 7,8 C 93 % 1015,2 hPa 0,0 l/m 13,8 km/h (3 Bft) S-SW 212 0 min 0,000 mm 0,0 UV-I 0 W/m 7,5 C 4,0 C 22,5 km/h (4 Bft) 97,87 %
30.04.2019 20:52 8,5 C 11,7 C 7,8 C 93 % 1015,3 hPa 0,0 l/m 15,4 km/h (3 Bft) SW 218 0 min 0,000 mm 0,0 UV-I 0 W/m 7,4 C 3,1 C 29,0 km/h (5 Bft) 98,00 %
30.04.2019 20:54 8,5 C 11,7 C 7,2 C 93 % 1015,3 hPa 0,0 l/m 15,6 km/h (3 Bft) SW 226 0 min 0,000 mm 0,0 UV-I 0 W/m 7,4 C 3,1 C 22,5 km/h (4 Bft) 97,87 %
30.04.2019 20:56 8,5 C 11,7 C 7,2 C 93 % 1015,4 hPa 0,0 l/m 15,4 km/h (3 Bft) SW 230 0 min 0,000 mm 0,0 UV-I 0 W/m 7,4 C 3,1 C 24,1 km/h (4 Bft) 97,73 %
30.04.2019 20:59 8,4 C 11,7 C 7,2 C 93 % 1015,4 hPa 0,0 l/m 15,6 km/h (3 Bft) W-SW 252 0 min 0,000 mm 0,0 UV-I 0 W/m 7,3 C 2,9 C 25,7 km/h (4 Bft) 95,59 %
30.04.2019 21:00 8,4 C 11,7 C 7,2 C 93 % 1015,4 hPa 0,0 l/m 11,4 km/h (2 Bft) SW 236 0 min 0,000 mm 0,0 UV-I 0 W/m 7,3 C 5,0 C 16,1 km/h (3 Bft) 95,65 %
30.04.2019 21:02 8,4 C 11,7 C 7,2 C 93 % 1015,5 hPa 0,0 l/m 13,2 km/h (3 Bft) W-SW 255 0 min 0,025 mm 0,0 UV-I 0 W/m 7,3 C 4,0 C 20,9 km/h (4 Bft) 94,34 %
30.04.2019 21:04 8,4 C 11,7 C 7,2 C 93 % 1015,5 hPa 0,0 l/m 14,4 km/h (3 Bft) W-SW 254 0 min 0,000 mm 0,0 UV-I 0 W/m 7,3 C 3,5 C 19,3 km/h (3 Bft) 100,00 %
30.04.2019 21:06 8,3 C 11,7 C 7,2 C 93 % 1015,5 hPa 0,0 l/m 16,3 km/h (3 Bft) SW 236 0 min 0,000 mm 0,0 UV-I 0 W/m 7,2 C 2,5 C 24,1 km/h (4 Bft) 98,00 %
30.04.2019 21:08 8,3 C 11,7 C 7,2 C 93 % 1015,5 hPa 0,0 l/m 13,4 km/h (3 Bft) W-SW 244 0 min 0,000 mm 0,0 UV-I 0 W/m 7,2 C 3,8 C 17,7 km/h (3 Bft) 100,00 %
30.04.2019 21:10 8,3 C 11,7 C 6,7 C 93 % 1015,6 hPa 0,0 l/m 19,2 km/h (3 Bft) SW 232 0 min 0,000 mm 0,0 UV-I 0 W/m 7,2 C 1,4 C 27,4 km/h (4 Bft) 96,88 %
30.04.2019 21:12 8,3 C 11,7 C 6,7 C 93 % 1015,6 hPa 0,0 l/m 16,7 km/h (3 Bft) W-SW 240 0 min 0,000 mm 0,0 UV-I 0 W/m 7,2 C 2,3 C 25,7 km/h (4 Bft) 98,11 %
30.04.2019 21:14 8,2 C 11,7 C 6,7 C 93 % 1015,7 hPa 0,0 l/m 17,5 km/h (3 Bft) SW 225 0 min 0,000 mm 0,0 UV-I 0 W/m 7,1 C 1,9 C 24,1 km/h (4 Bft) 100,00 %
30.04.2019 21:16 8,2 C 11,7 C 6,7 C 93 % 1015,6 hPa 0,0 l/m 20,3 km/h (4 Bft) W-SW 248 0 min 0,000 mm 0,0 UV-I 0 W/m 7,1 C 0,9 C 29,0 km/h (5 Bft) 98,08 %
30.04.2019 21:18 8,2 C 11,7 C 6,7 C 93 % 1015,7 hPa 0,0 l/m 18,2 km/h (3 Bft) SW 221 0 min 0,000 mm 0,0 UV-I 0 W/m 7,1 C 1,6 C 29,0 km/h (5 Bft) 100,00 %
30.04.2019 21:20 8,2 C 11,7 C 6,7 C 93 % 1015,6 hPa 0,0 l/m 15,2 km/h (3 Bft) W-SW 237 0 min 0,000 mm 0,0 UV-I 0 W/m 7,1 C 2,9 C 22,5 km/h (4 Bft) 100,00 %
30.04.2019 21:22 8,2 C 11,7 C 6,7 C 93 % 1015,7 hPa 0,0 l/m 19,1 km/h (3 Bft) W-SW 243 0 min 0,000 mm 0,0 UV-I 0 W/m 7,1 C 1,3 C 27,4 km/h (4 Bft) 100,00 %
30.04.2019 21:24 8,3 C 11,7 C 6,7 C 93 % 1015,7 hPa 0,0 l/m 17,4 km/h (3 Bft) W-SW 238 0 min 0,000 mm 0,0 UV-I 0 W/m 7,2 C 2,1 C 25,7 km/h (4 Bft) 100,00 %
30.04.2019 21:26 8,2 C 11,7 C 7,2 C 93 % 1015,8 hPa 0,0 l/m 19,5 km/h (3 Bft) W-SW 252 0 min 0,000 mm 0,0 UV-I 0 W/m 7,1 C 1,1 C 29,0 km/h (5 Bft) 100,00 %
30.04.2019 21:28 8,2 C 11,7 C 7,2 C 93 % 1015,7 hPa 0,0 l/m 16,5 km/h (3 Bft) W-SW 244 0 min 0,000 mm 0,0 UV-I 0 W/m 7,1 C 2,3 C 25,7 km/h (4 Bft) 100,00 %
30.04.2019 21:30 8,2 C 11,7 C 6,7 C 93 % 1015,7 hPa 0,0 l/m 15,8 km/h (3 Bft) W 265 0 min 0,000 mm 0,0 UV-I 0 W/m 7,1 C 2,6 C 25,7 km/h (4 Bft) 100,00 %
30.04.2019 21:32 8,2 C 11,7 C 7,2 C 93 % 1015,8 hPa 0,0 l/m 20,6 km/h (4 Bft) SW 223 0 min 0,000 mm 0,0 UV-I 0 W/m 7,1 C 0,8 C 29,0 km/h (5 Bft) 100,00 %
30.04.2019 21:34 8,2 C 11,7 C 7,2 C 93 % 1015,8 hPa 0,0 l/m 18,8 km/h (3 Bft) W-SW 252 0 min 0,000 mm 0,0 UV-I 0 W/m 7,1 C 1,4 C 27,4 km/h (4 Bft) 100,00 %
30.04.2019 21:36 8,2 C 11,7 C 7,2 C 93 % 1015,8 hPa 0,0 l/m 17,7 km/h (3 Bft) SW 227 0 min 0,000 mm 0,0 UV-I 0 W/m 7,1 C 1,8 C 25,7 km/h (4 Bft) 100,00 %
30.04.2019 21:38 8,2 C 11,7 C 7,2 C 93 % 1015,8 hPa 0,0 l/m 17,7 km/h (3 Bft) W-SW 244 0 min 0,000 mm 0,0 UV-I 0 W/m 7,1 C 1,8 C 22,5 km/h (4 Bft) 97,87 %
30.04.2019 21:40 8,2 C 11,7 C 7,2 C 93 % 1015,8 hPa 0,0 l/m 19,5 km/h (3 Bft) W 275 0 min 0,000 mm 0,0 UV-I 0 W/m 7,1 C 1,1 C 27,4 km/h (4 Bft) 97,87 %
30.04.2019 21:42 8,2 C 11,7 C 7,2 C 93 % 1015,8 hPa 0,0 l/m 16,6 km/h (3 Bft) W-SW 240 0 min 0,000 mm 0,0 UV-I 0 W/m 7,1 C 2,3 C 24,1 km/h (4 Bft) 95,83 %
30.04.2019 21:44 8,2 C 11,7 C 7,2 C 93 % 1015,9 hPa 0,0 l/m 16,7 km/h (3 Bft) W-SW 244 0 min 0,000 mm 0,0 UV-I 0 W/m 7,1 C 2,2 C 25,7 km/h (4 Bft) 95,71 %
30.04.2019 21:46 8,2 C 11,7 C 7,2 C 93 % 1016,0 hPa 0,0 l/m 18,1 km/h (3 Bft) SW 225 0 min 0,000 mm 0,0 UV-I 0 W/m 7,1 C 1,7 C 24,1 km/h (4 Bft) 97,87 %
30.04.2019 21:48 8,1 C 11,7 C 6,7 C 93 % 1015,9 hPa 0,0 l/m 17,4 km/h (3 Bft) W-SW 237 0 min 0,000 mm 0,0 UV-I 0 W/m 7,0 C 1,8 C 30,6 km/h (5 Bft) 95,74 %
30.04.2019 21:50 8,1 C 11,7 C 6,7 C 93 % 1015,9 hPa 0,0 l/m 18,1 km/h (3 Bft) W 269 0 min 0,000 mm 0,0 UV-I 0 W/m 7,0 C 1,5 C 27,4 km/h (4 Bft) 97,14 %
30.04.2019 21:52 8,1 C 11,7 C 6,7 C 93 % 1015,9 hPa 0,0 l/m 18,2 km/h (3 Bft) W 271 0 min 0,000 mm 0,0 UV-I 0 W/m 7,0 C 1,5 C 22,5 km/h (4 Bft) 98,00 %
30.04.2019 21:54 8,1 C 11,7 C 6,7 C 93 % 1015,9 hPa 0,0 l/m 18,6 km/h (3 Bft) W-SW 248 0 min 0,000 mm 0,0 UV-I 0 W/m 7,0 C 1,3 C 25,7 km/h (4 Bft) 96,00 %
30.04.2019 21:56 8,1 C 11,7 C 6,7 C 93 % 1015,9 hPa 0,0 l/m 17,3 km/h (3 Bft) W-SW 252 0 min 0,000 mm 0,0 UV-I 0 W/m 7,0 C 1,8 C 24,1 km/h (4 Bft) 97,87 %
30.04.2019 21:58 8,1 C 11,7 C 6,7 C 93 % 1015,9 hPa 0,0 l/m 17,0 km/h (3 Bft) W 259 0 min 0,000 mm 0,0 UV-I 0 W/m 7,0 C 2,0 C 27,4 km/h (4 Bft) 92,31 %
30.04.2019 22:00 8,1 C 11,7 C 6,7 C 93 % 1015,9 hPa 0,0 l/m 17,6 km/h (3 Bft) W 265 0 min 0,000 mm 0,0 UV-I 0 W/m 7,0 C 1,7 C 29,0 km/h (5 Bft) 97,56 %
30.04.2019 22:02 8,1 C 11,7 C 6,7 C 93 % 1016,0 hPa 0,0 l/m 17,8 km/h (3 Bft) W 272 0 min 0,025 mm 0,0 UV-I 0 W/m 7,0 C 1,6 C 25,7 km/h (4 Bft) 95,16 %
30.04.2019 22:04 8,1 C 11,7 C 6,7 C 92 % 1015,9 hPa 0,0 l/m 16,1 km/h (3 Bft) W-SW 248 0 min 0,000 mm 0,0 UV-I 0 W/m 6,9 C 2,3 C 27,4 km/h (4 Bft) 97,87 %
30.04.2019 22:06 8,1 C 11,7 C 6,7 C 92 % 1015,9 hPa 0,0 l/m 17,3 km/h (3 Bft) W-NW 294 0 min 0,000 mm 0,0 UV-I 0 W/m 6,9 C 1,8 C 25,7 km/h (4 Bft) 96,00 %
30.04.2019 22:08 8,1 C 11,7 C 6,7 C 92 % 1015,9 hPa 0,0 l/m 18,3 km/h (3 Bft) W-SW 247 0 min 0,000 mm 0,0 UV-I 0 W/m 6,9 C 1,5 C 27,4 km/h (4 Bft) 97,37 %
30.04.2019 22:10 8,1 C 11,7 C 6,7 C 93 % 1015,9 hPa 0,0 l/m 18,7 km/h (3 Bft) SW 227 0 min 0,000 mm 0,0 UV-I 0 W/m 7,0 C 1,3 C 27,4 km/h (4 Bft) 96,43 %
30.04.2019 22:12 8,1 C 11,7 C 6,7 C 92 % 1015,9 hPa 0,0 l/m 17,7 km/h (3 Bft) W 261 0 min 0,000 mm 0,0 UV-I 0 W/m 6,9 C 1,7 C 24,1 km/h (4 Bft) 94,29 %
30.04.2019 22:14 8,1 C 11,7 C 6,7 C 92 % 1015,9 hPa 0,0 l/m 15,0 km/h (3 Bft) W-SW 257 0 min 0,000 mm 0,0 UV-I 0 W/m 6,9 C 2,8 C 19,3 km/h (3 Bft) 96,43 %
30.04.2019 22:16 8,1 C 11,7 C 6,7 C 92 % 1016,0 hPa 0,0 l/m 18,6 km/h (3 Bft) W-SW 257 0 min 0,000 mm 0,0 UV-I 0 W/m 6,9 C 1,3 C 24,1 km/h (4 Bft) 98,00 %
30.04.2019 22:18 8,1 C 11,7 C 6,7 C 92 % 1015,9 hPa 0,0 l/m 17,6 km/h (3 Bft) W-SW 238 0 min 0,000 mm 0,0 UV-I 0 W/m 6,9 C 1,7 C 27,4 km/h (4 Bft) 95,12 %
30.04.2019 22:20 8,1 C 11,7 C 6,7 C 92 % 1016,0 hPa 0,0 l/m 16,2 km/h (3 Bft) W 271 0 min 0,000 mm 0,0 UV-I 0 W/m 6,9 C 2,3 C 24,1 km/h (4 Bft) 95,74 %
30.04.2019 22:22 8,1 C 11,7 C 6,7 C 92 % 1016,1 hPa 0,0 l/m 16,1 km/h (3 Bft) W 277 0 min 0,000 mm 0,0 UV-I 0 W/m 6,9 C 2,3 C 22,5 km/h (4 Bft) 96,00 %
30.04.2019 22:24 8,1 C 11,7 C 6,7 C 92 % 1016,0 hPa 0,0 l/m 18,0 km/h (3 Bft) W 276 0 min 0,000 mm 0,0 UV-I 0 W/m 6,9 C 1,6 C 24,1 km/h (4 Bft) 97,87 %
30.04.2019 22:26 8,1 C 11,7 C 6,7 C 92 % 1016,2 hPa 0,0 l/m 19,2 km/h (3 Bft) W 265 0 min 0,000 mm 0,0 UV-I 0 W/m 6,9 C 1,1 C 25,7 km/h (4 Bft) 97,87 %
30.04.2019 22:29 8,1 C 11,7 C 6,7 C 92 % 1016,1 hPa 0,0 l/m 18,1 km/h (3 Bft) W 277 0 min 0,000 mm 0,0 UV-I 0 W/m 6,9 C 1,5 C 25,7 km/h (4 Bft) 98,53 %
30.04.2019 22:30 8,1 C 11,7 C 6,7 C 92 % 1016,1 hPa 0,0 l/m 17,4 km/h (3 Bft) W-SW 254 0 min 0,000 mm 0,0 UV-I 0 W/m 6,9 C 1,8 C 22,5 km/h (4 Bft) 94,44 %
30.04.2019 22:32 8,1 C 11,7 C 6,7 C 92 % 1016,0 hPa 0,0 l/m 16,8 km/h (3 Bft) W 267 0 min 0,000 mm 0,0 UV-I 0 W/m 6,9 C 2,1 C 24,1 km/h (4 Bft) 100,00 %
30.04.2019 22:34 8,0 C 11,7 C 6,7 C 92 % 1016,1 hPa 0,0 l/m 18,7 km/h (3 Bft) W 261 0 min 0,000 mm 0,0 UV-I 0 W/m 6,8 C 1,2 C 24,1 km/h (4 Bft) 100,00 %
30.04.2019 22:36 8,0 C 11,7 C 6,7 C 92 % 1016,1 hPa 0,0 l/m 17,4 km/h (3 Bft) W 261 0 min 0,000 mm 0,0 UV-I 0 W/m 6,8 C 1,7 C 25,7 km/h (4 Bft) 95,74 %
30.04.2019 22:38 8,0 C 11,1 C 6,7 C 92 % 1016,1 hPa 0,0 l/m 16,9 km/h (3 Bft) W 261 0 min 0,000 mm 0,0 UV-I 0 W/m 6,8 C 1,9 C 22,5 km/h (4 Bft) 100,00 %
30.04.2019 22:40 8,0 C 11,1 C 6,7 C 92 % 1016,1 hPa 0,0 l/m 16,5 km/h (3 Bft) W 263 0 min 0,000 mm 0,0 UV-I 0 W/m 6,8 C 2,1 C 22,5 km/h (4 Bft) 100,00 %
30.04.2019 22:42 8,0 C 11,1 C 6,7 C 92 % 1016,2 hPa 0,0 l/m 15,8 km/h (3 Bft) W-NW 285 0 min 0,000 mm 0,0 UV-I 0 W/m 6,8 C 2,4 C 24,1 km/h (4 Bft) 96,43 %
30.04.2019 22:44 7,9 C 11,1 C 6,7 C 92 % 1016,1 hPa 0,0 l/m 18,7 km/h (3 Bft) W-SW 239 0 min 0,000 mm 0,0 UV-I 0 W/m 6,7 C 1,1 C 27,4 km/h (4 Bft) 100,00 %
30.04.2019 22:46 7,9 C 11,1 C 6,7 C 92 % 1016,1 hPa 0,0 l/m 17,0 km/h (3 Bft) W-SW 258 0 min 0,000 mm 0,0 UV-I 0 W/m 6,7 C 1,7 C 25,7 km/h (4 Bft) 100,00 %
30.04.2019 22:48 7,9 C 11,1 C 6,7 C 92 % 1016,1 hPa 0,0 l/m 18,9 km/h (3 Bft) W 261 0 min 0,000 mm 0,0 UV-I 0 W/m 6,7 C 1,0 C 25,7 km/h (4 Bft) 100,00 %
30.04.2019 22:50 7,9 C 11,1 C 6,7 C 92 % 1016,1 hPa 0,0 l/m 16,0 km/h (3 Bft) W 267 0 min 0,000 mm 0,0 UV-I 0 W/m 6,7 C 2,1 C 22,5 km/h (4 Bft) 100,00 %
30.04.2019 22:52 7,9 C 11,1 C 6,7 C 92 % 1016,1 hPa 0,0 l/m 15,4 km/h (3 Bft) W 265 0 min 0,000 mm 0,0 UV-I 0 W/m 6,7 C 2,4 C 20,9 km/h (4 Bft) 100,00 %
30.04.2019 22:54 7,9 C 11,1 C 6,7 C 92 % 1016,0 hPa 0,0 l/m 16,0 km/h (3 Bft) SW 219 0 min 0,000 mm 0,0 UV-I 0 W/m 6,7 C 2,1 C 22,5 km/h (4 Bft) 97,73 %
30.04.2019 22:56 7,9 C 11,1 C 6,7 C 92 % 1016,1 hPa 0,0 l/m 16,7 km/h (3 Bft) W-SW 247 0 min 0,000 mm 0,0 UV-I 0 W/m 6,7 C 1,8 C 24,1 km/h (4 Bft) 94,34 %
30.04.2019 22:58 7,9 C 11,1 C 6,7 C 92 % 1016,1 hPa 0,0 l/m 17,9 km/h (3 Bft) W-SW 250 0 min 0,000 mm 0,0 UV-I 0 W/m 6,7 C 1,4 C 25,7 km/h (4 Bft) 97,87 %
30.04.2019 23:00 7,9 C 11,1 C 6,7 C 92 % 1016,0 hPa 0,0 l/m 15,5 km/h (3 Bft) W-SW 250 0 min 0,026 mm 0,0 UV-I 0 W/m 6,7 C 2,4 C 22,5 km/h (4 Bft) 95,12 %
30.04.2019 23:02 7,9 C 11,1 C 6,7 C 92 % 1016,1 hPa 0,0 l/m 16,3 km/h (3 Bft) W-SW 258 0 min 0,000 mm 0,0 UV-I 0 W/m 6,7 C 2,0 C 27,4 km/h (4 Bft) 98,00 %
30.04.2019 23:04 7,9 C 11,1 C 6,7 C 92 % 1016,1 hPa 0,0 l/m 15,8 km/h (3 Bft) W 259 0 min 0,000 mm 0,0 UV-I 0 W/m 6,7 C 2,2 C 22,5 km/h (4 Bft) 95,12 %
30.04.2019 23:06 7,9 C 11,1 C 6,7 C 92 % 1016,2 hPa 0,0 l/m 17,4 km/h (3 Bft) SW 223 0 min 0,000 mm 0,0 UV-I 0 W/m 6,7 C 1,6 C 24,1 km/h (4 Bft) 98,11 %
30.04.2019 23:08 7,9 C 11,1 C 6,7 C 92 % 1016,1 hPa 0,0 l/m 18,3 km/h (3 Bft) W 261 0 min 0,000 mm 0,0 UV-I 0 W/m 6,7 C 1,2 C 30,6 km/h (5 Bft) 97,87 %
30.04.2019 23:10 8,0 C 11,1 C 6,7 C 92 % 1016,2 hPa 0,0 l/m 17,7 km/h (3 Bft) W-SW 257 0 min 0,000 mm 0,0 UV-I 0 W/m 6,8 C 1,6 C 24,1 km/h (4 Bft) 98,00 %
30.04.2019 23:12 8,0 C 11,1 C 6,7 C 92 % 1016,1 hPa 0,0 l/m 17,6 km/h (3 Bft) W-SW 254 0 min 0,000 mm 0,0 UV-I 0 W/m 6,8 C 1,6 C 24,1 km/h (4 Bft) 97,22 %
30.04.2019 23:14 8,1 C 11,1 C 6,7 C 92 % 1016,1 hPa 0,0 l/m 18,0 km/h (3 Bft) W 262 0 min 0,000 mm 0,0 UV-I 0 W/m 6,9 C 1,6 C 25,7 km/h (4 Bft) 98,21 %
30.04.2019 23:16 8,1 C 11,1 C 6,7 C 92 % 1016,2 hPa 0,0 l/m 14,2 km/h (3 Bft) SW 232 0 min 0,000 mm 0,0 UV-I 0 W/m 6,9 C 3,2 C 25,7 km/h (4 Bft) 97,37 %
30.04.2019 23:18 8,1 C 11,1 C 6,7 C 92 % 1016,2 hPa 0,0 l/m 17,0 km/h (3 Bft) S-SW 211 0 min 0,000 mm 0,0 UV-I 0 W/m 6,9 C 2,0 C 24,1 km/h (4 Bft) 96,43 %
30.04.2019 23:20 8,1 C 11,1 C 6,7 C 92 % 1016,2 hPa 0,0 l/m 15,7 km/h (3 Bft) W 259 0 min 0,000 mm 0,0 UV-I 0 W/m 6,9 C 2,5 C 20,9 km/h (4 Bft) 97,73 %
30.04.2019 23:22 8,1 C 11,1 C 6,7 C 92 % 1016,1 hPa 0,0 l/m 15,2 km/h (3 Bft) W 266 0 min 0,000 mm 0,0 UV-I 0 W/m 6,9 C 2,7 C 19,3 km/h (3 Bft) 97,87 %
30.04.2019 23:24 8,0 C 11,1 C 6,7 C 92 % 1016,2 hPa 0,0 l/m 16,2 km/h (3 Bft) W 271 0 min 0,000 mm 0,0 UV-I 0 W/m 6,8 C 2,2 C 22,5 km/h (4 Bft) 100,00 %
30.04.2019 23:26 8,0 C 11,1 C 6,7 C 92 % 1016,1 hPa 0,0 l/m 16,5 km/h (3 Bft) W 266 0 min 0,000 mm 0,0 UV-I 0 W/m 6,8 C 2,1 C 24,1 km/h (4 Bft) 98,11 %
30.04.2019 23:28 8,0 C 11,1 C 6,7 C 92 % 1016,1 hPa 0,0 l/m 15,2 km/h (3 Bft) W-SW 253 0 min 0,000 mm 0,0 UV-I 0 W/m 6,8 C 2,6 C 20,9 km/h (4 Bft) 94,74 %
30.04.2019 23:30 8,0 C 11,1 C 6,7 C 92 % 1016,1 hPa 0,0 l/m 14,4 km/h (3 Bft) SW 232 0 min 0,000 mm 0,0 UV-I 0 W/m 6,8 C 3,0 C 19,3 km/h (3 Bft) 96,23 %
30.04.2019 23:32 8,0 C 11,1 C 6,7 C 92 % 1016,1 hPa 0,0 l/m 14,5 km/h (3 Bft) W 277 0 min 0,000 mm 0,0 UV-I 0 W/m 6,8 C 2,9 C 24,1 km/h (4 Bft) 95,12 %
30.04.2019 23:34 8,0 C 11,1 C 6,7 C 92 % 1016,1 hPa 0,0 l/m 16,2 km/h (3 Bft) W-SW 242 0 min 0,000 mm 0,0 UV-I 0 W/m 6,8 C 2,2 C 20,9 km/h (4 Bft) 93,62 %
30.04.2019 23:36 8,1 C 11,1 C 6,7 C 92 % 1016,2 hPa 0,0 l/m 17,2 km/h (3 Bft) SW 232 0 min 0,000 mm 0,0 UV-I 0 W/m 6,9 C 1,9 C 22,5 km/h (4 Bft) 95,74 %
30.04.2019 23:38 8,1 C 11,1 C 6,7 C 92 % 1016,1 hPa 0,0 l/m 18,3 km/h (3 Bft) W-SW 252 0 min 0,000 mm 0,0 UV-I 0 W/m 6,9 C 1,5 C 27,4 km/h (4 Bft) 93,62 %
30.04.2019 23:40 8,1 C 11,1 C 7,2 C 92 % 1016,1 hPa 0,0 l/m 15,0 km/h (3 Bft) W 269 0 min 0,000 mm 0,0 UV-I 0 W/m 6,9 C 2,8 C 24,1 km/h (4 Bft) 94,00 %
30.04.2019 23:42 8,1 C 11,1 C 7,2 C 92 % 1016,2 hPa 0,0 l/m 19,8 km/h (3 Bft) W 267 0 min 0,000 mm 0,0 UV-I 0 W/m 6,9 C 0,9 C 25,7 km/h (4 Bft) 95,12 %
30.04.2019 23:44 8,1 C 11,1 C 7,2 C 92 % 1016,1 hPa 0,0 l/m 19,5 km/h (3 Bft) W 279 0 min 0,000 mm 0,0 UV-I 0 W/m 6,9 C 1,0 C 25,7 km/h (4 Bft) 96,23 %
30.04.2019 23:46 8,1 C 11,1 C 7,2 C 92 % 1016,1 hPa 0,0 l/m 15,7 km/h (3 Bft) W 265 0 min 0,000 mm 0,0 UV-I 0 W/m 6,9 C 2,5 C 24,1 km/h (4 Bft) 97,62 %
30.04.2019 23:48 8,1 C 11,1 C 7,2 C 92 % 1016,1 hPa 0,0 l/m 16,0 km/h (3 Bft) W 270 0 min 0,000 mm 0,0 UV-I 0 W/m 6,9 C 2,4 C 27,4 km/h (4 Bft) 89,36 %
30.04.2019 23:50 8,1 C 11,1 C 6,7 C 92 % 1016,1 hPa 0,0 l/m 16,5 km/h (3 Bft) W 265 0 min 0,000 mm 0,0 UV-I 0 W/m 6,9 C 2,2 C 29,0 km/h (5 Bft) 93,62 %
30.04.2019 23:52 8,0 C 11,1 C 7,2 C 92 % 1016,1 hPa 0,0 l/m 16,5 km/h (3 Bft) W 273 0 min 0,000 mm 0,0 UV-I 0 W/m 6,8 C 2,1 C 25,7 km/h (4 Bft) 96,00 %
30.04.2019 23:54 8,1 C 11,1 C 7,2 C 92 % 1016,1 hPa 0,0 l/m 13,7 km/h (3 Bft) W-SW 251 0 min 0,000 mm 0,0 UV-I 0 W/m 6,9 C 3,4 C 25,7 km/h (4 Bft) 96,23 %
30.04.2019 23:56 8,1 C 11,1 C 7,2 C 92 % 1016,1 hPa 0,0 l/m 17,3 km/h (3 Bft) W-NW 299 0 min 0,000 mm 0,0 UV-I 0 W/m 6,9 C 1,8 C 24,1 km/h (4 Bft) 95,12 %
30.04.2019 23:58 8,0 C 11,1 C 6,7 C 92 % 1016,1 hPa 0,0 l/m 15,7 km/h (3 Bft) W 271 0 min 0,000 mm 0,0 UV-I 0 W/m 6,8 C 2,4 C 20,9 km/h (4 Bft) 94,00 %
_ Min-Zeit 04:30 22:38 03:18 18:06 18:24 - 19:22 - - - - - - 04:30 04:40 19:20 23:48
Minimum _ 5,8 C 11,1 C 5,6 C 88 % 1013,5 hPa - 1,4 km/h (1 Bft) - - - - - - 4,8 C -4,5 C 4,8 km/h (1 Bft) 89,36 %
_ Max-Zeit 17:32 00:00 17:10 12:14 00:26 19:00 18:46 - - 17:09 18:02 16:18 17:09 17:12 18:38 07:14 00:02
Maximum _ 10,7 C 12,8 C 16,1 C 96 % 1016,9 hPa 1,4 l/m 29,9 km/h
O-NO (5 Bft)
- - 3 min 0,152 mm 1,3 UV-I 534 W/m 9,3 C 10,3 C 43,5 km/h
W (6 Bft)
100,00 %
Durchschnitt _ 7,3 C 11,9 C 7,4 C 94 % 1015,0 hPa #31,8 l/m 17,6 km/h (3 Bft) W-SW - #1:18 h #0,813 mm 0,6 UV-I 83 W/m 6,3 C 0,9 C 26,5 km/h (4 Bft) 97,32 %